<?xml version='1.0' encoding='UTF-8'?><gpx version="1.1" creator="JPX - https://github.com/jenetics/jpx" xmlns="http://www.topografix.com/GPX/1/1"><trk><trkseg><trkpt lat="40.7712364522473" lon="17.426429956224"><ele>346.0</ele><time>2026-03-30T13:56:24.998Z</time></trkpt><trkpt lat="40.77129903988814" lon="17.426372712243744"><ele>346.0</ele><time>2026-03-30T13:56:27.998Z</time></trkpt><trkpt lat="40.771363700924404" lon="17.426333127312137"><ele>346.0</ele><time>2026-03-30T13:56:31.998Z</time></trkpt><trkpt lat="40.77140372346864" lon="17.42626069806925"><ele>346.0</ele><time>2026-03-30T13:56:34.998Z</time></trkpt><trkpt lat="40.77151294889143" lon="17.426343620622774"><ele>346.0</ele><time>2026-03-30T13:56:36.998Z</time></trkpt><trkpt lat="40.77157159056397" lon="17.42639750011312"><ele>346.0</ele><time>2026-03-30T13:56:37.998Z</time></trkpt><trkpt lat="40.771635300480035" lon="17.426467197037045"><ele>346.0</ele><time>2026-03-30T13:56:38.998Z</time></trkpt><trkpt lat="40.77167764748251" lon="17.426563786484202"><ele>346.0</ele><time>2026-03-30T13:56:39.998Z</time></trkpt><trkpt lat="40.77170422658465" lon="17.426666908818152"><ele>346.0</ele><time>2026-03-30T13:56:40.998Z</time></trkpt><trkpt lat="40.77173426274148" lon="17.426746678998093"><ele>346.0</ele><time>2026-03-30T13:56:41.998Z</time></trkpt><trkpt lat="40.771803639539705" lon="17.426834335427138"><ele>346.0</ele><time>2026-03-30T13:56:43.998Z</time></trkpt><trkpt lat="40.771914898183084" lon="17.426698716426124"><ele>346.5</ele><time>2026-03-30T13:56:46.998Z</time></trkpt><trkpt lat="40.77195546091339" lon="17.42662838969974"><ele>347.0</ele><time>2026-03-30T13:56:47.998Z</time></trkpt><trkpt lat="40.772003715609365" lon="17.42655442465056"><ele>347.5</ele><time>2026-03-30T13:56:48.998Z</time></trkpt><trkpt lat="40.77204580121178" lon="17.426483318391426"><ele>348.0</ele><time>2026-03-30T13:56:49.998Z</time></trkpt><trkpt lat="40.77209594441267" lon="17.42637492634247"><ele>348.5</ele><time>2026-03-30T13:56:51.998Z</time></trkpt><trkpt lat="40.772154550993925" lon="17.426441386769365"><ele>349.0</ele><time>2026-03-30T13:56:53.998Z</time></trkpt><trkpt lat="40.772186713466716" lon="17.426525352206163"><ele>349.0</ele><time>2026-03-30T13:56:55.998Z</time></trkpt><trkpt lat="40.77223064918008" lon="17.42659939487074"><ele>349.0</ele><time>2026-03-30T13:56:57.999Z</time></trkpt><trkpt lat="40.7722939752578" lon="17.426693700758815"><ele>349.0</ele><time>2026-03-30T13:56:59.999Z</time></trkpt><trkpt lat="40.772333149287896" lon="17.426779720147998"><ele>349.0</ele><time>2026-03-30T13:57:01.999Z</time></trkpt><trkpt lat="40.77239839048446" lon="17.42687010789939"><ele>349.0</ele><time>2026-03-30T13:57:03.999Z</time></trkpt><trkpt lat="40.772463630247195" lon="17.426934551873494"><ele>349.0</ele><time>2026-03-30T13:57:05.999Z</time></trkpt><trkpt lat="40.77253301157479" lon="17.427023222601854"><ele>349.0</ele><time>2026-03-30T13:57:08Z</time></trkpt><trkpt lat="40.77258333486282" lon="17.427104888373933"><ele>349.0</ele><time>2026-03-30T13:57:10Z</time></trkpt><trkpt lat="40.772637740820706" lon="17.427189055483776"><ele>349.0</ele><time>2026-03-30T13:57:12Z</time></trkpt><trkpt lat="40.77268833750346" lon="17.427246290569396"><ele>349.0</ele><time>2026-03-30T13:57:14Z</time></trkpt><trkpt lat="40.77273858778305" lon="17.427312308034796"><ele>349.0</ele><time>2026-03-30T13:57:16Z</time></trkpt><trkpt lat="40.772858644362806" lon="17.42715234277424"><ele>350.2</ele><time>2026-03-30T13:57:23.999Z</time></trkpt><trkpt lat="40.77292861471237" lon="17.42709878677918"><ele>351.4</ele><time>2026-03-30T13:57:25.999Z</time></trkpt><trkpt lat="40.77300234859271" lon="17.4269903592107"><ele>352.6</ele><time>2026-03-30T13:57:27.999Z</time></trkpt><trkpt lat="40.77307315209923" lon="17.426885585159166"><ele>353.8</ele><time>2026-03-30T13:57:29.999Z</time></trkpt><trkpt lat="40.77315142807089" lon="17.42686573080269"><ele>355.0</ele><time>2026-03-30T13:57:32.999Z</time></trkpt><trkpt lat="40.773239392644406" lon="17.426940442092427"><ele>355.0</ele><time>2026-03-30T13:57:34.999Z</time></trkpt><trkpt lat="40.77331444454559" lon="17.42702096652411"><ele>355.0</ele><time>2026-03-30T13:57:36.999Z</time></trkpt><trkpt lat="40.773372227958774" lon="17.427099844094407"><ele>355.0</ele><time>2026-03-30T13:57:38.999Z</time></trkpt><trkpt lat="40.77345408014266" lon="17.427154015251887"><ele>355.0</ele><time>2026-03-30T13:57:40.999Z</time></trkpt><trkpt lat="40.77352422582186" lon="17.427231527722807"><ele>355.0</ele><time>2026-03-30T13:57:42.999Z</time></trkpt><trkpt lat="40.77359241357743" lon="17.427312505116145"><ele>356.66666666666663</ele><time>2026-03-30T13:57:44.999Z</time></trkpt><trkpt lat="40.773644072164586" lon="17.42739085242889"><ele>358.3333333333333</ele><time>2026-03-30T13:57:46.999Z</time></trkpt><trkpt lat="40.77369770010396" lon="17.427457173516686"><ele>360.0</ele><time>2026-03-30T13:57:48.999Z</time></trkpt><trkpt lat="40.77378135679441" lon="17.427486214507624"><ele>361.6666666666667</ele><time>2026-03-30T13:57:50.999Z</time></trkpt><trkpt lat="40.77384480756458" lon="17.427532959456194"><ele>363.33333333333337</ele><time>2026-03-30T13:57:52.999Z</time></trkpt><trkpt lat="40.773913616758655" lon="17.427558926709054"><ele>365.0</ele><time>2026-03-30T13:57:54.999Z</time></trkpt><trkpt lat="40.773967564982854" lon="17.427482349785407"><ele>365.0</ele><time>2026-03-30T13:57:56.999Z</time></trkpt><trkpt lat="40.773969193453695" lon="17.427390299101813"><ele>365.0</ele><time>2026-03-30T13:57:58.999Z</time></trkpt><trkpt lat="40.77399214962728" lon="17.4272833206216"><ele>365.0</ele><time>2026-03-30T13:58:00.999Z</time></trkpt><trkpt lat="40.77407101098133" lon="17.42722239837633"><ele>365.0</ele><time>2026-03-30T13:58:02.999Z</time></trkpt><trkpt lat="40.774158125203485" lon="17.42718015354611"><ele>365.0</ele><time>2026-03-30T13:58:05.999Z</time></trkpt><trkpt lat="40.77421128814507" lon="17.427127109096563"><ele>365.0</ele><time>2026-03-30T13:58:07.999Z</time></trkpt><trkpt lat="40.77427181757727" lon="17.427088346294227"><ele>365.0</ele><time>2026-03-30T13:58:10.999Z</time></trkpt><trkpt lat="40.77428533491846" lon="17.427184631550443"><ele>365.0</ele><time>2026-03-30T13:58:13.999Z</time></trkpt><trkpt lat="40.774248697283596" lon="17.427271150328565"><ele>365.0</ele><time>2026-03-30T13:58:15.999Z</time></trkpt><trkpt lat="40.77424747399502" lon="17.427403550731892"><ele>365.0</ele><time>2026-03-30T13:58:17.999Z</time></trkpt><trkpt lat="40.774242931738186" lon="17.427512332220434"><ele>365.0</ele><time>2026-03-30T13:58:19.999Z</time></trkpt><trkpt lat="40.77430629528913" lon="17.427566440583664"><ele>365.0</ele><time>2026-03-30T13:58:22.999Z</time></trkpt><trkpt lat="40.774398228821475" lon="17.42757639290705"><ele>363.33333333333337</ele><time>2026-03-30T13:58:25.999Z</time></trkpt><trkpt lat="40.77446504928555" lon="17.42757681678146"><ele>361.6666666666667</ele><time>2026-03-30T13:58:29.998Z</time></trkpt><trkpt lat="40.77448825035885" lon="17.427490024347545"><ele>360.0</ele><time>2026-03-30T13:58:32.998Z</time></trkpt><trkpt lat="40.77456286573543" lon="17.42743333255464"><ele>358.3333333333333</ele><time>2026-03-30T13:58:34.998Z</time></trkpt><trkpt lat="40.77461115708239" lon="17.42735763158163"><ele>356.66666666666663</ele><time>2026-03-30T13:58:36.998Z</time></trkpt><trkpt lat="40.774697389899714" lon="17.42724315313307"><ele>355.0</ele><time>2026-03-30T13:58:39.998Z</time></trkpt><trkpt lat="40.774750134964805" lon="17.42716887809204"><ele>356.66666666666663</ele><time>2026-03-30T13:58:40.998Z</time></trkpt><trkpt lat="40.77477455418075" lon="17.427089658145924"><ele>358.3333333333333</ele><time>2026-03-30T13:58:41.998Z</time></trkpt><trkpt lat="40.77483931284411" lon="17.42699693589053"><ele>360.0</ele><time>2026-03-30T13:58:43.998Z</time></trkpt><trkpt lat="40.77490006724442" lon="17.426927363774386"><ele>361.6666666666667</ele><time>2026-03-30T13:58:45.998Z</time></trkpt><trkpt lat="40.77499739264586" lon="17.42688238931841"><ele>363.33333333333337</ele><time>2026-03-30T13:58:47.998Z</time></trkpt><trkpt lat="40.77503091569047" lon="17.42678706794674"><ele>365.0</ele><time>2026-03-30T13:58:50.998Z</time></trkpt><trkpt lat="40.775132589648415" lon="17.42674256054712"><ele>363.75</ele><time>2026-03-30T13:58:52.998Z</time></trkpt><trkpt lat="40.77520582542899" lon="17.42663707085974"><ele>362.5</ele><time>2026-03-30T13:58:54.998Z</time></trkpt><trkpt lat="40.77524921168553" lon="17.42655599845033"><ele>361.25</ele><time>2026-03-30T13:58:55.998Z</time></trkpt><trkpt lat="40.77533424016983" lon="17.426557004223767"><ele>360.0</ele><time>2026-03-30T13:58:57.998Z</time></trkpt><trkpt lat="40.77541236715892" lon="17.426277248441068"><ele>360.0</ele><time>2026-03-30T13:59:04Z</time></trkpt><trkpt lat="40.77548402364258" lon="17.42621726472313"><ele>360.0</ele><time>2026-03-30T13:59:06Z</time></trkpt><trkpt lat="40.77552885961814" lon="17.426136999325664"><ele>360.0</ele><time>2026-03-30T13:59:08Z</time></trkpt><trkpt lat="40.77559065925028" lon="17.42606920786482"><ele>360.0</ele><time>2026-03-30T13:59:10Z</time></trkpt><trkpt lat="40.77562936687124" lon="17.425966261003957"><ele>360.0</ele><time>2026-03-30T13:59:12Z</time></trkpt><trkpt lat="40.775577847288744" lon="17.42591387274967"><ele>360.0</ele><time>2026-03-30T13:59:15Z</time></trkpt><trkpt lat="40.775552443317444" lon="17.42581988271021"><ele>360.0</ele><time>2026-03-30T13:59:17Z</time></trkpt><trkpt lat="40.775550590559725" lon="17.42572539159629"><ele>360.0</ele><time>2026-03-30T13:59:19Z</time></trkpt><trkpt lat="40.77564399245818" lon="17.4257410663593"><ele>360.0</ele><time>2026-03-30T13:59:22Z</time></trkpt><trkpt lat="40.775706584392616" lon="17.4257728720814"><ele>360.0</ele><time>2026-03-30T13:59:23Z</time></trkpt><trkpt lat="40.775844711670764" lon="17.42580897360345"><ele>360.0</ele><time>2026-03-30T13:59:27Z</time></trkpt><trkpt lat="40.77595565256717" lon="17.425861104505902"><ele>358.5</ele><time>2026-03-30T13:59:30Z</time></trkpt><trkpt lat="40.776030511726184" lon="17.42589497859448"><ele>357.0</ele><time>2026-03-30T13:59:32Z</time></trkpt><trkpt lat="40.77619148755075" lon="17.425865667938197"><ele>355.5</ele><time>2026-03-30T13:59:35.999Z</time></trkpt><trkpt lat="40.776328897378875" lon="17.426006115283805"><ele>354.0</ele><time>2026-03-30T13:59:39.999Z</time></trkpt><trkpt lat="40.77639404605396" lon="17.426112571049675"><ele>354.0</ele><time>2026-03-30T13:59:41.999Z</time></trkpt><trkpt lat="40.776475855565884" lon="17.42612789910998"><ele>354.0</ele><time>2026-03-30T13:59:43.999Z</time></trkpt><trkpt lat="40.77658180977882" lon="17.426114936429556"><ele>354.0</ele><time>2026-03-30T13:59:47.999Z</time></trkpt><trkpt lat="40.776638402408324" lon="17.42604178360835"><ele>354.0</ele><time>2026-03-30T13:59:49.999Z</time></trkpt><trkpt lat="40.776694604544204" lon="17.425956998902592"><ele>354.0</ele><time>2026-03-30T13:59:52.999Z</time></trkpt><trkpt lat="40.77671744862936" lon="17.42585525145806"><ele>354.0</ele><time>2026-03-30T13:59:54.999Z</time></trkpt><trkpt lat="40.776758688339" lon="17.42571861447053"><ele>354.0</ele><time>2026-03-30T13:59:57.999Z</time></trkpt><trkpt lat="40.77680341242733" lon="17.42561747658263"><ele>354.0</ele><time>2026-03-30T13:59:59.999Z</time></trkpt><trkpt lat="40.77687478026933" lon="17.425533813719166"><ele>354.0</ele><time>2026-03-30T14:00:03.999Z</time></trkpt><trkpt lat="40.776938634385" lon="17.425580784847426"><ele>354.0</ele><time>2026-03-30T14:00:05.999Z</time></trkpt><trkpt lat="40.77706390905939" lon="17.42561131435417"><ele>354.0</ele><time>2026-03-30T14:00:08.999Z</time></trkpt><trkpt lat="40.77720973924826" lon="17.425588524680244"><ele>354.0</ele><time>2026-03-30T14:00:11.999Z</time></trkpt><trkpt lat="40.777278178365265" lon="17.425516384129228"><ele>354.0</ele><time>2026-03-30T14:00:13.999Z</time></trkpt><trkpt lat="40.77735746225468" lon="17.42551437746796"><ele>354.0</ele><time>2026-03-30T14:00:16.999Z</time></trkpt><trkpt lat="40.77740217202393" lon="17.425424325335964"><ele>354.0</ele><time>2026-03-30T14:00:18.999Z</time></trkpt><trkpt lat="40.777476979201275" lon="17.425351285920456"><ele>354.0</ele><time>2026-03-30T14:00:20.999Z</time></trkpt><trkpt lat="40.77753970353125" lon="17.42531466786697"><ele>354.0</ele><time>2026-03-30T14:00:23.999Z</time></trkpt><trkpt lat="40.77772943840174" lon="17.425235424986997"><ele>354.0</ele><time>2026-03-30T14:00:33.999Z</time></trkpt><trkpt lat="40.777753145996115" lon="17.42515621075378"><ele>354.0</ele><time>2026-03-30T14:00:35.999Z</time></trkpt><trkpt lat="40.777748866521584" lon="17.4248818625307"><ele>354.0</ele><time>2026-03-30T14:00:41.998Z</time></trkpt><trkpt lat="40.77774416573086" lon="17.42479861289975"><ele>354.0</ele><time>2026-03-30T14:00:43.998Z</time></trkpt><trkpt lat="40.77769845655139" lon="17.424701210311348"><ele>354.0</ele><time>2026-03-30T14:00:47.998Z</time></trkpt><trkpt lat="40.77766660806657" lon="17.42459364111572"><ele>354.8333333333333</ele><time>2026-03-30T14:00:50.998Z</time></trkpt><trkpt lat="40.77757926072999" lon="17.424545752977885"><ele>355.6666666666667</ele><time>2026-03-30T14:00:53.998Z</time></trkpt><trkpt lat="40.777511667384765" lon="17.424531301499414"><ele>356.5</ele><time>2026-03-30T14:00:56.998Z</time></trkpt><trkpt lat="40.77744297543322" lon="17.424523341022773"><ele>357.33333333333337</ele><time>2026-03-30T14:00:59.998Z</time></trkpt><trkpt lat="40.77738516729992" lon="17.424441590453426"><ele>358.1666666666667</ele><time>2026-03-30T14:01:02.998Z</time></trkpt><trkpt lat="40.77741088709458" lon="17.42435624554948"><ele>359.0</ele><time>2026-03-30T14:01:11Z</time></trkpt><trkpt lat="40.777456891920075" lon="17.4242640730625"><ele>359.0</ele><time>2026-03-30T14:01:14Z</time></trkpt><trkpt lat="40.777487094399824" lon="17.424167289285897"><ele>359.0</ele><time>2026-03-30T14:01:16Z</time></trkpt><trkpt lat="40.777419771329086" lon="17.424055467053147"><ele>359.0</ele><time>2026-03-30T14:01:19Z</time></trkpt><trkpt lat="40.77741628749342" lon="17.42396331331153"><ele>359.0</ele><time>2026-03-30T14:01:22Z</time></trkpt><trkpt lat="40.77741066675509" lon="17.423850360047897"><ele>359.0</ele><time>2026-03-30T14:01:24Z</time></trkpt><trkpt lat="40.77738670182718" lon="17.423762834479845"><ele>359.0</ele><time>2026-03-30T14:01:26Z</time></trkpt><trkpt lat="40.77734852961502" lon="17.42369570418533"><ele>359.2</ele><time>2026-03-30T14:01:28Z</time></trkpt><trkpt lat="40.77725449993748" lon="17.42365955152997"><ele>359.4</ele><time>2026-03-30T14:01:31Z</time></trkpt><trkpt lat="40.77727605989516" lon="17.423537906066045"><ele>359.6</ele><time>2026-03-30T14:01:34Z</time></trkpt><trkpt lat="40.77736757716373" lon="17.42353387895037"><ele>359.8</ele><time>2026-03-30T14:01:37Z</time></trkpt><trkpt lat="40.77744958218805" lon="17.42348449217638"><ele>360.0</ele><time>2026-03-30T14:01:39Z</time></trkpt><trkpt lat="40.77752866127186" lon="17.423498693418132"><ele>360.0</ele><time>2026-03-30T14:01:43Z</time></trkpt><trkpt lat="40.777543913846436" lon="17.423397742737514"><ele>360.0</ele><time>2026-03-30T14:01:46Z</time></trkpt><trkpt lat="40.77753471837911" lon="17.423296878670396"><ele>360.0</ele><time>2026-03-30T14:01:48Z</time></trkpt><trkpt lat="40.77755726379014" lon="17.423200854726677"><ele>360.0</ele><time>2026-03-30T14:01:50.999Z</time></trkpt><trkpt lat="40.777566427446416" lon="17.423080723983915"><ele>360.0</ele><time>2026-03-30T14:01:53.999Z</time></trkpt><trkpt lat="40.777565700671936" lon="17.42296106330361"><ele>360.0</ele><time>2026-03-30T14:01:56.999Z</time></trkpt><trkpt lat="40.777565641088145" lon="17.422844518692106"><ele>360.0</ele><time>2026-03-30T14:01:58.999Z</time></trkpt><trkpt lat="40.77757127530109" lon="17.42275260091396"><ele>360.0</ele><time>2026-03-30T14:02:00.999Z</time></trkpt><trkpt lat="40.77756906264856" lon="17.422618027207545"><ele>360.0</ele><time>2026-03-30T14:02:03.999Z</time></trkpt><trkpt lat="40.777583869732304" lon="17.422504211499188"><ele>360.0</ele><time>2026-03-30T14:02:05.999Z</time></trkpt><trkpt lat="40.77760007551229" lon="17.422360971638355"><ele>360.0</ele><time>2026-03-30T14:02:07.999Z</time></trkpt><trkpt lat="40.77759565496389" lon="17.422273862005497"><ele>360.0</ele><time>2026-03-30T14:02:08.999Z</time></trkpt><trkpt lat="40.777594433538916" lon="17.42217427086522"><ele>359.6666666666667</ele><time>2026-03-30T14:02:09.999Z</time></trkpt><trkpt lat="40.7775916259395" lon="17.42206078563159"><ele>359.3333333333333</ele><time>2026-03-30T14:02:10.999Z</time></trkpt><trkpt lat="40.777591438642176" lon="17.42196457096311"><ele>359.0</ele><time>2026-03-30T14:02:11.999Z</time></trkpt><trkpt lat="40.77758612296348" lon="17.42181429875565"><ele>358.66666666666663</ele><time>2026-03-30T14:02:13.999Z</time></trkpt><trkpt lat="40.77759620492739" lon="17.42171000513108"><ele>358.3333333333333</ele><time>2026-03-30T14:02:15.999Z</time></trkpt><trkpt lat="40.777604725651635" lon="17.421590386248337"><ele>358.0</ele><time>2026-03-30T14:02:17.999Z</time></trkpt><trkpt lat="40.777630898688564" lon="17.42149908976987"><ele>358.0</ele><time>2026-03-30T14:02:19.999Z</time></trkpt><trkpt lat="40.77764781002921" lon="17.421378527267425"><ele>358.0</ele><time>2026-03-30T14:02:21.999Z</time></trkpt><trkpt lat="40.77767510090625" lon="17.42127958850478"><ele>358.0</ele><time>2026-03-30T14:02:23.999Z</time></trkpt><trkpt lat="40.77768820126334" lon="17.42116673683491"><ele>358.0</ele><time>2026-03-30T14:02:25.999Z</time></trkpt><trkpt lat="40.77771932835296" lon="17.421053444767065"><ele>358.0</ele><time>2026-03-30T14:02:27.999Z</time></trkpt><trkpt lat="40.77775876166988" lon="17.420925756302243"><ele>356.4</ele><time>2026-03-30T14:02:29.999Z</time></trkpt><trkpt lat="40.77781684838399" lon="17.420766066531773"><ele>354.79999999999995</ele><time>2026-03-30T14:02:31.999Z</time></trkpt><trkpt lat="40.77783765841711" lon="17.42068161053295"><ele>353.2</ele><time>2026-03-30T14:02:32.999Z</time></trkpt><trkpt lat="40.77786464971524" lon="17.42059858316533"><ele>351.6</ele><time>2026-03-30T14:02:33.999Z</time></trkpt><trkpt lat="40.777888211971906" lon="17.42044811176837"><ele>350.0</ele><time>2026-03-30T14:02:35.999Z</time></trkpt><trkpt lat="40.777927192049276" lon="17.4203323756271"><ele>350.0</ele><time>2026-03-30T14:02:37.999Z</time></trkpt><trkpt lat="40.777948356970086" lon="17.420253275863445"><ele>350.0</ele><time>2026-03-30T14:02:38.999Z</time></trkpt><trkpt lat="40.77796480835071" lon="17.42017113022286"><ele>350.0</ele><time>2026-03-30T14:02:39.999Z</time></trkpt><trkpt lat="40.778026379180545" lon="17.420036323379207"><ele>350.0</ele><time>2026-03-30T14:02:41.999Z</time></trkpt><trkpt lat="40.77807773862097" lon="17.41991720740412"><ele>350.0</ele><time>2026-03-30T14:02:43.999Z</time></trkpt><trkpt lat="40.77811289674496" lon="17.419784639352617"><ele>350.0</ele><time>2026-03-30T14:02:45.999Z</time></trkpt><trkpt lat="40.778175830447076" lon="17.419654355737464"><ele>350.0</ele><time>2026-03-30T14:02:47.999Z</time></trkpt><trkpt lat="40.778262244862404" lon="17.41951680865379"><ele>350.0</ele><time>2026-03-30T14:02:49.999Z</time></trkpt><trkpt lat="40.77829715113418" lon="17.419444934052777"><ele>350.0</ele><time>2026-03-30T14:02:50.999Z</time></trkpt><trkpt lat="40.77833158224071" lon="17.419372890200396"><ele>350.0</ele><time>2026-03-30T14:02:51.999Z</time></trkpt><trkpt lat="40.778366718055295" lon="17.419295612780196"><ele>351.0</ele><time>2026-03-30T14:02:52.999Z</time></trkpt><trkpt lat="40.77839657803834" lon="17.419220507909596"><ele>352.0</ele><time>2026-03-30T14:02:53.999Z</time></trkpt><trkpt lat="40.77845424247694" lon="17.419069180228888"><ele>353.0</ele><time>2026-03-30T14:02:55.998Z</time></trkpt><trkpt lat="40.778514396766965" lon="17.41894395059193"><ele>354.0</ele><time>2026-03-30T14:02:57.998Z</time></trkpt><trkpt lat="40.77855387830734" lon="17.418862463680107"><ele>355.0</ele><time>2026-03-30T14:02:58.998Z</time></trkpt><trkpt lat="40.77859149359591" lon="17.418726248640947"><ele>351.4</ele><time>2026-03-30T14:03:00.998Z</time></trkpt><trkpt lat="40.77860714434137" lon="17.418583918192876"><ele>347.8</ele><time>2026-03-30T14:03:02.998Z</time></trkpt><trkpt lat="40.77864596435581" lon="17.4184834133147"><ele>344.20000000000005</ele><time>2026-03-30T14:03:04.998Z</time></trkpt><trkpt lat="40.778669923661504" lon="17.418366943729637"><ele>340.6</ele><time>2026-03-30T14:03:06.998Z</time></trkpt><trkpt lat="40.77870234460568" lon="17.418265054120052"><ele>337.0</ele><time>2026-03-30T14:03:08.998Z</time></trkpt><trkpt lat="40.77873825611428" lon="17.418146554333617"><ele>337.0</ele><time>2026-03-30T14:03:10.998Z</time></trkpt><trkpt lat="40.77878512362705" lon="17.418034686884813"><ele>337.0</ele><time>2026-03-30T14:03:12.998Z</time></trkpt><trkpt lat="40.77883185664523" lon="17.41793623877828"><ele>337.0</ele><time>2026-03-30T14:03:15Z</time></trkpt><trkpt lat="40.7788904489716" lon="17.417839975905395"><ele>337.0</ele><time>2026-03-30T14:03:17Z</time></trkpt><trkpt lat="40.77893895911481" lon="17.417757123922634"><ele>337.0</ele><time>2026-03-30T14:03:19Z</time></trkpt><trkpt lat="40.77898892618694" lon="17.41766219632395"><ele>337.0</ele><time>2026-03-30T14:03:21Z</time></trkpt><trkpt lat="40.77905629260397" lon="17.417596996684985"><ele>336.8333333333333</ele><time>2026-03-30T14:03:23Z</time></trkpt><trkpt lat="40.779109543634746" lon="17.41753312158547"><ele>336.66666666666663</ele><time>2026-03-30T14:03:25Z</time></trkpt><trkpt lat="40.77916980190688" lon="17.41742938521313"><ele>336.5</ele><time>2026-03-30T14:03:27Z</time></trkpt><trkpt lat="40.77924659800808" lon="17.41734552843132"><ele>336.3333333333333</ele><time>2026-03-30T14:03:29Z</time></trkpt><trkpt lat="40.77932611496227" lon="17.417290511946543"><ele>336.1666666666667</ele><time>2026-03-30T14:03:31Z</time></trkpt><trkpt lat="40.77939372573555" lon="17.417217081265893"><ele>336.0</ele><time>2026-03-30T14:03:33Z</time></trkpt><trkpt lat="40.779494618513645" lon="17.417146937044308"><ele>340.8</ele><time>2026-03-30T14:03:35Z</time></trkpt><trkpt lat="40.77961267363581" lon="17.41706709726257"><ele>345.6</ele><time>2026-03-30T14:03:37Z</time></trkpt><trkpt lat="40.779669383698234" lon="17.417020543139877"><ele>350.4</ele><time>2026-03-30T14:03:38Z</time></trkpt><trkpt lat="40.779769183774306" lon="17.41695315774269"><ele>355.2</ele><time>2026-03-30T14:03:40Z</time></trkpt><trkpt lat="40.77985412641819" lon="17.41688833988194"><ele>360.0</ele><time>2026-03-30T14:03:42Z</time></trkpt><trkpt lat="40.7799346715592" lon="17.416828524103565"><ele>360.0</ele><time>2026-03-30T14:03:44Z</time></trkpt><trkpt lat="40.780005650479865" lon="17.416746373336764"><ele>360.0</ele><time>2026-03-30T14:03:46Z</time></trkpt><trkpt lat="40.78006357855724" lon="17.416674350137008"><ele>360.0</ele><time>2026-03-30T14:03:48Z</time></trkpt><trkpt lat="40.78012409015875" lon="17.416623958884326"><ele>360.0</ele><time>2026-03-30T14:03:50Z</time></trkpt><trkpt lat="40.780180779169854" lon="17.416580764814462"><ele>360.0</ele><time>2026-03-30T14:03:52Z</time></trkpt><trkpt lat="40.7802437063967" lon="17.416493098271577"><ele>360.0</ele><time>2026-03-30T14:03:55Z</time></trkpt><trkpt lat="40.78030304912491" lon="17.416440783658334"><ele>361.1428571428571</ele><time>2026-03-30T14:04:08.999Z</time></trkpt><trkpt lat="40.78034617407038" lon="17.416372761558176"><ele>362.28571428571433</ele><time>2026-03-30T14:04:19.999Z</time></trkpt><trkpt lat="40.78041186673232" lon="17.416337894594317"><ele>363.42857142857144</ele><time>2026-03-30T14:04:27.999Z</time></trkpt><trkpt lat="40.7804821369995" lon="17.41634358275237"><ele>364.57142857142856</ele><time>2026-03-30T14:04:42.999Z</time></trkpt><trkpt lat="40.78056654170035" lon="17.416311331997615"><ele>365.71428571428567</ele><time>2026-03-30T14:04:45.999Z</time></trkpt><trkpt lat="40.780623396945685" lon="17.41626407748486"><ele>366.8571428571429</ele><time>2026-03-30T14:04:48.999Z</time></trkpt><trkpt lat="40.780685810309215" lon="17.416232724102287"><ele>368.0</ele><time>2026-03-30T14:04:57.999Z</time></trkpt><trkpt lat="40.78073657824024" lon="17.416175927456035"><ele>368.0</ele><time>2026-03-30T14:05:23Z</time></trkpt><trkpt lat="40.78080334221756" lon="17.41613889711451"><ele>368.0</ele><time>2026-03-30T14:05:28Z</time></trkpt><trkpt lat="40.7808653712155" lon="17.416110283372333"><ele>368.0</ele><time>2026-03-30T14:05:41Z</time></trkpt><trkpt lat="40.78093937442018" lon="17.416076462595072"><ele>368.0</ele><time>2026-03-30T14:05:51Z</time></trkpt><trkpt lat="40.781004550904136" lon="17.416031466043997"><ele>368.0</ele><time>2026-03-30T14:05:58Z</time></trkpt><trkpt lat="40.781085008794435" lon="17.415993327862996"><ele>368.0</ele><time>2026-03-30T14:06:02Z</time></trkpt><trkpt lat="40.781138051409776" lon="17.415921481821577"><ele>368.5</ele><time>2026-03-30T14:06:05Z</time></trkpt><trkpt lat="40.781171234912335" lon="17.415845097114275"><ele>369.0</ele><time>2026-03-30T14:06:08Z</time></trkpt><trkpt lat="40.78122903601197" lon="17.415802159081565"><ele>369.5</ele><time>2026-03-30T14:06:11.999Z</time></trkpt><trkpt lat="40.78128516689693" lon="17.415712730517953"><ele>370.0</ele><time>2026-03-30T14:06:16.999Z</time></trkpt><trkpt lat="40.78134127584895" lon="17.41562528881454"><ele>370.5</ele><time>2026-03-30T14:06:19.999Z</time></trkpt><trkpt lat="40.78138755958674" lon="17.41555846454835"><ele>371.0</ele><time>2026-03-30T14:06:22.999Z</time></trkpt><trkpt lat="40.7814329786733" lon="17.41547220545521"><ele>371.0</ele><time>2026-03-30T14:06:27.999Z</time></trkpt><trkpt lat="40.78148905983196" lon="17.415401426865685"><ele>371.0</ele><time>2026-03-30T14:06:32.999Z</time></trkpt><trkpt lat="40.781548673122856" lon="17.41530099721831"><ele>371.0</ele><time>2026-03-30T14:06:35.999Z</time></trkpt><trkpt lat="40.78160536422075" lon="17.415220814679056"><ele>371.0</ele><time>2026-03-30T14:06:38.999Z</time></trkpt><trkpt lat="40.78165319749713" lon="17.415134779171385"><ele>371.0</ele><time>2026-03-30T14:06:42.999Z</time></trkpt><trkpt lat="40.78171828383335" lon="17.4150896662841"><ele>371.0</ele><time>2026-03-30T14:06:45.999Z</time></trkpt><trkpt lat="40.78173885775389" lon="17.414963825734585"><ele>371.0</ele><time>2026-03-30T14:06:48.999Z</time></trkpt><trkpt lat="40.78174368805077" lon="17.414872420027322"><ele>371.0</ele><time>2026-03-30T14:06:51.999Z</time></trkpt><trkpt lat="40.78180650389558" lon="17.41480946597479"><ele>371.0</ele><time>2026-03-30T14:06:54.999Z</time></trkpt><trkpt lat="40.78186901854778" lon="17.414786942123246"><ele>371.0</ele><time>2026-03-30T14:06:56.999Z</time></trkpt><trkpt lat="40.78189351958177" lon="17.41468774280246"><ele>371.0</ele><time>2026-03-30T14:06:59.999Z</time></trkpt><trkpt lat="40.781969623347685" lon="17.414643342546608"><ele>371.0</ele><time>2026-03-30T14:07:03.999Z</time></trkpt><trkpt lat="40.782043766304135" lon="17.414582280393468"><ele>370.5</ele><time>2026-03-30T14:07:06.999Z</time></trkpt><trkpt lat="40.78210456844101" lon="17.414531776215085"><ele>370.0</ele><time>2026-03-30T14:07:10.999Z</time></trkpt><trkpt lat="40.782186210290575" lon="17.41446865319539"><ele>369.5</ele><time>2026-03-30T14:07:15.998Z</time></trkpt><trkpt lat="40.78227092742176" lon="17.41442303205855"><ele>369.0</ele><time>2026-03-30T14:07:18.998Z</time></trkpt><trkpt lat="40.78230701742251" lon="17.414317666476556"><ele>368.5</ele><time>2026-03-30T14:07:21.998Z</time></trkpt><trkpt lat="40.78234030063475" lon="17.414238513324378"><ele>368.0</ele><time>2026-03-30T14:07:25.998Z</time></trkpt><trkpt lat="40.78239634923386" lon="17.414181134118873"><ele>368.0</ele><time>2026-03-30T14:08:50.999Z</time></trkpt><trkpt lat="40.78233513500868" lon="17.414158463410576"><ele>368.0</ele><time>2026-03-30T14:09:28.998Z</time></trkpt><trkpt lat="40.78239672119882" lon="17.414125982905073"><ele>368.0</ele><time>2026-03-30T14:10:17Z</time></trkpt><trkpt lat="40.782441341303695" lon="17.41406138116325"><ele>368.0</ele><time>2026-03-30T14:10:19.999Z</time></trkpt><trkpt lat="40.78249400652351" lon="17.41399844891325"><ele>368.0</ele><time>2026-03-30T14:10:22.999Z</time></trkpt><trkpt lat="40.78253158278847" lon="17.413926003200164"><ele>368.0</ele><time>2026-03-30T14:10:24.999Z</time></trkpt><trkpt lat="40.782545915788305" lon="17.413829450916126"><ele>368.0</ele><time>2026-03-30T14:10:27.999Z</time></trkpt><trkpt lat="40.78255910049251" lon="17.41373800962871"><ele>369.33333333333337</ele><time>2026-03-30T14:10:30.999Z</time></trkpt><trkpt lat="40.78260841181502" lon="17.41366525917539"><ele>370.6666666666667</ele><time>2026-03-30T14:10:33.999Z</time></trkpt><trkpt lat="40.78267895518709" lon="17.41360798390689"><ele>372.0</ele><time>2026-03-30T14:10:35.999Z</time></trkpt><trkpt lat="40.78273571720087" lon="17.41355805692634"><ele>373.3333333333333</ele><time>2026-03-30T14:10:38.999Z</time></trkpt><trkpt lat="40.78277740656127" lon="17.41345753963948"><ele>374.66666666666663</ele><time>2026-03-30T14:10:41.999Z</time></trkpt><trkpt lat="40.78282995191068" lon="17.413367917299123"><ele>376.0</ele><time>2026-03-30T14:10:44.999Z</time></trkpt><trkpt lat="40.78287568696043" lon="17.413265144133515"><ele>374.0</ele><time>2026-03-30T14:10:47.999Z</time></trkpt><trkpt lat="40.78292816871663" lon="17.413140011679676"><ele>372.0</ele><time>2026-03-30T14:10:49.999Z</time></trkpt><trkpt lat="40.782962682528634" lon="17.413032087389688"><ele>370.0</ele><time>2026-03-30T14:10:51.999Z</time></trkpt><trkpt lat="40.78299402759899" lon="17.41293663737701"><ele>368.0</ele><time>2026-03-30T14:10:53.999Z</time></trkpt><trkpt lat="40.783032033737854" lon="17.412844923853537"><ele>366.0</ele><time>2026-03-30T14:10:55.999Z</time></trkpt><trkpt lat="40.783044353513645" lon="17.412746967025583"><ele>364.0</ele><time>2026-03-30T14:10:57.999Z</time></trkpt><trkpt lat="40.78305353344948" lon="17.412655966010448"><ele>364.0</ele><time>2026-03-30T14:10:59.999Z</time></trkpt><trkpt lat="40.78305990435421" lon="17.412542752550014"><ele>364.0</ele><time>2026-03-30T14:11:01.999Z</time></trkpt><trkpt lat="40.78306372023688" lon="17.412444149052167"><ele>364.0</ele><time>2026-03-30T14:11:03.999Z</time></trkpt><trkpt lat="40.783068996981484" lon="17.412352052650473"><ele>364.0</ele><time>2026-03-30T14:11:05.999Z</time></trkpt><trkpt lat="40.783080915795075" lon="17.412261415222034"><ele>364.0</ele><time>2026-03-30T14:11:07.999Z</time></trkpt><trkpt lat="40.783100626069185" lon="17.41216680032615"><ele>364.0</ele><time>2026-03-30T14:11:09.999Z</time></trkpt><trkpt lat="40.783131461774936" lon="17.412077780063903"><ele>364.0</ele><time>2026-03-30T14:11:11.999Z</time></trkpt><trkpt lat="40.78316213543171" lon="17.411965798364058"><ele>365.0</ele><time>2026-03-30T14:11:14.999Z</time></trkpt><trkpt lat="40.78317924826299" lon="17.411876262626556"><ele>366.0</ele><time>2026-03-30T14:11:16.998Z</time></trkpt><trkpt lat="40.7832194264118" lon="17.411775490173458"><ele>367.0</ele><time>2026-03-30T14:11:19.998Z</time></trkpt><trkpt lat="40.783249689288304" lon="17.41166560423128"><ele>368.0</ele><time>2026-03-30T14:11:22.998Z</time></trkpt><trkpt lat="40.78328425891917" lon="17.411586220467914"><ele>369.0</ele><time>2026-03-30T14:11:24.998Z</time></trkpt><trkpt lat="40.78330300049518" lon="17.411504653660028"><ele>370.0</ele><time>2026-03-30T14:11:27.998Z</time></trkpt><trkpt lat="40.783304430262596" lon="17.411406341593946"><ele>370.57142857142856</ele><time>2026-03-30T14:11:30.998Z</time></trkpt><trkpt lat="40.7833244309096" lon="17.411322709086217"><ele>371.1428571428571</ele><time>2026-03-30T14:11:34.998Z</time></trkpt><trkpt lat="40.783283606387" lon="17.411243663261995"><ele>371.71428571428567</ele><time>2026-03-30T14:11:39Z</time></trkpt><trkpt lat="40.78330449463187" lon="17.411142410464695"><ele>372.2857142857143</ele><time>2026-03-30T14:11:43Z</time></trkpt><trkpt lat="40.783331842403804" lon="17.41106418904369"><ele>372.8571428571429</ele><time>2026-03-30T14:11:46Z</time></trkpt><trkpt lat="40.7834050374888" lon="17.411000427857335"><ele>373.4285714285714</ele><time>2026-03-30T14:11:49Z</time></trkpt><trkpt lat="40.783427697927515" lon="17.41091550841539"><ele>374.0</ele><time>2026-03-30T14:11:53Z</time></trkpt><trkpt lat="40.78344767543129" lon="17.410815473595957"><ele>374.0</ele><time>2026-03-30T14:11:56Z</time></trkpt><trkpt lat="40.78342483990492" lon="17.410735704735835"><ele>374.0</ele><time>2026-03-30T14:11:59Z</time></trkpt><trkpt lat="40.78342144741215" lon="17.41064388758632"><ele>374.0</ele><time>2026-03-30T14:12:02Z</time></trkpt><trkpt lat="40.783484670237975" lon="17.4105866673453"><ele>374.0</ele><time>2026-03-30T14:12:07Z</time></trkpt><trkpt lat="40.783505710320796" lon="17.410489529613198"><ele>374.0</ele><time>2026-03-30T14:12:11Z</time></trkpt><trkpt lat="40.783552059820046" lon="17.41042073790851"><ele>374.0</ele><time>2026-03-30T14:12:17Z</time></trkpt><trkpt lat="40.78353799184473" lon="17.41028068122895"><ele>373.6666666666667</ele><time>2026-03-30T14:12:21.999Z</time></trkpt><trkpt lat="40.783512399737475" lon="17.410165566604267"><ele>373.33333333333337</ele><time>2026-03-30T14:12:24.999Z</time></trkpt><trkpt lat="40.78352906797667" lon="17.410072118419837"><ele>373.0</ele><time>2026-03-30T14:12:28.999Z</time></trkpt><trkpt lat="40.78349758091925" lon="17.4099968506617"><ele>372.6666666666667</ele><time>2026-03-30T14:12:31.999Z</time></trkpt><trkpt lat="40.78341633757505" lon="17.40995673340187"><ele>372.3333333333333</ele><time>2026-03-30T14:12:34.999Z</time></trkpt><trkpt lat="40.78335749314916" lon="17.409916364323585"><ele>372.0</ele><time>2026-03-30T14:12:35.999Z</time></trkpt><trkpt lat="40.78328810957513" lon="17.40983427714106"><ele>372.0</ele><time>2026-03-30T14:12:37.999Z</time></trkpt><trkpt lat="40.78320783496102" lon="17.40977117211339"><ele>372.0</ele><time>2026-03-30T14:12:39.999Z</time></trkpt><trkpt lat="40.783139564683346" lon="17.409706148053495"><ele>372.0</ele><time>2026-03-30T14:12:41.999Z</time></trkpt><trkpt lat="40.78305215846312" lon="17.40960854246033"><ele>372.0</ele><time>2026-03-30T14:12:43.999Z</time></trkpt><trkpt lat="40.78297028546215" lon="17.40955062622797"><ele>372.0</ele><time>2026-03-30T14:12:45.999Z</time></trkpt><trkpt lat="40.78289360222377" lon="17.409513228098913"><ele>370.6666666666667</ele><time>2026-03-30T14:12:47.999Z</time></trkpt><trkpt lat="40.782838061712255" lon="17.409446874223285"><ele>369.3333333333333</ele><time>2026-03-30T14:12:49.999Z</time></trkpt><trkpt lat="40.782766478839626" lon="17.40938547556255"><ele>368.0</ele><time>2026-03-30T14:12:51.999Z</time></trkpt><trkpt lat="40.782694403013544" lon="17.409299060291836"><ele>366.66666666666663</ele><time>2026-03-30T14:12:53.999Z</time></trkpt><trkpt lat="40.78262470149209" lon="17.409203872291553"><ele>365.3333333333333</ele><time>2026-03-30T14:12:55.999Z</time></trkpt><trkpt lat="40.78256190488862" lon="17.409166296728984"><ele>364.0</ele><time>2026-03-30T14:12:57.999Z</time></trkpt><trkpt lat="40.782482514362385" lon="17.40915691529364"><ele>364.0</ele><time>2026-03-30T14:12:59.999Z</time></trkpt><trkpt lat="40.78241895712973" lon="17.40918225323884"><ele>364.0</ele><time>2026-03-30T14:13:01.999Z</time></trkpt><trkpt lat="40.782330444709494" lon="17.409195688364754"><ele>364.0</ele><time>2026-03-30T14:13:04.999Z</time></trkpt><trkpt lat="40.7822391271728" lon="17.409228062273357"><ele>364.0</ele><time>2026-03-30T14:13:06.999Z</time></trkpt><trkpt lat="40.782159919051615" lon="17.40928867697596"><ele>364.0</ele><time>2026-03-30T14:13:08.999Z</time></trkpt><trkpt lat="40.78213459356483" lon="17.409388625467315"><ele>364.0</ele><time>2026-03-30T14:13:11.999Z</time></trkpt><trkpt lat="40.7821630035738" lon="17.409464442410457"><ele>364.0</ele><time>2026-03-30T14:13:13.998Z</time></trkpt><trkpt lat="40.78216404045057" lon="17.409575349041237"><ele>364.0</ele><time>2026-03-30T14:13:16.998Z</time></trkpt><trkpt lat="40.78211456375583" lon="17.40962907465627"><ele>364.0</ele><time>2026-03-30T14:13:18.998Z</time></trkpt><trkpt lat="40.782059921268875" lon="17.409705451926243"><ele>364.0</ele><time>2026-03-30T14:13:20.998Z</time></trkpt><trkpt lat="40.782017238987635" lon="17.409802816014373"><ele>364.0</ele><time>2026-03-30T14:13:22.998Z</time></trkpt><trkpt lat="40.78199029399876" lon="17.409898417491515"><ele>364.0</ele><time>2026-03-30T14:13:24.998Z</time></trkpt><trkpt lat="40.78200878229743" lon="17.409984523303525"><ele>365.3333333333333</ele><time>2026-03-30T14:13:26.998Z</time></trkpt><trkpt lat="40.7820536631752" lon="17.410059441202907"><ele>366.66666666666663</ele><time>2026-03-30T14:13:28.998Z</time></trkpt><trkpt lat="40.78210419276291" lon="17.41015716760693"><ele>368.0</ele><time>2026-03-30T14:13:31.998Z</time></trkpt><trkpt lat="40.78211431628148" lon="17.41023927184962"><ele>369.3333333333333</ele><time>2026-03-30T14:13:33.998Z</time></trkpt><trkpt lat="40.78216994511745" lon="17.410335685815753"><ele>370.6666666666667</ele><time>2026-03-30T14:13:36.998Z</time></trkpt><trkpt lat="40.78218392533757" lon="17.41043098596336"><ele>372.0</ele><time>2026-03-30T14:13:38.998Z</time></trkpt><trkpt lat="40.78220634544895" lon="17.410531704847447"><ele>372.5</ele><time>2026-03-30T14:13:41.998Z</time></trkpt><trkpt lat="40.78225303953138" lon="17.41061115312582"><ele>373.0</ele><time>2026-03-30T14:13:45Z</time></trkpt><trkpt lat="40.7822685039384" lon="17.410710252833386"><ele>373.5</ele><time>2026-03-30T14:13:48Z</time></trkpt><trkpt lat="40.78220933369315" lon="17.41078713173351"><ele>374.0</ele><time>2026-03-30T14:14:08Z</time></trkpt><trkpt lat="40.78217837772059" lon="17.410864909731092"><ele>374.5</ele><time>2026-03-30T14:14:11Z</time></trkpt><trkpt lat="40.78214579224499" lon="17.41097590142612"><ele>375.0</ele><time>2026-03-30T14:14:15Z</time></trkpt><trkpt lat="40.782168943413254" lon="17.411078145653647"><ele>375.0</ele><time>2026-03-30T14:14:17Z</time></trkpt><trkpt lat="40.78214824519842" lon="17.411165895576435"><ele>375.0</ele><time>2026-03-30T14:14:19Z</time></trkpt><trkpt lat="40.78206668772388" lon="17.411181160872243"><ele>375.0</ele><time>2026-03-30T14:14:22Z</time></trkpt><trkpt lat="40.78201928975525" lon="17.41110098915984"><ele>375.0</ele><time>2026-03-30T14:14:24Z</time></trkpt><trkpt lat="40.78194893978812" lon="17.411002562377938"><ele>375.0</ele><time>2026-03-30T14:14:26Z</time></trkpt><trkpt lat="40.78186392771367" lon="17.410943360265765"><ele>375.0</ele><time>2026-03-30T14:14:28.999Z</time></trkpt><trkpt lat="40.78183686899464" lon="17.410847203419518"><ele>375.0</ele><time>2026-03-30T14:14:31.999Z</time></trkpt><trkpt lat="40.781854129976345" lon="17.41071818573031"><ele>375.0</ele><time>2026-03-30T14:14:34.999Z</time></trkpt><trkpt lat="40.78183328484404" lon="17.410625466458377"><ele>375.0</ele><time>2026-03-30T14:14:36.999Z</time></trkpt><trkpt lat="40.78179086218502" lon="17.410559572182546"><ele>375.0</ele><time>2026-03-30T14:14:38.999Z</time></trkpt><trkpt lat="40.78171881806886" lon="17.41051925092616"><ele>375.0</ele><time>2026-03-30T14:14:40.999Z</time></trkpt><trkpt lat="40.781641755476656" lon="17.410443215271734"><ele>375.0</ele><time>2026-03-30T14:14:42.999Z</time></trkpt><trkpt lat="40.781579624852654" lon="17.410341114005526"><ele>373.3333333333333</ele><time>2026-03-30T14:14:44.999Z</time></trkpt><trkpt lat="40.781495153498696" lon="17.41027766406841"><ele>371.6666666666667</ele><time>2026-03-30T14:14:46.999Z</time></trkpt><trkpt lat="40.78143471132698" lon="17.4102360916605"><ele>370.0</ele><time>2026-03-30T14:14:48.999Z</time></trkpt><trkpt lat="40.781373564770846" lon="17.410158585309944"><ele>368.33333333333337</ele><time>2026-03-30T14:14:51.999Z</time></trkpt><trkpt lat="40.781370662370946" lon="17.41006559611089"><ele>366.6666666666667</ele><time>2026-03-30T14:14:55.999Z</time></trkpt><trkpt lat="40.78130001608595" lon="17.4099738021035"><ele>365.0</ele><time>2026-03-30T14:16:05Z</time></trkpt><trkpt lat="40.78121607708445" lon="17.40992512590293"><ele>365.0</ele><time>2026-03-30T14:16:07Z</time></trkpt><trkpt lat="40.781120455040856" lon="17.40990824573084"><ele>365.0</ele><time>2026-03-30T14:16:09Z</time></trkpt><trkpt lat="40.781047465253145" lon="17.409830595809634"><ele>365.0</ele><time>2026-03-30T14:16:11Z</time></trkpt><trkpt lat="40.78100690384546" lon="17.40971212967781"><ele>365.0</ele><time>2026-03-30T14:16:13Z</time></trkpt><trkpt lat="40.78091716315986" lon="17.409642021516706"><ele>365.0</ele><time>2026-03-30T14:16:15Z</time></trkpt><trkpt lat="40.7808534661092" lon="17.409595301012484"><ele>362.1666666666667</ele><time>2026-03-30T14:16:16Z</time></trkpt><trkpt lat="40.7808019069027" lon="17.409541345890005"><ele>359.33333333333337</ele><time>2026-03-30T14:16:17Z</time></trkpt><trkpt lat="40.7807486000876" lon="17.40947234640136"><ele>356.5</ele><time>2026-03-30T14:16:19Z</time></trkpt><trkpt lat="40.780677799301266" lon="17.40947502287732"><ele>353.6666666666667</ele><time>2026-03-30T14:16:21Z</time></trkpt><trkpt lat="40.78059751275129" lon="17.409488694359027"><ele>350.8333333333333</ele><time>2026-03-30T14:16:23Z</time></trkpt><trkpt lat="40.78050629880303" lon="17.409481658085483"><ele>348.0</ele><time>2026-03-30T14:16:25Z</time></trkpt><trkpt lat="40.78042754586409" lon="17.409557808203356"><ele>348.0</ele><time>2026-03-30T14:16:27Z</time></trkpt><trkpt lat="40.78035426768959" lon="17.40962914794556"><ele>348.0</ele><time>2026-03-30T14:16:29Z</time></trkpt><trkpt lat="40.78027264052794" lon="17.409700747581926"><ele>348.0</ele><time>2026-03-30T14:16:30.999Z</time></trkpt><trkpt lat="40.780220367194204" lon="17.40964194168396"><ele>348.0</ele><time>2026-03-30T14:16:32.999Z</time></trkpt><trkpt lat="40.78022842639043" lon="17.40955873958195"><ele>348.0</ele><time>2026-03-30T14:16:35.999Z</time></trkpt><trkpt lat="40.78025503623403" lon="17.40947987473377"><ele>348.0</ele><time>2026-03-30T14:16:38.999Z</time></trkpt><trkpt lat="40.78025068974507" lon="17.40936839561564"><ele>348.0</ele><time>2026-03-30T14:16:41.999Z</time></trkpt><trkpt lat="40.780233644864175" lon="17.409263253225568"><ele>348.0</ele><time>2026-03-30T14:16:43.999Z</time></trkpt><trkpt lat="40.78020369901003" lon="17.40916526821867"><ele>348.0</ele><time>2026-03-30T14:16:45.999Z</time></trkpt><trkpt lat="40.7801900749607" lon="17.409055270513004"><ele>348.0</ele><time>2026-03-30T14:16:47.999Z</time></trkpt><trkpt lat="40.78016886138289" lon="17.408957793293773"><ele>348.0</ele><time>2026-03-30T14:16:49.999Z</time></trkpt><trkpt lat="40.780167976270306" lon="17.40882118273918"><ele>348.0</ele><time>2026-03-30T14:16:52.999Z</time></trkpt><trkpt lat="40.780173406997434" lon="17.40872139502762"><ele>350.0</ele><time>2026-03-30T14:16:54.999Z</time></trkpt><trkpt lat="40.78015304509828" lon="17.408629311961697"><ele>352.0</ele><time>2026-03-30T14:16:56.999Z</time></trkpt><trkpt lat="40.7801226651393" lon="17.408531036634894"><ele>354.0</ele><time>2026-03-30T14:16:58.999Z</time></trkpt><trkpt lat="40.780085871799514" lon="17.408427416011325"><ele>356.0</ele><time>2026-03-30T14:17:00.999Z</time></trkpt><trkpt lat="40.78004201117384" lon="17.40832431203168"><ele>358.0</ele><time>2026-03-30T14:17:02.999Z</time></trkpt><trkpt lat="40.78000716924275" lon="17.408219242655463"><ele>360.0</ele><time>2026-03-30T14:17:04.999Z</time></trkpt><trkpt lat="40.77996394842626" lon="17.40811455797076"><ele>360.0</ele><time>2026-03-30T14:17:06.999Z</time></trkpt><trkpt lat="40.77992972406719" lon="17.407989992825723"><ele>360.0</ele><time>2026-03-30T14:17:08.999Z</time></trkpt><trkpt lat="40.77993878204353" lon="17.40790080199313"><ele>360.0</ele><time>2026-03-30T14:17:10.999Z</time></trkpt><trkpt lat="40.77992468853657" lon="17.40779024453676"><ele>360.0</ele><time>2026-03-30T14:17:12.999Z</time></trkpt><trkpt lat="40.77991573668742" lon="17.407669885634814"><ele>360.0</ele><time>2026-03-30T14:17:14.999Z</time></trkpt><trkpt lat="40.779921763517045" lon="17.40754441098041"><ele>360.0</ele><time>2026-03-30T14:17:16.999Z</time></trkpt><trkpt lat="40.7799764533703" lon="17.407406960073374"><ele>360.0</ele><time>2026-03-30T14:17:18.999Z</time></trkpt><trkpt lat="40.78002939365019" lon="17.407283304225746"><ele>360.0</ele><time>2026-03-30T14:17:20.999Z</time></trkpt><trkpt lat="40.78002237072343" lon="17.407191768741583"><ele>360.0</ele><time>2026-03-30T14:17:22.999Z</time></trkpt><trkpt lat="40.779973432994716" lon="17.4070876897708"><ele>360.0</ele><time>2026-03-30T14:17:24.999Z</time></trkpt><trkpt lat="40.779900465894514" lon="17.407010612483383"><ele>360.0</ele><time>2026-03-30T14:17:26.998Z</time></trkpt><trkpt lat="40.779830117196255" lon="17.406888342739197"><ele>359.6666666666667</ele><time>2026-03-30T14:17:28.998Z</time></trkpt><trkpt lat="40.77976860017138" lon="17.406784951038688"><ele>359.3333333333333</ele><time>2026-03-30T14:17:30.998Z</time></trkpt><trkpt lat="40.7797073925771" lon="17.40672534306421"><ele>359.0</ele><time>2026-03-30T14:17:32.998Z</time></trkpt><trkpt lat="40.77966198657746" lon="17.406653719079316"><ele>358.66666666666663</ele><time>2026-03-30T14:17:34.998Z</time></trkpt><trkpt lat="40.7795728959323" lon="17.406681775383724"><ele>358.3333333333333</ele><time>2026-03-30T14:17:37.998Z</time></trkpt><trkpt lat="40.77950491257943" lon="17.406710614001195"><ele>358.0</ele><time>2026-03-30T14:17:39.998Z</time></trkpt><trkpt lat="40.7794780933872" lon="17.40659149092625"><ele>358.0</ele><time>2026-03-30T14:17:42.998Z</time></trkpt><trkpt lat="40.77953041615059" lon="17.40653005374296"><ele>358.0</ele><time>2026-03-30T14:17:45.998Z</time></trkpt><trkpt lat="40.77960372438206" lon="17.406441646699406"><ele>358.0</ele><time>2026-03-30T14:17:48.998Z</time></trkpt><trkpt lat="40.77967207899826" lon="17.406384349565123"><ele>358.0</ele><time>2026-03-30T14:17:50.998Z</time></trkpt><trkpt lat="40.779730448292185" lon="17.406273920170687"><ele>358.0</ele><time>2026-03-30T14:17:52.998Z</time></trkpt><trkpt lat="40.77979100707458" lon="17.406215326931374"><ele>358.0</ele><time>2026-03-30T14:17:54.998Z</time></trkpt><trkpt lat="40.77986927250412" lon="17.406171092936994"><ele>358.5</ele><time>2026-03-30T14:17:57Z</time></trkpt><trkpt lat="40.77993607442221" lon="17.4060559643897"><ele>359.0</ele><time>2026-03-30T14:17:59Z</time></trkpt><trkpt lat="40.77999548687693" lon="17.405905269556182"><ele>359.5</ele><time>2026-03-30T14:18:01Z</time></trkpt><trkpt lat="40.78006321846407" lon="17.405795054249282"><ele>360.0</ele><time>2026-03-30T14:18:03Z</time></trkpt><trkpt lat="40.78014966357813" lon="17.40568178770008"><ele>359.6</ele><time>2026-03-30T14:18:05Z</time></trkpt><trkpt lat="40.7802329362004" lon="17.40560216851306"><ele>359.2</ele><time>2026-03-30T14:18:07Z</time></trkpt><trkpt lat="40.78025668258627" lon="17.405519613746964"><ele>358.79999999999995</ele><time>2026-03-30T14:18:08Z</time></trkpt><trkpt lat="40.78032061201525" lon="17.405411191653005"><ele>358.4</ele><time>2026-03-30T14:18:10Z</time></trkpt><trkpt lat="40.78041421796678" lon="17.405323643876123"><ele>358.0</ele><time>2026-03-30T14:18:12Z</time></trkpt><trkpt lat="40.78049192224353" lon="17.405192420508783"><ele>358.79999999999995</ele><time>2026-03-30T14:18:14Z</time></trkpt><trkpt lat="40.78058335398735" lon="17.40511200935408"><ele>359.6</ele><time>2026-03-30T14:18:16Z</time></trkpt><trkpt lat="40.78065339767216" lon="17.405018733155018"><ele>360.4</ele><time>2026-03-30T14:18:18Z</time></trkpt><trkpt lat="40.7807395869225" lon="17.404925049727606"><ele>361.20000000000005</ele><time>2026-03-30T14:18:20Z</time></trkpt><trkpt lat="40.78079340154412" lon="17.404836790472476"><ele>362.0</ele><time>2026-03-30T14:18:22Z</time></trkpt><trkpt lat="40.78086157732203" lon="17.40471505539778"><ele>362.20000000000005</ele><time>2026-03-30T14:18:24Z</time></trkpt><trkpt lat="40.78096083085181" lon="17.40465753987366"><ele>362.4</ele><time>2026-03-30T14:18:27Z</time></trkpt><trkpt lat="40.78092892358131" lon="17.404462639512722"><ele>362.6</ele><time>2026-03-30T14:18:41.999Z</time></trkpt><trkpt lat="40.78098018815039" lon="17.4044120266981"><ele>362.79999999999995</ele><time>2026-03-30T14:18:53.999Z</time></trkpt><trkpt lat="40.78103694351343" lon="17.40435012427085"><ele>363.0</ele><time>2026-03-30T14:19:05.999Z</time></trkpt><trkpt lat="40.78109399070562" lon="17.404260265751514"><ele>363.0</ele><time>2026-03-30T14:19:08.999Z</time></trkpt><trkpt lat="40.78107502230628" lon="17.404175490727887"><ele>363.0</ele><time>2026-03-30T14:19:13.999Z</time></trkpt><trkpt lat="40.781022235561146" lon="17.40410722076629"><ele>363.0</ele><time>2026-03-30T14:19:16.999Z</time></trkpt><trkpt lat="40.78096802039997" lon="17.404006692933113"><ele>363.0</ele><time>2026-03-30T14:19:19.999Z</time></trkpt><trkpt lat="40.78087963530647" lon="17.404010009836544"><ele>363.0</ele><time>2026-03-30T14:19:22.999Z</time></trkpt><trkpt lat="40.78081257578542" lon="17.404045592083083"><ele>363.0</ele><time>2026-03-30T14:19:25.999Z</time></trkpt><trkpt lat="40.78074721482682" lon="17.40402235877153"><ele>363.8333333333333</ele><time>2026-03-30T14:19:28.999Z</time></trkpt><trkpt lat="40.78075501808274" lon="17.40391731621181"><ele>364.6666666666667</ele><time>2026-03-30T14:19:31.999Z</time></trkpt><trkpt lat="40.78076138628224" lon="17.403824274302945"><ele>365.5</ele><time>2026-03-30T14:19:33.999Z</time></trkpt><trkpt lat="40.78066140399574" lon="17.4038256553299"><ele>366.33333333333337</ele><time>2026-03-30T14:19:37.998Z</time></trkpt><trkpt lat="40.780571052022296" lon="17.403786562990035"><ele>367.1666666666667</ele><time>2026-03-30T14:19:39.998Z</time></trkpt><trkpt lat="40.78052968070262" lon="17.40371026021715"><ele>368.0</ele><time>2026-03-30T14:19:43.998Z</time></trkpt><trkpt lat="40.780461301480436" lon="17.403657755266234"><ele>368.2</ele><time>2026-03-30T14:19:45.998Z</time></trkpt><trkpt lat="40.780374122037855" lon="17.403615558631646"><ele>368.4</ele><time>2026-03-30T14:19:47.998Z</time></trkpt><trkpt lat="40.780280026068034" lon="17.403545073315296"><ele>368.59999999999997</ele><time>2026-03-30T14:19:49.998Z</time></trkpt><trkpt lat="40.780271561074386" lon="17.403432205943282"><ele>368.79999999999995</ele><time>2026-03-30T14:19:51.998Z</time></trkpt><trkpt lat="40.78028048077564" lon="17.403338234774562"><ele>369.0</ele><time>2026-03-30T14:19:53.998Z</time></trkpt><trkpt lat="40.780209747046996" lon="17.40325057461635"><ele>369.25</ele><time>2026-03-30T14:19:55.998Z</time></trkpt><trkpt lat="40.780104822352676" lon="17.403192469256105"><ele>369.5</ele><time>2026-03-30T14:19:57.998Z</time></trkpt><trkpt lat="40.780002122796915" lon="17.40312068640211"><ele>369.75</ele><time>2026-03-30T14:19:59.998Z</time></trkpt><trkpt lat="40.77989902608928" lon="17.40306474206927"><ele>370.0</ele><time>2026-03-30T14:20:02Z</time></trkpt><trkpt lat="40.77979756145454" lon="17.403013105178026"><ele>370.0</ele><time>2026-03-30T14:20:04Z</time></trkpt><trkpt lat="40.77969688636847" lon="17.40298180883608"><ele>370.0</ele><time>2026-03-30T14:20:06Z</time></trkpt><trkpt lat="40.77959407959265" lon="17.402953117756223"><ele>370.0</ele><time>2026-03-30T14:20:08Z</time></trkpt><trkpt lat="40.77948446049488" lon="17.402935297158567"><ele>370.0</ele><time>2026-03-30T14:20:10Z</time></trkpt><trkpt lat="40.77937737794878" lon="17.40293908507354"><ele>370.0</ele><time>2026-03-30T14:20:12Z</time></trkpt><trkpt lat="40.7792802586064" lon="17.4029329242419"><ele>371.0</ele><time>2026-03-30T14:20:14Z</time></trkpt><trkpt lat="40.77916704249945" lon="17.40290245822203"><ele>372.0</ele><time>2026-03-30T14:20:16Z</time></trkpt><trkpt lat="40.77906660690727" lon="17.4028345860276"><ele>373.0</ele><time>2026-03-30T14:20:18Z</time></trkpt><trkpt lat="40.77897183386224" lon="17.40273296669899"><ele>374.0</ele><time>2026-03-30T14:20:20Z</time></trkpt><trkpt lat="40.77887120103812" lon="17.402699379251096"><ele>374.0</ele><time>2026-03-30T14:20:22Z</time></trkpt><trkpt lat="40.778762542380754" lon="17.40265467068777"><ele>374.0</ele><time>2026-03-30T14:20:24Z</time></trkpt><trkpt lat="40.77865246766338" lon="17.402624935019137"><ele>374.0</ele><time>2026-03-30T14:20:26Z</time></trkpt><trkpt lat="40.77854236307099" lon="17.40262621147108"><ele>374.0</ele><time>2026-03-30T14:20:28Z</time></trkpt><trkpt lat="40.77844690157826" lon="17.402543223591643"><ele>375.0</ele><time>2026-03-30T14:20:30Z</time></trkpt><trkpt lat="40.77835382402342" lon="17.402469458520255"><ele>376.0</ele><time>2026-03-30T14:20:32Z</time></trkpt><trkpt lat="40.77826346138589" lon="17.40238642613299"><ele>377.0</ele><time>2026-03-30T14:20:34Z</time></trkpt><trkpt lat="40.77818326448968" lon="17.40233678715282"><ele>378.0</ele><time>2026-03-30T14:20:36Z</time></trkpt><trkpt lat="40.77810824236106" lon="17.4023503622801"><ele>379.0</ele><time>2026-03-30T14:20:38Z</time></trkpt><trkpt lat="40.77803294267392" lon="17.402368578017654"><ele>379.0</ele><time>2026-03-30T14:20:41Z</time></trkpt><trkpt lat="40.77794512651396" lon="17.40238903805634"><ele>379.0</ele><time>2026-03-30T14:20:43.999Z</time></trkpt><trkpt lat="40.777873608697796" lon="17.40234662905326"><ele>379.0</ele><time>2026-03-30T14:20:46.999Z</time></trkpt><trkpt lat="40.77781071699724" lon="17.402304344828476"><ele>379.0</ele><time>2026-03-30T14:20:48.999Z</time></trkpt><trkpt lat="40.777745396068646" lon="17.402262103103457"><ele>379.0</ele><time>2026-03-30T14:20:50.999Z</time></trkpt><trkpt lat="40.77767726040553" lon="17.402211974963556"><ele>379.0</ele><time>2026-03-30T14:20:52.999Z</time></trkpt><trkpt lat="40.77768675834112" lon="17.402111292991915"><ele>378.16666666666663</ele><time>2026-03-30T14:20:55.999Z</time></trkpt><trkpt lat="40.777751412586966" lon="17.40203727244722"><ele>377.3333333333333</ele><time>2026-03-30T14:20:57.999Z</time></trkpt><trkpt lat="40.77784449740086" lon="17.401963693787852"><ele>376.5</ele><time>2026-03-30T14:20:59.999Z</time></trkpt><trkpt lat="40.77789598316728" lon="17.40190947251293"><ele>375.6666666666667</ele><time>2026-03-30T14:21:00.999Z</time></trkpt><trkpt lat="40.77793509219118" lon="17.401841808832707"><ele>374.83333333333337</ele><time>2026-03-30T14:21:01.999Z</time></trkpt><trkpt lat="40.778006865089836" lon="17.401710891799194"><ele>374.0</ele><time>2026-03-30T14:21:03.999Z</time></trkpt><trkpt lat="40.77805778995976" lon="17.401628203963654"><ele>374.0</ele><time>2026-03-30T14:21:04.999Z</time></trkpt><trkpt lat="40.77808174231764" lon="17.40154038652725"><ele>374.0</ele><time>2026-03-30T14:21:05.999Z</time></trkpt><trkpt lat="40.77812694183998" lon="17.401481947470156"><ele>374.0</ele><time>2026-03-30T14:21:06.999Z</time></trkpt><trkpt lat="40.77815585433162" lon="17.40137597510841"><ele>374.0</ele><time>2026-03-30T14:21:07.999Z</time></trkpt><trkpt lat="40.778186727307535" lon="17.401295367680106"><ele>374.0</ele><time>2026-03-30T14:21:08.999Z</time></trkpt><trkpt lat="40.7782264832049" lon="17.401136440621034"><ele>374.0</ele><time>2026-03-30T14:21:10.999Z</time></trkpt><trkpt lat="40.77823230242471" lon="17.401044560836112"><ele>373.0</ele><time>2026-03-30T14:21:11.999Z</time></trkpt><trkpt lat="40.77821847062319" lon="17.40094243801425"><ele>372.0</ele><time>2026-03-30T14:21:12.999Z</time></trkpt><trkpt lat="40.778207112475556" lon="17.400839353868705"><ele>371.0</ele><time>2026-03-30T14:21:13.999Z</time></trkpt><trkpt lat="40.77820408868484" lon="17.40073495128588"><ele>370.0</ele><time>2026-03-30T14:21:14.999Z</time></trkpt><trkpt lat="40.77819761100064" lon="17.400648358736994"><ele>369.0</ele><time>2026-03-30T14:21:15.999Z</time></trkpt><trkpt lat="40.77817110990475" lon="17.400519139403023"><ele>368.0</ele><time>2026-03-30T14:21:17.999Z</time></trkpt><trkpt lat="40.77813299231633" lon="17.400441872834474"><ele>367.7142857142857</ele><time>2026-03-30T14:21:20.999Z</time></trkpt><trkpt lat="40.77806937293808" lon="17.40035946883715"><ele>367.4285714285714</ele><time>2026-03-30T14:21:29.999Z</time></trkpt><trkpt lat="40.77804378971905" lon="17.40026180539825"><ele>367.1428571428571</ele><time>2026-03-30T14:21:31.999Z</time></trkpt><trkpt lat="40.77808188868461" lon="17.400182803924338"><ele>366.8571428571429</ele><time>2026-03-30T14:21:33.999Z</time></trkpt><trkpt lat="40.778115020132084" lon="17.400102527488663"><ele>366.57142857142856</ele><time>2026-03-30T14:21:36.999Z</time></trkpt><trkpt lat="40.77812318253257" lon="17.40001695213571"><ele>366.2857142857143</ele><time>2026-03-30T14:21:39.998Z</time></trkpt><trkpt lat="40.778057282459976" lon="17.399981482124087"><ele>366.0</ele><time>2026-03-30T14:21:41.998Z</time></trkpt><trkpt lat="40.77798844936825" lon="17.399914596567307"><ele>366.0</ele><time>2026-03-30T14:21:44.998Z</time></trkpt><trkpt lat="40.77792486383409" lon="17.399872616762398"><ele>366.0</ele><time>2026-03-30T14:21:46.998Z</time></trkpt><trkpt lat="40.77788554894001" lon="17.39978075254756"><ele>366.0</ele><time>2026-03-30T14:21:49.998Z</time></trkpt><trkpt lat="40.77782152587984" lon="17.39971054553026"><ele>366.0</ele><time>2026-03-30T14:21:56.998Z</time></trkpt><trkpt lat="40.77775349360409" lon="17.399684748510545"><ele>366.0</ele><time>2026-03-30T14:22:29Z</time></trkpt><trkpt lat="40.77773908396113" lon="17.399603064229968"><ele>366.0</ele><time>2026-03-30T14:22:42Z</time></trkpt><trkpt lat="40.77768018109886" lon="17.399564803606783"><ele>366.0</ele><time>2026-03-30T14:22:52.999Z</time></trkpt><trkpt lat="40.777628349609074" lon="17.399495659605016"><ele>364.6666666666667</ele><time>2026-03-30T14:22:55.999Z</time></trkpt><trkpt lat="40.77756339846827" lon="17.39946057191024"><ele>363.3333333333333</ele><time>2026-03-30T14:22:59.999Z</time></trkpt><trkpt lat="40.77750092945755" lon="17.399445464254704"><ele>362.0</ele><time>2026-03-30T14:23:08.999Z</time></trkpt><trkpt lat="40.7774329090431" lon="17.39938381288512"><ele>360.66666666666663</ele><time>2026-03-30T14:23:15.999Z</time></trkpt><trkpt lat="40.77738343341888" lon="17.399305410654556"><ele>359.3333333333333</ele><time>2026-03-30T14:23:19.999Z</time></trkpt><trkpt lat="40.77733995762304" lon="17.399206164418395"><ele>358.0</ele><time>2026-03-30T14:23:23.999Z</time></trkpt><trkpt lat="40.7773048966847" lon="17.3991058997871"><ele>358.00000000000006</ele><time>2026-03-30T14:23:27.999Z</time></trkpt><trkpt lat="40.7772480898495" lon="17.39905847930881"><ele>358.0</ele><time>2026-03-30T14:23:30.999Z</time></trkpt><trkpt lat="40.7772109290933" lon="17.39896911275101"><ele>358.0</ele><time>2026-03-30T14:23:34.999Z</time></trkpt><trkpt lat="40.77727573400007" lon="17.398927698346675"><ele>358.0</ele><time>2026-03-30T14:23:44.999Z</time></trkpt><trkpt lat="40.777338903516245" lon="17.398878530732567"><ele>358.0</ele><time>2026-03-30T14:23:47.998Z</time></trkpt><trkpt lat="40.777332558915795" lon="17.39879188928344"><ele>358.00000000000006</ele><time>2026-03-30T14:23:50.998Z</time></trkpt><trkpt lat="40.77728216431584" lon="17.398734037592135"><ele>358.0</ele><time>2026-03-30T14:23:53.998Z</time></trkpt><trkpt lat="40.777256940207195" lon="17.398643506421852"><ele>359.28571428571433</ele><time>2026-03-30T14:23:56.998Z</time></trkpt><trkpt lat="40.777188690654" lon="17.398581529524748"><ele>360.57142857142856</ele><time>2026-03-30T14:24:01.998Z</time></trkpt><trkpt lat="40.77713168249718" lon="17.398535895423297"><ele>361.8571428571429</ele><time>2026-03-30T14:24:04.998Z</time></trkpt><trkpt lat="40.77706437206493" lon="17.39848765246449"><ele>363.14285714285717</ele><time>2026-03-30T14:24:07.998Z</time></trkpt><trkpt lat="40.77705158554014" lon="17.398395415300975"><ele>364.42857142857144</ele><time>2026-03-30T14:24:10.998Z</time></trkpt><trkpt lat="40.7770791652661" lon="17.398320077494496"><ele>365.7142857142857</ele><time>2026-03-30T14:24:14Z</time></trkpt><trkpt lat="40.77706158107867" lon="17.3982329448432"><ele>367.0</ele><time>2026-03-30T14:24:17Z</time></trkpt><trkpt lat="40.777048409012615" lon="17.398133091740682"><ele>367.0</ele><time>2026-03-30T14:24:21Z</time></trkpt><trkpt lat="40.777036237883486" lon="17.39804654619143"><ele>367.0</ele><time>2026-03-30T14:24:24Z</time></trkpt><trkpt lat="40.777033861764856" lon="17.397934021361383"><ele>367.0</ele><time>2026-03-30T14:24:27Z</time></trkpt><trkpt lat="40.777032907357764" lon="17.397798454188973"><ele>367.0</ele><time>2026-03-30T14:24:30Z</time></trkpt><trkpt lat="40.77703432403206" lon="17.397702273397737"><ele>367.0</ele><time>2026-03-30T14:24:32Z</time></trkpt><trkpt lat="40.777040236886506" lon="17.397607239854334"><ele>367.0</ele><time>2026-03-30T14:24:34Z</time></trkpt><trkpt lat="40.77704047059977" lon="17.39751310166906"><ele>368.16666666666663</ele><time>2026-03-30T14:24:36Z</time></trkpt><trkpt lat="40.777044458813215" lon="17.397422798674825"><ele>369.3333333333333</ele><time>2026-03-30T14:24:38Z</time></trkpt><trkpt lat="40.77704534327545" lon="17.397336946096043"><ele>370.5</ele><time>2026-03-30T14:24:40Z</time></trkpt><trkpt lat="40.77704991661808" lon="17.397233145039014"><ele>371.6666666666667</ele><time>2026-03-30T14:24:42Z</time></trkpt><trkpt lat="40.777063736131424" lon="17.397141144552496"><ele>372.83333333333337</ele><time>2026-03-30T14:24:44Z</time></trkpt><trkpt lat="40.777080548670305" lon="17.397028529346322"><ele>374.0</ele><time>2026-03-30T14:24:46Z</time></trkpt><trkpt lat="40.77710582572806" lon="17.396929199220825"><ele>375.33333333333337</ele><time>2026-03-30T14:24:48Z</time></trkpt><trkpt lat="40.77712128867098" lon="17.396811134199474"><ele>376.6666666666667</ele><time>2026-03-30T14:24:50Z</time></trkpt><trkpt lat="40.777125550760495" lon="17.396685677343942"><ele>378.0</ele><time>2026-03-30T14:24:52Z</time></trkpt><trkpt lat="40.77714409077679" lon="17.39656251581525"><ele>379.3333333333333</ele><time>2026-03-30T14:24:53.999Z</time></trkpt><trkpt lat="40.77714988863504" lon="17.396453488577727"><ele>380.66666666666663</ele><time>2026-03-30T14:24:55.999Z</time></trkpt><trkpt lat="40.7771512370769" lon="17.396351945963676"><ele>382.0</ele><time>2026-03-30T14:24:57.999Z</time></trkpt><trkpt lat="40.77714517768773" lon="17.396223897421116"><ele>382.5</ele><time>2026-03-30T14:24:59.999Z</time></trkpt><trkpt lat="40.77716053445617" lon="17.396115501209277"><ele>383.0</ele><time>2026-03-30T14:25:01.999Z</time></trkpt><trkpt lat="40.77714785463384" lon="17.396019263091265"><ele>383.5</ele><time>2026-03-30T14:25:03.999Z</time></trkpt><trkpt lat="40.77714565089708" lon="17.39590815271994"><ele>384.0</ele><time>2026-03-30T14:25:05.999Z</time></trkpt><trkpt lat="40.777175241950836" lon="17.39581454548031"><ele>384.50000000000006</ele><time>2026-03-30T14:25:07.999Z</time></trkpt><trkpt lat="40.77724822153081" lon="17.395747412240908"><ele>385.0</ele><time>2026-03-30T14:25:09.999Z</time></trkpt><trkpt lat="40.77734574953332" lon="17.395733185697964"><ele>385.0</ele><time>2026-03-30T14:25:11.999Z</time></trkpt><trkpt lat="40.77742882852163" lon="17.395732024324275"><ele>385.0</ele><time>2026-03-30T14:25:13.999Z</time></trkpt><trkpt lat="40.77752218535916" lon="17.39570231326171"><ele>385.0</ele><time>2026-03-30T14:25:15.999Z</time></trkpt><trkpt lat="40.777608614733005" lon="17.395615523681894"><ele>385.0</ele><time>2026-03-30T14:25:17.999Z</time></trkpt><trkpt lat="40.777703726034865" lon="17.39555341857949"><ele>385.0</ele><time>2026-03-30T14:25:19.999Z</time></trkpt><trkpt lat="40.777785066713164" lon="17.39546662390253"><ele>384.6</ele><time>2026-03-30T14:25:21.999Z</time></trkpt><trkpt lat="40.77787071961681" lon="17.395379404070532"><ele>384.2</ele><time>2026-03-30T14:25:23.999Z</time></trkpt><trkpt lat="40.77793016554965" lon="17.395289896794406"><ele>383.79999999999995</ele><time>2026-03-30T14:25:25.999Z</time></trkpt><trkpt lat="40.778016110542104" lon="17.39520926093102"><ele>383.4</ele><time>2026-03-30T14:25:27.999Z</time></trkpt><trkpt lat="40.778098940171134" lon="17.395110836421953"><ele>383.0</ele><time>2026-03-30T14:25:29.999Z</time></trkpt><trkpt lat="40.77815450724525" lon="17.39500352585055"><ele>383.0</ele><time>2026-03-30T14:25:31.999Z</time></trkpt><trkpt lat="40.7782100754997" lon="17.394899349961406"><ele>383.0</ele><time>2026-03-30T14:25:33.999Z</time></trkpt><trkpt lat="40.77827396766637" lon="17.39480154562872"><ele>383.0</ele><time>2026-03-30T14:25:35.999Z</time></trkpt><trkpt lat="40.778339808245164" lon="17.394700412593345"><ele>383.0</ele><time>2026-03-30T14:25:37.999Z</time></trkpt><trkpt lat="40.77840172061748" lon="17.39460162923736"><ele>383.0</ele><time>2026-03-30T14:25:39.999Z</time></trkpt><trkpt lat="40.77848280553109" lon="17.394486887804472"><ele>382.2</ele><time>2026-03-30T14:25:41.999Z</time></trkpt><trkpt lat="40.7785688771545" lon="17.39440271443622"><ele>381.4</ele><time>2026-03-30T14:25:43.999Z</time></trkpt><trkpt lat="40.77865510494952" lon="17.394300464336343"><ele>380.59999999999997</ele><time>2026-03-30T14:25:45.999Z</time></trkpt><trkpt lat="40.778739936267925" lon="17.39421801288367"><ele>379.79999999999995</ele><time>2026-03-30T14:25:47.999Z</time></trkpt><trkpt lat="40.77878633583057" lon="17.394161590609546"><ele>379.0</ele><time>2026-03-30T14:25:48.998Z</time></trkpt><trkpt lat="40.77883819862638" lon="17.394111501232224"><ele>379.0</ele><time>2026-03-30T14:25:49.998Z</time></trkpt><trkpt lat="40.77889161222332" lon="17.394057024443715"><ele>379.0</ele><time>2026-03-30T14:25:50.998Z</time></trkpt><trkpt lat="40.77898882449402" lon="17.39394011258052"><ele>379.0</ele><time>2026-03-30T14:25:52.998Z</time></trkpt><trkpt lat="40.77903671410409" lon="17.393876401078103"><ele>379.0</ele><time>2026-03-30T14:25:53.998Z</time></trkpt><trkpt lat="40.77908261857612" lon="17.39380988985792"><ele>379.0</ele><time>2026-03-30T14:25:54.998Z</time></trkpt><trkpt lat="40.779131961621346" lon="17.393738768937727"><ele>379.0</ele><time>2026-03-30T14:25:55.998Z</time></trkpt><trkpt lat="40.77918752706913" lon="17.39367138558079"><ele>378.66666666666663</ele><time>2026-03-30T14:25:56.998Z</time></trkpt><trkpt lat="40.77923325699482" lon="17.39358660648119"><ele>378.3333333333333</ele><time>2026-03-30T14:25:57.998Z</time></trkpt><trkpt lat="40.77927744193852" lon="17.39351543844298"><ele>378.0</ele><time>2026-03-30T14:25:58.998Z</time></trkpt><trkpt lat="40.77931279380431" lon="17.39344143587564"><ele>377.6666666666667</ele><time>2026-03-30T14:25:59.998Z</time></trkpt><trkpt lat="40.779372322209866" lon="17.393347401468496"><ele>377.33333333333337</ele><time>2026-03-30T14:26:01.998Z</time></trkpt><trkpt lat="40.77942269274728" lon="17.393250050806355"><ele>377.0</ele><time>2026-03-30T14:26:03.998Z</time></trkpt><trkpt lat="40.77947777648111" lon="17.39315181938237"><ele>378.0</ele><time>2026-03-30T14:26:05.998Z</time></trkpt><trkpt lat="40.779534125578515" lon="17.393075805102143"><ele>379.0</ele><time>2026-03-30T14:26:07.998Z</time></trkpt><trkpt lat="40.779621369079635" lon="17.393105767319284"><ele>380.0</ele><time>2026-03-30T14:26:10.998Z</time></trkpt><trkpt lat="40.779687937079935" lon="17.39318568841781"><ele>381.0</ele><time>2026-03-30T14:26:13.998Z</time></trkpt><trkpt lat="40.77975980363713" lon="17.393261615216414"><ele>382.0</ele><time>2026-03-30T14:26:16.998Z</time></trkpt><trkpt lat="40.77984969451846" lon="17.393325642572396"><ele>382.0</ele><time>2026-03-30T14:26:20Z</time></trkpt><trkpt lat="40.77992738974558" lon="17.393365841935612"><ele>382.0</ele><time>2026-03-30T14:26:22Z</time></trkpt><trkpt lat="40.77999683388584" lon="17.3933999030321"><ele>382.0</ele><time>2026-03-30T14:26:24Z</time></trkpt><trkpt lat="40.78008378481956" lon="17.393426204598555"><ele>382.0</ele><time>2026-03-30T14:26:26Z</time></trkpt><trkpt lat="40.78017383333629" lon="17.393462691970505"><ele>382.0</ele><time>2026-03-30T14:26:28Z</time></trkpt><trkpt lat="40.78025101410947" lon="17.393500410879433"><ele>382.0</ele><time>2026-03-30T14:26:30Z</time></trkpt><trkpt lat="40.78033724689977" lon="17.393487249240327"><ele>382.66666666666663</ele><time>2026-03-30T14:26:32Z</time></trkpt><trkpt lat="40.78042161127158" lon="17.39343760028388"><ele>383.3333333333333</ele><time>2026-03-30T14:26:34Z</time></trkpt><trkpt lat="40.78047858383363" lon="17.39335581162529"><ele>384.0</ele><time>2026-03-30T14:26:36Z</time></trkpt><trkpt lat="40.780537928751436" lon="17.393259663833085"><ele>384.66666666666663</ele><time>2026-03-30T14:26:38Z</time></trkpt><trkpt lat="40.78059450624588" lon="17.39319205508096"><ele>385.3333333333333</ele><time>2026-03-30T14:26:40Z</time></trkpt><trkpt lat="40.780658859912776" lon="17.39310776500953"><ele>386.0</ele><time>2026-03-30T14:26:42Z</time></trkpt><trkpt lat="40.78071806865083" lon="17.393008772113387"><ele>386.4</ele><time>2026-03-30T14:26:44Z</time></trkpt><trkpt lat="40.78078426864333" lon="17.39288836396746"><ele>386.8</ele><time>2026-03-30T14:26:46Z</time></trkpt><trkpt lat="40.780857287628216" lon="17.392787288531885"><ele>387.2</ele><time>2026-03-30T14:26:48Z</time></trkpt><trkpt lat="40.78088852028136" lon="17.392711114757525"><ele>387.59999999999997</ele><time>2026-03-30T14:26:49Z</time></trkpt><trkpt lat="40.780959036563" lon="17.39259909145956"><ele>388.0</ele><time>2026-03-30T14:26:51Z</time></trkpt><trkpt lat="40.78103402467726" lon="17.39248618273281"><ele>388.1666666666667</ele><time>2026-03-30T14:26:53Z</time></trkpt><trkpt lat="40.781086174874844" lon="17.392375717507978"><ele>388.33333333333337</ele><time>2026-03-30T14:26:55Z</time></trkpt><trkpt lat="40.78116624364065" lon="17.392283634413527"><ele>388.5</ele><time>2026-03-30T14:26:57Z</time></trkpt><trkpt lat="40.78123737609188" lon="17.39217693712186"><ele>388.66666666666663</ele><time>2026-03-30T14:26:59Z</time></trkpt><trkpt lat="40.78127743892568" lon="17.392103308421884"><ele>388.8333333333333</ele><time>2026-03-30T14:27:00Z</time></trkpt><trkpt lat="40.78130147858555" lon="17.392021979593626"><ele>389.0</ele><time>2026-03-30T14:27:01Z</time></trkpt><trkpt lat="40.78130092368427" lon="17.39187956269464"><ele>389.0</ele><time>2026-03-30T14:27:03Z</time></trkpt><trkpt lat="40.78127788552957" lon="17.39179947638208"><ele>389.0</ele><time>2026-03-30T14:27:03.999Z</time></trkpt><trkpt lat="40.78124738755171" lon="17.391667857625567"><ele>389.0</ele><time>2026-03-30T14:27:05.999Z</time></trkpt><trkpt lat="40.78120139753541" lon="17.391535208120246"><ele>389.0</ele><time>2026-03-30T14:27:07.999Z</time></trkpt><trkpt lat="40.781197864989664" lon="17.391392002521428"><ele>389.0</ele><time>2026-03-30T14:27:09.999Z</time></trkpt><trkpt lat="40.781260826008" lon="17.391249403394145"><ele>388.99999999999994</ele><time>2026-03-30T14:27:11.999Z</time></trkpt><trkpt lat="40.78129266091183" lon="17.391168909211764"><ele>389.0</ele><time>2026-03-30T14:27:12.999Z</time></trkpt><trkpt lat="40.78137085958327" lon="17.391074746058756"><ele>389.0</ele><time>2026-03-30T14:27:14.999Z</time></trkpt><trkpt lat="40.78145820985769" lon="17.39102451694148"><ele>389.0</ele><time>2026-03-30T14:27:16.999Z</time></trkpt><trkpt lat="40.781567571793985" lon="17.391003807744706"><ele>388.99999999999994</ele><time>2026-03-30T14:27:18.999Z</time></trkpt><trkpt lat="40.781633662618624" lon="17.39100803371324"><ele>389.0</ele><time>2026-03-30T14:27:20.999Z</time></trkpt><trkpt lat="40.78172713359006" lon="17.391045535686324"><ele>389.0</ele><time>2026-03-30T14:27:22.999Z</time></trkpt><trkpt lat="40.781804392881675" lon="17.391097180875672"><ele>389.0</ele><time>2026-03-30T14:27:24.999Z</time></trkpt><trkpt lat="40.781899474600685" lon="17.391139095075378"><ele>389.0</ele><time>2026-03-30T14:27:26.999Z</time></trkpt><trkpt lat="40.78198487435066" lon="17.39117006782495"><ele>389.0</ele><time>2026-03-30T14:27:28.999Z</time></trkpt><trkpt lat="40.782069295074415" lon="17.39114179408639"><ele>389.0</ele><time>2026-03-30T14:27:30.999Z</time></trkpt><trkpt lat="40.78217085018469" lon="17.391111637425144"><ele>388.6</ele><time>2026-03-30T14:27:32.999Z</time></trkpt><trkpt lat="40.78225491007236" lon="17.39104015014411"><ele>388.2</ele><time>2026-03-30T14:27:34.999Z</time></trkpt><trkpt lat="40.782342304186095" lon="17.39096778705713"><ele>387.8</ele><time>2026-03-30T14:27:36.999Z</time></trkpt><trkpt lat="40.78243158228817" lon="17.390885180255957"><ele>387.40000000000003</ele><time>2026-03-30T14:27:38.999Z</time></trkpt><trkpt lat="40.78251245975269" lon="17.39076876866632"><ele>387.0</ele><time>2026-03-30T14:27:40.999Z</time></trkpt><trkpt lat="40.78255121511009" lon="17.3907026413158"><ele>387.0</ele><time>2026-03-30T14:27:41.999Z</time></trkpt><trkpt lat="40.7826145211702" lon="17.3905765263407"><ele>387.0</ele><time>2026-03-30T14:27:43.999Z</time></trkpt><trkpt lat="40.78267139097717" lon="17.390428923853932"><ele>387.0</ele><time>2026-03-30T14:27:45.999Z</time></trkpt><trkpt lat="40.78271080907195" lon="17.39034935255757"><ele>387.0</ele><time>2026-03-30T14:27:46.999Z</time></trkpt><trkpt lat="40.78276740117583" lon="17.390271108039688"><ele>387.0</ele><time>2026-03-30T14:27:47.999Z</time></trkpt><trkpt lat="40.78281582202871" lon="17.390204242090395"><ele>386.20000000000005</ele><time>2026-03-30T14:27:48.999Z</time></trkpt><trkpt lat="40.782866443200916" lon="17.390139956445527"><ele>385.4</ele><time>2026-03-30T14:27:49.999Z</time></trkpt><trkpt lat="40.782912904949164" lon="17.39007500453396"><ele>384.6</ele><time>2026-03-30T14:27:50.999Z</time></trkpt><trkpt lat="40.78295587593425" lon="17.389980718819917"><ele>383.79999999999995</ele><time>2026-03-30T14:27:51.999Z</time></trkpt><trkpt lat="40.78305474032881" lon="17.389912018913577"><ele>383.0</ele><time>2026-03-30T14:27:53.999Z</time></trkpt><trkpt lat="40.78313969481002" lon="17.389806459306868"><ele>383.0</ele><time>2026-03-30T14:27:55.999Z</time></trkpt><trkpt lat="40.78319630200937" lon="17.389692656679582"><ele>383.0</ele><time>2026-03-30T14:27:56.999Z</time></trkpt><trkpt lat="40.783277650026605" lon="17.389612660871997"><ele>383.0</ele><time>2026-03-30T14:27:58.998Z</time></trkpt><trkpt lat="40.78338164806366" lon="17.389535888088655"><ele>383.0</ele><time>2026-03-30T14:28:00.998Z</time></trkpt><trkpt lat="40.78348438093551" lon="17.38942355168888"><ele>382.4</ele><time>2026-03-30T14:28:02.998Z</time></trkpt><trkpt lat="40.78358918620371" lon="17.389375983545662"><ele>381.79999999999995</ele><time>2026-03-30T14:28:04.998Z</time></trkpt><trkpt lat="40.78365384240413" lon="17.389359649220825"><ele>381.2</ele><time>2026-03-30T14:28:05.998Z</time></trkpt><trkpt lat="40.78371814087853" lon="17.38936621910543"><ele>380.6</ele><time>2026-03-30T14:28:06.998Z</time></trkpt><trkpt lat="40.7838278424576" lon="17.38939320587137"><ele>380.0</ele><time>2026-03-30T14:28:08.998Z</time></trkpt><trkpt lat="40.78390742581521" lon="17.389290689687183"><ele>380.0</ele><time>2026-03-30T14:28:10.998Z</time></trkpt><trkpt lat="40.78395531974194" lon="17.389115264125543"><ele>380.0</ele><time>2026-03-30T14:28:12.998Z</time></trkpt><trkpt lat="40.78399324988161" lon="17.389026640978614"><ele>380.0</ele><time>2026-03-30T14:28:14.998Z</time></trkpt><trkpt lat="40.78399646819069" lon="17.38888083542964"><ele>380.0</ele><time>2026-03-30T14:28:16.998Z</time></trkpt><trkpt lat="40.78400288549582" lon="17.38879584496883"><ele>380.0</ele><time>2026-03-30T14:28:17.998Z</time></trkpt><trkpt lat="40.78400468040163" lon="17.388639608483736"><ele>381.2</ele><time>2026-03-30T14:28:19.998Z</time></trkpt><trkpt lat="40.783989272271" lon="17.388505902623614"><ele>382.4</ele><time>2026-03-30T14:28:21.998Z</time></trkpt><trkpt lat="40.7839747234664" lon="17.388379526313415"><ele>383.6</ele><time>2026-03-30T14:28:23.998Z</time></trkpt><trkpt lat="40.78398144245622" lon="17.38825050578159"><ele>384.8</ele><time>2026-03-30T14:28:26Z</time></trkpt><trkpt lat="40.78401152825706" lon="17.38813511446074"><ele>386.0</ele><time>2026-03-30T14:28:28Z</time></trkpt><trkpt lat="40.78406370038459" lon="17.388046677885526"><ele>385.99999999999994</ele><time>2026-03-30T14:28:30Z</time></trkpt><trkpt lat="40.784160355916576" lon="17.38806105317375"><ele>386.0</ele><time>2026-03-30T14:28:32Z</time></trkpt><trkpt lat="40.7842459222767" lon="17.388070383938075"><ele>386.0</ele><time>2026-03-30T14:28:34Z</time></trkpt><trkpt lat="40.78430029213763" lon="17.388000089264864"><ele>386.0</ele><time>2026-03-30T14:28:36Z</time></trkpt><trkpt lat="40.78432720848675" lon="17.387874084211873"><ele>385.99999999999994</ele><time>2026-03-30T14:28:38Z</time></trkpt><trkpt lat="40.78436262476791" lon="17.38777068097079"><ele>386.0</ele><time>2026-03-30T14:28:40Z</time></trkpt><trkpt lat="40.7843943733048" lon="17.387681595737774"><ele>387.16666666666663</ele><time>2026-03-30T14:28:42Z</time></trkpt><trkpt lat="40.78443305520566" lon="17.387582242164726"><ele>388.3333333333333</ele><time>2026-03-30T14:28:44Z</time></trkpt><trkpt lat="40.78446640007139" lon="17.387487868636686"><ele>389.5</ele><time>2026-03-30T14:28:46Z</time></trkpt><trkpt lat="40.78450456088098" lon="17.387386247713042"><ele>390.66666666666663</ele><time>2026-03-30T14:28:48Z</time></trkpt><trkpt lat="40.78454003766677" lon="17.38726808711319"><ele>391.8333333333333</ele><time>2026-03-30T14:28:50Z</time></trkpt><trkpt lat="40.78458253100458" lon="17.38715076283399"><ele>393.0</ele><time>2026-03-30T14:28:52Z</time></trkpt><trkpt lat="40.78462296248821" lon="17.387026322593456"><ele>393.4</ele><time>2026-03-30T14:28:54Z</time></trkpt><trkpt lat="40.78465725178783" lon="17.386935691978508"><ele>393.79999999999995</ele><time>2026-03-30T14:28:56Z</time></trkpt><trkpt lat="40.78470744934121" lon="17.386793913650287"><ele>394.2</ele><time>2026-03-30T14:28:58Z</time></trkpt><trkpt lat="40.78475083479366" lon="17.386669195704417"><ele>394.6</ele><time>2026-03-30T14:29:00Z</time></trkpt><trkpt lat="40.78477711672741" lon="17.38657719954501"><ele>395.0</ele><time>2026-03-30T14:29:01Z</time></trkpt><trkpt lat="40.78480601895764" lon="17.38647401382725"><ele>394.99999999999994</ele><time>2026-03-30T14:29:03Z</time></trkpt><trkpt lat="40.78487270847526" lon="17.386457799582214"><ele>395.0</ele><time>2026-03-30T14:29:05Z</time></trkpt><trkpt lat="40.784952691671386" lon="17.386492985767912"><ele>395.0</ele><time>2026-03-30T14:29:06.999Z</time></trkpt><trkpt lat="40.78502862929828" lon="17.386564791892994"><ele>395.0</ele><time>2026-03-30T14:29:08.999Z</time></trkpt><trkpt lat="40.78508656533077" lon="17.386618275236845"><ele>394.99999999999994</ele><time>2026-03-30T14:29:10.999Z</time></trkpt><trkpt lat="40.78517079189296" lon="17.386618456372616"><ele>395.0</ele><time>2026-03-30T14:29:12.999Z</time></trkpt><trkpt lat="40.78524332984756" lon="17.386621606587543"><ele>393.3333333333333</ele><time>2026-03-30T14:29:14.999Z</time></trkpt><trkpt lat="40.78530383582106" lon="17.3865484282159"><ele>391.66666666666663</ele><time>2026-03-30T14:29:17.999Z</time></trkpt><trkpt lat="40.78532813432974" lon="17.386449318372897"><ele>390.0</ele><time>2026-03-30T14:29:19.999Z</time></trkpt><trkpt lat="40.78533616944389" lon="17.386338335327014"><ele>388.33333333333337</ele><time>2026-03-30T14:29:22.999Z</time></trkpt><trkpt lat="40.78527342927492" lon="17.386246928748157"><ele>386.6666666666667</ele><time>2026-03-30T14:29:25.999Z</time></trkpt><trkpt lat="40.785241395655085" lon="17.386127078095342"><ele>385.0</ele><time>2026-03-30T14:29:27.999Z</time></trkpt><trkpt lat="40.785202271119594" lon="17.386044709204544"><ele>386.1666666666667</ele><time>2026-03-30T14:29:30.999Z</time></trkpt><trkpt lat="40.785175730135826" lon="17.38596495270702"><ele>387.33333333333337</ele><time>2026-03-30T14:29:32.999Z</time></trkpt><trkpt lat="40.785137635804084" lon="17.38587709109771"><ele>388.5</ele><time>2026-03-30T14:29:34.999Z</time></trkpt><trkpt lat="40.78507103208477" lon="17.38585283215514"><ele>389.66666666666663</ele><time>2026-03-30T14:29:36.999Z</time></trkpt><trkpt lat="40.785035549598625" lon="17.385759774060386"><ele>390.8333333333333</ele><time>2026-03-30T14:29:38.999Z</time></trkpt><trkpt lat="40.78499675498502" lon="17.38563578334301"><ele>392.0</ele><time>2026-03-30T14:29:40.999Z</time></trkpt><trkpt lat="40.784920226271744" lon="17.385635918944534"><ele>391.99999999999994</ele><time>2026-03-30T14:29:43.999Z</time></trkpt><trkpt lat="40.78485928235246" lon="17.385679303081737"><ele>392.0</ele><time>2026-03-30T14:29:45.999Z</time></trkpt><trkpt lat="40.784851101667726" lon="17.385571227824382"><ele>392.0</ele><time>2026-03-30T14:29:48.999Z</time></trkpt><trkpt lat="40.78483910898526" lon="17.385453955640234"><ele>392.0</ele><time>2026-03-30T14:29:50.999Z</time></trkpt><trkpt lat="40.78478245925396" lon="17.385344252087677"><ele>391.99999999999994</ele><time>2026-03-30T14:29:52.999Z</time></trkpt><trkpt lat="40.7847241026709" lon="17.385239576611966"><ele>392.0</ele><time>2026-03-30T14:29:54.999Z</time></trkpt><trkpt lat="40.78461609436354" lon="17.38514060705613"><ele>390.8</ele><time>2026-03-30T14:29:56.999Z</time></trkpt><trkpt lat="40.78455341385031" lon="17.38508553487251"><ele>389.6</ele><time>2026-03-30T14:29:57.999Z</time></trkpt><trkpt lat="40.78449090147751" lon="17.385025177900665"><ele>388.40000000000003</ele><time>2026-03-30T14:29:58.999Z</time></trkpt><trkpt lat="40.78438952962808" lon="17.38492359049955"><ele>387.20000000000005</ele><time>2026-03-30T14:30:00.999Z</time></trkpt><trkpt lat="40.78433965603116" lon="17.384863784570324"><ele>386.0</ele><time>2026-03-30T14:30:01.998Z</time></trkpt><trkpt lat="40.78430021779916" lon="17.384732637123722"><ele>385.8333333333333</ele><time>2026-03-30T14:30:03.998Z</time></trkpt><trkpt lat="40.78424560018009" lon="17.384661293279894"><ele>385.66666666666663</ele><time>2026-03-30T14:30:05.998Z</time></trkpt><trkpt lat="40.78419477849965" lon="17.384600195022777"><ele>385.5</ele><time>2026-03-30T14:30:07.998Z</time></trkpt><trkpt lat="40.784226448326564" lon="17.384519076974303"><ele>385.33333333333337</ele><time>2026-03-30T14:30:10.998Z</time></trkpt><trkpt lat="40.784283862032794" lon="17.38443785985577"><ele>385.1666666666667</ele><time>2026-03-30T14:30:12.998Z</time></trkpt><trkpt lat="40.784334562297026" lon="17.384354509061318"><ele>385.0</ele><time>2026-03-30T14:30:14.998Z</time></trkpt><trkpt lat="40.784382504488555" lon="17.38425701370858"><ele>383.6666666666667</ele><time>2026-03-30T14:30:18.998Z</time></trkpt><trkpt lat="40.78441965338586" lon="17.384149397022902"><ele>382.33333333333337</ele><time>2026-03-30T14:30:20.998Z</time></trkpt><trkpt lat="40.78446034117042" lon="17.38403367234905"><ele>381.0</ele><time>2026-03-30T14:30:22.998Z</time></trkpt><trkpt lat="40.784465668268005" lon="17.383939656518894"><ele>379.6666666666667</ele><time>2026-03-30T14:30:24.998Z</time></trkpt><trkpt lat="40.78446370371202" lon="17.383827662574248"><ele>378.33333333333337</ele><time>2026-03-30T14:30:26.998Z</time></trkpt><trkpt lat="40.784456273191395" lon="17.38371159589863"><ele>377.0</ele><time>2026-03-30T14:30:28.998Z</time></trkpt><trkpt lat="40.784440479801205" lon="17.383600912592417"><ele>378.0</ele><time>2026-03-30T14:30:30.998Z</time></trkpt><trkpt lat="40.78442843772" lon="17.3834962046892"><ele>379.0</ele><time>2026-03-30T14:30:33Z</time></trkpt><trkpt lat="40.78441167099204" lon="17.383352182813216"><ele>380.0</ele><time>2026-03-30T14:30:35Z</time></trkpt><trkpt lat="40.78435658592147" lon="17.383227563869944"><ele>381.0</ele><time>2026-03-30T14:30:37Z</time></trkpt><trkpt lat="40.78423335250404" lon="17.383193303511323"><ele>382.0</ele><time>2026-03-30T14:30:39Z</time></trkpt><trkpt lat="40.784113060186904" lon="17.38313874212292"><ele>382.0</ele><time>2026-03-30T14:30:41Z</time></trkpt><trkpt lat="40.783982182692846" lon="17.383082923138925"><ele>382.0</ele><time>2026-03-30T14:30:43Z</time></trkpt><trkpt lat="40.783922030931315" lon="17.383047939056514"><ele>382.0</ele><time>2026-03-30T14:30:44Z</time></trkpt><trkpt lat="40.78385785484543" lon="17.3830122396715"><ele>382.0</ele><time>2026-03-30T14:30:45Z</time></trkpt><trkpt lat="40.78378094902021" lon="17.382971990833887"><ele>382.0</ele><time>2026-03-30T14:30:46Z</time></trkpt><trkpt lat="40.78371485776059" lon="17.38293425544024"><ele>382.0</ele><time>2026-03-30T14:30:47Z</time></trkpt><trkpt lat="40.78364651148499" lon="17.38290781409882"><ele>380.16666666666663</ele><time>2026-03-30T14:30:48Z</time></trkpt><trkpt lat="40.783571184736246" lon="17.382903733689655"><ele>378.3333333333333</ele><time>2026-03-30T14:30:49Z</time></trkpt><trkpt lat="40.78350653726654" lon="17.38289797212339"><ele>376.5</ele><time>2026-03-30T14:30:50Z</time></trkpt><trkpt lat="40.78343792540536" lon="17.38287065639603"><ele>374.6666666666667</ele><time>2026-03-30T14:30:51Z</time></trkpt><trkpt lat="40.78334892494861" lon="17.382786433013916"><ele>372.83333333333337</ele><time>2026-03-30T14:30:53Z</time></trkpt><trkpt lat="40.78330089183943" lon="17.382732313376877"><ele>371.0</ele><time>2026-03-30T14:30:54Z</time></trkpt><trkpt lat="40.78322261612177" lon="17.38264846490153"><ele>371.0</ele><time>2026-03-30T14:30:56Z</time></trkpt><trkpt lat="40.783224063808106" lon="17.38254951748398"><ele>371.0</ele><time>2026-03-30T14:31:00Z</time></trkpt><trkpt lat="40.78327985216884" lon="17.38246523029194"><ele>371.0</ele><time>2026-03-30T14:31:03Z</time></trkpt><trkpt lat="40.78332415061141" lon="17.38238879566914"><ele>371.0</ele><time>2026-03-30T14:31:05Z</time></trkpt><trkpt lat="40.783396923364236" lon="17.382320477071517"><ele>371.0</ele><time>2026-03-30T14:31:07Z</time></trkpt><trkpt lat="40.783627907088515" lon="17.382268097295825"><ele>369.6666666666667</ele><time>2026-03-30T14:31:12.999Z</time></trkpt><trkpt lat="40.78371218732405" lon="17.382228699094625"><ele>368.33333333333337</ele><time>2026-03-30T14:31:14.999Z</time></trkpt><trkpt lat="40.783788152701334" lon="17.38213880518152"><ele>367.0</ele><time>2026-03-30T14:31:18.999Z</time></trkpt><trkpt lat="40.78386724705611" lon="17.38206478981957"><ele>365.6666666666667</ele><time>2026-03-30T14:31:21.999Z</time></trkpt><trkpt lat="40.78394490823738" lon="17.381998358752003"><ele>364.3333333333333</ele><time>2026-03-30T14:31:24.999Z</time></trkpt><trkpt lat="40.78400474969317" lon="17.38196883604092"><ele>363.0</ele><time>2026-03-30T14:31:26.999Z</time></trkpt><trkpt lat="40.78407265676969" lon="17.381926270517223"><ele>360.79999999999995</ele><time>2026-03-30T14:31:28.999Z</time></trkpt><trkpt lat="40.78413561758707" lon="17.381838262742047"><ele>358.6</ele><time>2026-03-30T14:31:30.999Z</time></trkpt><trkpt lat="40.78426028093308" lon="17.3818283995778"><ele>356.4</ele><time>2026-03-30T14:31:35.999Z</time></trkpt><trkpt lat="40.78433353319543" lon="17.381806527870232"><ele>354.20000000000005</ele><time>2026-03-30T14:31:39.999Z</time></trkpt><trkpt lat="40.78447770794846" lon="17.38178504238017"><ele>352.0</ele><time>2026-03-30T14:31:43.999Z</time></trkpt><trkpt lat="40.78455901441813" lon="17.38174561863547"><ele>345.75</ele><time>2026-03-30T14:31:46.999Z</time></trkpt><trkpt lat="40.78477137972557" lon="17.38161879219987"><ele>339.5</ele><time>2026-03-30T14:31:55.999Z</time></trkpt><trkpt lat="40.78484367547739" lon="17.381583178684032"><ele>333.25</ele><time>2026-03-30T14:31:58.999Z</time></trkpt><trkpt lat="40.784926903641704" lon="17.38152056927285"><ele>327.0</ele><time>2026-03-30T14:32:01.999Z</time></trkpt><trkpt lat="40.78501240416095" lon="17.38150170159265"><ele>327.0</ele><time>2026-03-30T14:32:04.999Z</time></trkpt><trkpt lat="40.78507203732196" lon="17.381462688297564"><ele>327.0</ele><time>2026-03-30T14:32:07.998Z</time></trkpt><trkpt lat="40.785125832573854" lon="17.38141541356936"><ele>327.0</ele><time>2026-03-30T14:32:09.998Z</time></trkpt><trkpt lat="40.785212004479064" lon="17.381346715920813"><ele>327.0</ele><time>2026-03-30T14:32:12.998Z</time></trkpt><trkpt lat="40.785301788039625" lon="17.381329906918634"><ele>327.0</ele><time>2026-03-30T14:32:14.998Z</time></trkpt><trkpt lat="40.78540025984832" lon="17.38128723393903"><ele>327.0</ele><time>2026-03-30T14:32:16.998Z</time></trkpt><trkpt lat="40.78548736455528" lon="17.38128277009669"><ele>325.0</ele><time>2026-03-30T14:32:18.998Z</time></trkpt><trkpt lat="40.785580166862204" lon="17.381273625303514"><ele>323.0</ele><time>2026-03-30T14:32:21.998Z</time></trkpt><trkpt lat="40.78566243197874" lon="17.381244253640297"><ele>321.0</ele><time>2026-03-30T14:32:24.998Z</time></trkpt><trkpt lat="40.785733289321755" lon="17.381240149365382"><ele>319.0</ele><time>2026-03-30T14:32:26.998Z</time></trkpt><trkpt lat="40.785813728610705" lon="17.3812336712338"><ele>317.0</ele><time>2026-03-30T14:32:28.998Z</time></trkpt><trkpt lat="40.7858964887498" lon="17.38121866847369"><ele>315.0</ele><time>2026-03-30T14:32:31.998Z</time></trkpt><trkpt lat="40.785983919426876" lon="17.38122756097028"><ele>311.2</ele><time>2026-03-30T14:32:33.998Z</time></trkpt><trkpt lat="40.78608479233987" lon="17.38123152530537"><ele>307.4</ele><time>2026-03-30T14:32:35.998Z</time></trkpt><trkpt lat="40.78618454286442" lon="17.381243886329518"><ele>303.6</ele><time>2026-03-30T14:32:38Z</time></trkpt><trkpt lat="40.7862925507116" lon="17.381213829590152"><ele>299.8</ele><time>2026-03-30T14:32:40Z</time></trkpt><trkpt lat="40.78636939163759" lon="17.381236758515538"><ele>296.0</ele><time>2026-03-30T14:32:43Z</time></trkpt><trkpt lat="40.786482260479275" lon="17.381233780900146"><ele>296.0</ele><time>2026-03-30T14:32:44Z</time></trkpt><trkpt lat="40.78655974316614" lon="17.381227769316865"><ele>296.0</ele><time>2026-03-30T14:32:45Z</time></trkpt><trkpt lat="40.78664532182756" lon="17.381243902565416"><ele>296.0</ele><time>2026-03-30T14:32:46Z</time></trkpt><trkpt lat="40.78671984713613" lon="17.381229677072035"><ele>296.0</ele><time>2026-03-30T14:32:47Z</time></trkpt><trkpt lat="40.78678482746719" lon="17.381221543394883"><ele>296.0</ele><time>2026-03-30T14:32:48Z</time></trkpt><trkpt lat="40.78689584617303" lon="17.381230052927048"><ele>296.0</ele><time>2026-03-30T14:32:50Z</time></trkpt><trkpt lat="40.786989133325804" lon="17.38119362265113"><ele>291.8</ele><time>2026-03-30T14:32:52Z</time></trkpt><trkpt lat="40.78709958434148" lon="17.38117934151001"><ele>287.6</ele><time>2026-03-30T14:32:54Z</time></trkpt><trkpt lat="40.787154707039555" lon="17.381238332273742"><ele>283.4</ele><time>2026-03-30T14:32:57Z</time></trkpt><trkpt lat="40.78710713836996" lon="17.381339880183848"><ele>279.2</ele><time>2026-03-30T14:37:14Z</time></trkpt><trkpt lat="40.78711667710434" lon="17.381465784178815"><ele>275.0</ele><time>2026-03-30T14:37:16Z</time></trkpt><trkpt lat="40.78711319847024" lon="17.38159698277276"><ele>272.6</ele><time>2026-03-30T14:37:18Z</time></trkpt><trkpt lat="40.787094658324385" lon="17.381740963345138"><ele>270.2</ele><time>2026-03-30T14:37:20Z</time></trkpt><trkpt lat="40.787079650142935" lon="17.38185033264973"><ele>267.8</ele><time>2026-03-30T14:37:22Z</time></trkpt><trkpt lat="40.78706361271797" lon="17.38196273953343"><ele>265.4</ele><time>2026-03-30T14:37:24Z</time></trkpt><trkpt lat="40.78706327936896" lon="17.382107287758885"><ele>263.0</ele><time>2026-03-30T14:37:26Z</time></trkpt><trkpt lat="40.78715807132116" lon="17.382177221711995"><ele>263.1666666666667</ele><time>2026-03-30T14:37:28Z</time></trkpt><trkpt lat="40.787215497560226" lon="17.382213950322118"><ele>263.33333333333337</ele><time>2026-03-30T14:37:29Z</time></trkpt><trkpt lat="40.787272000003526" lon="17.38225613131442"><ele>263.5</ele><time>2026-03-30T14:37:30Z</time></trkpt><trkpt lat="40.78734919645345" lon="17.3822978219315"><ele>263.6666666666667</ele><time>2026-03-30T14:37:31Z</time></trkpt><trkpt lat="40.78743588123116" lon="17.382343369533746"><ele>263.8333333333333</ele><time>2026-03-30T14:37:31.999Z</time></trkpt><trkpt lat="40.787518907788346" lon="17.382394443537198"><ele>264.0</ele><time>2026-03-30T14:37:32.999Z</time></trkpt><trkpt lat="40.787614236766885" lon="17.38244643765699"><ele>260.2</ele><time>2026-03-30T14:37:33.999Z</time></trkpt><trkpt lat="40.78769803125392" lon="17.38250296290064"><ele>256.4</ele><time>2026-03-30T14:37:34.999Z</time></trkpt><trkpt lat="40.78779348034199" lon="17.38255035085812"><ele>252.6</ele><time>2026-03-30T14:37:35.999Z</time></trkpt><trkpt lat="40.7878868646544" lon="17.382591703998017"><ele>248.8</ele><time>2026-03-30T14:37:36.999Z</time></trkpt><trkpt lat="40.78796355005033" lon="17.382644023699495"><ele>245.0</ele><time>2026-03-30T14:37:37.999Z</time></trkpt><trkpt lat="40.788053128969786" lon="17.38269876124245"><ele>245.0</ele><time>2026-03-30T14:37:38.999Z</time></trkpt><trkpt lat="40.7881409780877" lon="17.38276593105156"><ele>245.0</ele><time>2026-03-30T14:37:39.999Z</time></trkpt><trkpt lat="40.78820477875497" lon="17.382852855968434"><ele>245.0</ele><time>2026-03-30T14:37:40.999Z</time></trkpt><trkpt lat="40.78827163553882" lon="17.382956084310806"><ele>245.0</ele><time>2026-03-30T14:37:41.999Z</time></trkpt><trkpt lat="40.78833915897182" lon="17.383067974890402"><ele>245.0</ele><time>2026-03-30T14:37:42.999Z</time></trkpt><trkpt lat="40.78839848464032" lon="17.383172416695718"><ele>245.33333333333334</ele><time>2026-03-30T14:37:43.999Z</time></trkpt><trkpt lat="40.788457064285396" lon="17.38327395455757"><ele>245.66666666666669</ele><time>2026-03-30T14:37:44.999Z</time></trkpt><trkpt lat="40.78849375193713" lon="17.383344980801507"><ele>246.0</ele><time>2026-03-30T14:37:45.999Z</time></trkpt><trkpt lat="40.78853505324385" lon="17.383411131227977"><ele>246.33333333333331</ele><time>2026-03-30T14:37:46.999Z</time></trkpt><trkpt lat="40.788583143739096" lon="17.38349856181064"><ele>246.66666666666666</ele><time>2026-03-30T14:37:47.999Z</time></trkpt><trkpt lat="40.78863208854075" lon="17.38358518993404"><ele>247.0</ele><time>2026-03-30T14:37:48.999Z</time></trkpt><trkpt lat="40.78868652648774" lon="17.383670763558953"><ele>244.33333333333331</ele><time>2026-03-30T14:37:49.999Z</time></trkpt><trkpt lat="40.7887335344367" lon="17.383754970710065"><ele>241.66666666666666</ele><time>2026-03-30T14:37:50.999Z</time></trkpt><trkpt lat="40.78877374673942" lon="17.38384863687193"><ele>239.0</ele><time>2026-03-30T14:37:51.999Z</time></trkpt><trkpt lat="40.78882140293779" lon="17.38394855010421"><ele>236.33333333333331</ele><time>2026-03-30T14:37:52.999Z</time></trkpt><trkpt lat="40.78887467872011" lon="17.38404479985204"><ele>233.66666666666666</ele><time>2026-03-30T14:37:53.999Z</time></trkpt><trkpt lat="40.788916877936366" lon="17.384132331946535"><ele>231.0</ele><time>2026-03-30T14:37:54.999Z</time></trkpt><trkpt lat="40.788955478712666" lon="17.384225335311665"><ele>230.66666666666666</ele><time>2026-03-30T14:37:55.999Z</time></trkpt><trkpt lat="40.78897868933861" lon="17.384309006103877"><ele>230.33333333333331</ele><time>2026-03-30T14:37:57.999Z</time></trkpt><trkpt lat="40.78904664082905" lon="17.384372839752437"><ele>230.0</ele><time>2026-03-30T14:37:59.999Z</time></trkpt><trkpt lat="40.78907634905443" lon="17.384492314486213"><ele>229.66666666666666</ele><time>2026-03-30T14:38:01.999Z</time></trkpt><trkpt lat="40.78911591747032" lon="17.38458138722696"><ele>229.33333333333331</ele><time>2026-03-30T14:38:03.999Z</time></trkpt><trkpt lat="40.78914364931948" lon="17.384674310669773"><ele>229.0</ele><time>2026-03-30T14:38:05.999Z</time></trkpt><trkpt lat="40.78917653822857" lon="17.384765072229126"><ele>228.99999999999997</ele><time>2026-03-30T14:38:07.999Z</time></trkpt><trkpt lat="40.78918912880598" lon="17.384854268093466"><ele>229.0</ele><time>2026-03-30T14:38:09.999Z</time></trkpt><trkpt lat="40.789217875742416" lon="17.384964748602226"><ele>229.0</ele><time>2026-03-30T14:38:11.999Z</time></trkpt><trkpt lat="40.78922942260646" lon="17.385091575403578"><ele>229.0</ele><time>2026-03-30T14:38:13.999Z</time></trkpt><trkpt lat="40.78926045592904" lon="17.38517908659901"><ele>228.99999999999997</ele><time>2026-03-30T14:38:15.999Z</time></trkpt><trkpt lat="40.78927363670601" lon="17.385286539212395"><ele>229.0</ele><time>2026-03-30T14:38:17.999Z</time></trkpt><trkpt lat="40.78930166409969" lon="17.38540622662505"><ele>228.99999999999997</ele><time>2026-03-30T14:38:20.999Z</time></trkpt><trkpt lat="40.78931772227143" lon="17.385488321351378"><ele>229.0</ele><time>2026-03-30T14:38:23.999Z</time></trkpt><trkpt lat="40.78934178634956" lon="17.385586326361263"><ele>229.0</ele><time>2026-03-30T14:38:24.998Z</time></trkpt><trkpt lat="40.78936834862453" lon="17.38568518383675"><ele>229.0</ele><time>2026-03-30T14:38:26.998Z</time></trkpt><trkpt lat="40.78939359914222" lon="17.385798216248457"><ele>228.99999999999997</ele><time>2026-03-30T14:38:28.998Z</time></trkpt><trkpt lat="40.78941820543744" lon="17.38591153383449"><ele>229.0</ele><time>2026-03-30T14:38:30.998Z</time></trkpt><trkpt lat="40.789424964866285" lon="17.385995446163328"><ele>228.49999999999997</ele><time>2026-03-30T14:38:33.998Z</time></trkpt><trkpt lat="40.7894158107342" lon="17.38610287413114"><ele>228.0</ele><time>2026-03-30T14:38:36.998Z</time></trkpt><trkpt lat="40.78939575934009" lon="17.386221272784265"><ele>227.5</ele><time>2026-03-30T14:38:38.998Z</time></trkpt><trkpt lat="40.789368053607944" lon="17.386340061103194"><ele>227.0</ele><time>2026-03-30T14:38:40.998Z</time></trkpt><trkpt lat="40.78933551426555" lon="17.386448673532048"><ele>226.49999999999997</ele><time>2026-03-30T14:38:42.998Z</time></trkpt><trkpt lat="40.789324528304576" lon="17.386565173662046"><ele>226.0</ele><time>2026-03-30T14:38:45.998Z</time></trkpt><trkpt lat="40.78929630153515" lon="17.3866706003535"><ele>225.99999999999997</ele><time>2026-03-30T14:38:47.998Z</time></trkpt><trkpt lat="40.78927993127884" lon="17.386792966813516"><ele>226.0</ele><time>2026-03-30T14:38:49.998Z</time></trkpt><trkpt lat="40.78924473639321" lon="17.386926741826326"><ele>226.0</ele><time>2026-03-30T14:38:51.998Z</time></trkpt><trkpt lat="40.78921838141032" lon="17.38702374819674"><ele>226.0</ele><time>2026-03-30T14:38:53.998Z</time></trkpt><trkpt lat="40.78919687563821" lon="17.387126185872923"><ele>225.99999999999997</ele><time>2026-03-30T14:38:57Z</time></trkpt><trkpt lat="40.78918817170429" lon="17.387227582418625"><ele>226.0</ele><time>2026-03-30T14:38:59Z</time></trkpt><trkpt lat="40.7891585011662" lon="17.38734636023662"><ele>225.20000000000002</ele><time>2026-03-30T14:39:01Z</time></trkpt><trkpt lat="40.78911251903673" lon="17.387498195390204"><ele>224.40000000000003</ele><time>2026-03-30T14:39:03Z</time></trkpt><trkpt lat="40.789058527439074" lon="17.387656870212524"><ele>223.6</ele><time>2026-03-30T14:39:05Z</time></trkpt><trkpt lat="40.789042866723804" lon="17.387738405957002"><ele>222.8</ele><time>2026-03-30T14:39:06Z</time></trkpt><trkpt lat="40.788996144595764" lon="17.38788301641097"><ele>222.0</ele><time>2026-03-30T14:39:08Z</time></trkpt><trkpt lat="40.788964115041644" lon="17.387962608910154"><ele>221.0</ele><time>2026-03-30T14:39:09Z</time></trkpt><trkpt lat="40.78893851232181" lon="17.388048105462534"><ele>220.0</ele><time>2026-03-30T14:39:10Z</time></trkpt><trkpt lat="40.78889055113053" lon="17.38813899547391"><ele>219.0</ele><time>2026-03-30T14:39:12Z</time></trkpt><trkpt lat="40.788809418569954" lon="17.38828792216005"><ele>218.0</ele><time>2026-03-30T14:39:14Z</time></trkpt><trkpt lat="40.788760162967996" lon="17.38840959505287"><ele>217.0</ele><time>2026-03-30T14:39:16Z</time></trkpt><trkpt lat="40.788715938255535" lon="17.388539845289237"><ele>217.0</ele><time>2026-03-30T14:39:18Z</time></trkpt><trkpt lat="40.78867387150365" lon="17.388669585984466"><ele>217.0</ele><time>2026-03-30T14:39:20Z</time></trkpt><trkpt lat="40.78863046057363" lon="17.38878946903364"><ele>217.0</ele><time>2026-03-30T14:39:22Z</time></trkpt><trkpt lat="40.78859798266082" lon="17.388926267426758"><ele>217.0</ele><time>2026-03-30T14:39:24Z</time></trkpt><trkpt lat="40.7885765153191" lon="17.389007932432733"><ele>217.0</ele><time>2026-03-30T14:39:25Z</time></trkpt><trkpt lat="40.78853931001558" lon="17.38914496780791"><ele>217.2</ele><time>2026-03-30T14:39:27Z</time></trkpt><trkpt lat="40.78851000671562" lon="17.38927445820812"><ele>217.39999999999998</ele><time>2026-03-30T14:39:29Z</time></trkpt><trkpt lat="40.78847744037171" lon="17.389385262523984"><ele>217.60000000000002</ele><time>2026-03-30T14:39:31Z</time></trkpt><trkpt lat="40.78844933285944" lon="17.3895356572439"><ele>217.8</ele><time>2026-03-30T14:39:33Z</time></trkpt><trkpt lat="40.788407304574434" lon="17.38965220751141"><ele>218.0</ele><time>2026-03-30T14:39:35Z</time></trkpt><trkpt lat="40.788383670446166" lon="17.38975106506611"><ele>221.00000000000003</ele><time>2026-03-30T14:39:37Z</time></trkpt><trkpt lat="40.78834811853548" lon="17.38985171485894"><ele>224.0</ele><time>2026-03-30T14:39:39Z</time></trkpt><trkpt lat="40.78832066005735" lon="17.389953812332575"><ele>227.0</ele><time>2026-03-30T14:39:41Z</time></trkpt><trkpt lat="40.78827620667817" lon="17.390013369214177"><ele>230.0</ele><time>2026-03-30T14:39:42.999Z</time></trkpt><trkpt lat="40.78820760146819" lon="17.390029736850305"><ele>233.00000000000003</ele><time>2026-03-30T14:39:44.999Z</time></trkpt><trkpt lat="40.78813140897648" lon="17.3899817556909"><ele>236.0</ele><time>2026-03-30T14:39:46.999Z</time></trkpt><trkpt lat="40.78805558117838" lon="17.389951884085303"><ele>236.00000000000003</ele><time>2026-03-30T14:39:49.999Z</time></trkpt><trkpt lat="40.78797414045963" lon="17.389935530786943"><ele>236.0</ele><time>2026-03-30T14:39:52.999Z</time></trkpt><trkpt lat="40.78788825795007" lon="17.389900372692054"><ele>236.0</ele><time>2026-03-30T14:39:55.999Z</time></trkpt><trkpt lat="40.78779990354448" lon="17.389872795295357"><ele>236.0</ele><time>2026-03-30T14:39:58.999Z</time></trkpt><trkpt lat="40.78773079898673" lon="17.389863153364406"><ele>236.00000000000003</ele><time>2026-03-30T14:40:01.999Z</time></trkpt><trkpt lat="40.787695171839516" lon="17.389946869391924"><ele>236.0</ele><time>2026-03-30T14:40:05.999Z</time></trkpt><trkpt lat="40.78774326877865" lon="17.39000361024702"><ele>236.00000000000003</ele><time>2026-03-30T14:40:08.999Z</time></trkpt><trkpt lat="40.78779709649746" lon="17.39006830586278"><ele>236.0</ele><time>2026-03-30T14:40:42.998Z</time></trkpt><trkpt lat="40.78785717487266" lon="17.390113473488004"><ele>236.0</ele><time>2026-03-30T14:40:44.998Z</time></trkpt><trkpt lat="40.78795765112151" lon="17.39019378356809"><ele>236.0</ele><time>2026-03-30T14:40:46.998Z</time></trkpt><trkpt lat="40.78802359470634" lon="17.390238259591648"><ele>236.00000000000003</ele><time>2026-03-30T14:40:47.998Z</time></trkpt><trkpt lat="40.78808306975019" lon="17.390281568574117"><ele>236.0</ele><time>2026-03-30T14:40:48.998Z</time></trkpt><trkpt lat="40.78814355832307" lon="17.39035191460785"><ele>236.00000000000003</ele><time>2026-03-30T14:40:49.998Z</time></trkpt><trkpt lat="40.78821804370602" lon="17.390385563669565"><ele>236.0</ele><time>2026-03-30T14:40:50.998Z</time></trkpt><trkpt lat="40.78827620763749" lon="17.390459434289248"><ele>236.0</ele><time>2026-03-30T14:40:51.998Z</time></trkpt><trkpt lat="40.788341298694824" lon="17.390537133159587"><ele>236.0</ele><time>2026-03-30T14:40:52.998Z</time></trkpt><trkpt lat="40.78840386154718" lon="17.390613225483964"><ele>236.00000000000003</ele><time>2026-03-30T14:40:53.998Z</time></trkpt><trkpt lat="40.78846063873663" lon="17.390692438049424"><ele>236.0</ele><time>2026-03-30T14:40:54.998Z</time></trkpt><trkpt lat="40.78851308486474" lon="17.390771832060004"><ele>233.66666666666669</ele><time>2026-03-30T14:40:55.998Z</time></trkpt><trkpt lat="40.788573985483616" lon="17.390849421153682"><ele>231.33333333333334</ele><time>2026-03-30T14:40:56.998Z</time></trkpt><trkpt lat="40.78861776684714" lon="17.390936510219422"><ele>229.0</ele><time>2026-03-30T14:40:57.998Z</time></trkpt><trkpt lat="40.78866152538636" lon="17.39101846752034"><ele>226.66666666666669</ele><time>2026-03-30T14:40:58.998Z</time></trkpt><trkpt lat="40.78871768711906" lon="17.39110094184246"><ele>224.33333333333334</ele><time>2026-03-30T14:40:59.998Z</time></trkpt><trkpt lat="40.7887685272012" lon="17.391186268932707"><ele>222.0</ele><time>2026-03-30T14:41:00.998Z</time></trkpt><trkpt lat="40.788815605754394" lon="17.391280717302738"><ele>223.0</ele><time>2026-03-30T14:41:02Z</time></trkpt><trkpt lat="40.788858587610285" lon="17.391375665757426"><ele>224.0</ele><time>2026-03-30T14:41:03Z</time></trkpt><trkpt lat="40.78889437977342" lon="17.391474582461985"><ele>225.0</ele><time>2026-03-30T14:41:04Z</time></trkpt><trkpt lat="40.788933218185136" lon="17.39157413733001"><ele>226.0</ele><time>2026-03-30T14:41:05Z</time></trkpt><trkpt lat="40.788972133484314" lon="17.391665948988866"><ele>227.0</ele><time>2026-03-30T14:41:06Z</time></trkpt><trkpt lat="40.78899473139782" lon="17.391746510966563"><ele>228.0</ele><time>2026-03-30T14:41:07Z</time></trkpt><trkpt lat="40.7890399263256" lon="17.391818248951143"><ele>228.0</ele><time>2026-03-30T14:41:08Z</time></trkpt><trkpt lat="40.78910492742883" lon="17.39187901772549"><ele>228.0</ele><time>2026-03-30T14:41:09Z</time></trkpt><trkpt lat="40.789159537023636" lon="17.39194102452234"><ele>228.0</ele><time>2026-03-30T14:41:10Z</time></trkpt><trkpt lat="40.78922446200013" lon="17.392036931208956"><ele>228.0</ele><time>2026-03-30T14:41:12Z</time></trkpt><trkpt lat="40.78929977118731" lon="17.392017301819315"><ele>228.0</ele><time>2026-03-30T14:41:14Z</time></trkpt><trkpt lat="40.789360654379045" lon="17.391969893080375"><ele>228.0</ele><time>2026-03-30T14:41:15Z</time></trkpt><trkpt lat="40.789421609424245" lon="17.39193773938995"><ele>226.0</ele><time>2026-03-30T14:41:16Z</time></trkpt><trkpt lat="40.78951379210901" lon="17.39187463822873"><ele>224.0</ele><time>2026-03-30T14:41:18Z</time></trkpt><trkpt lat="40.789573362977414" lon="17.391946620704307"><ele>222.0</ele><time>2026-03-30T14:41:21Z</time></trkpt><trkpt lat="40.78953472206406" lon="17.39205243724"><ele>220.0</ele><time>2026-03-30T14:41:23Z</time></trkpt><trkpt lat="40.78951372735728" lon="17.39218301776065"><ele>218.0</ele><time>2026-03-30T14:41:25Z</time></trkpt><trkpt lat="40.78950169998386" lon="17.392299857299466"><ele>218.0</ele><time>2026-03-30T14:41:27Z</time></trkpt><trkpt lat="40.789475719913085" lon="17.392409370387444"><ele>218.0</ele><time>2026-03-30T14:41:29Z</time></trkpt><trkpt lat="40.78945734963309" lon="17.392529545717135"><ele>218.0</ele><time>2026-03-30T14:41:31Z</time></trkpt><trkpt lat="40.78943170993759" lon="17.39265863949456"><ele>218.0</ele><time>2026-03-30T14:41:33Z</time></trkpt><trkpt lat="40.78939744057298" lon="17.392771058226646"><ele>218.0</ele><time>2026-03-30T14:41:35Z</time></trkpt><trkpt lat="40.78936697232874" lon="17.39290313832608"><ele>220.60000000000002</ele><time>2026-03-30T14:41:37Z</time></trkpt><trkpt lat="40.789338240091325" lon="17.39303092240639"><ele>223.20000000000002</ele><time>2026-03-30T14:41:39Z</time></trkpt><trkpt lat="40.78930932862996" lon="17.39317057992863"><ele>225.8</ele><time>2026-03-30T14:41:41Z</time></trkpt><trkpt lat="40.789274042776746" lon="17.39330360413404"><ele>228.4</ele><time>2026-03-30T14:41:42.999Z</time></trkpt><trkpt lat="40.789254993836465" lon="17.393442675521154"><ele>231.0</ele><time>2026-03-30T14:41:44.999Z</time></trkpt><trkpt lat="40.789220076636575" lon="17.393525298751165"><ele>231.0</ele><time>2026-03-30T14:41:45.999Z</time></trkpt><trkpt lat="40.78921151056073" lon="17.39368356695539"><ele>231.0</ele><time>2026-03-30T14:41:47.999Z</time></trkpt><trkpt lat="40.789207684097086" lon="17.39378359079391"><ele>231.0</ele><time>2026-03-30T14:41:48.999Z</time></trkpt><trkpt lat="40.78920534039397" lon="17.39386822154272"><ele>231.0</ele><time>2026-03-30T14:41:49.999Z</time></trkpt><trkpt lat="40.789202845318655" lon="17.393958318339823"><ele>231.0</ele><time>2026-03-30T14:41:50.999Z</time></trkpt><trkpt lat="40.78920007899987" lon="17.394058209754828"><ele>231.0</ele><time>2026-03-30T14:41:51.999Z</time></trkpt><trkpt lat="40.789198242069396" lon="17.394161768052626"><ele>230.28571428571428</ele><time>2026-03-30T14:41:52.999Z</time></trkpt><trkpt lat="40.789196633927475" lon="17.394259592843156"><ele>229.57142857142856</ele><time>2026-03-30T14:41:53.999Z</time></trkpt><trkpt lat="40.789194810095914" lon="17.394370538468586"><ele>228.85714285714286</ele><time>2026-03-30T14:41:54.999Z</time></trkpt><trkpt lat="40.789193245297405" lon="17.394465726588177"><ele>228.14285714285714</ele><time>2026-03-30T14:41:55.999Z</time></trkpt><trkpt lat="40.78919171647517" lon="17.394558725866606"><ele>227.42857142857142</ele><time>2026-03-30T14:41:56.999Z</time></trkpt><trkpt lat="40.789190529438905" lon="17.39465496283955"><ele>226.71428571428572</ele><time>2026-03-30T14:41:57.999Z</time></trkpt><trkpt lat="40.78919029073628" lon="17.394740994226023"><ele>226.0</ele><time>2026-03-30T14:41:58.999Z</time></trkpt><trkpt lat="40.789189977687485" lon="17.39484932440328"><ele>224.83333333333331</ele><time>2026-03-30T14:41:59.999Z</time></trkpt><trkpt lat="40.78918967850946" lon="17.394952853665124"><ele>223.66666666666666</ele><time>2026-03-30T14:42:00.999Z</time></trkpt><trkpt lat="40.78918934659734" lon="17.395067711375205"><ele>222.5</ele><time>2026-03-30T14:42:01.999Z</time></trkpt><trkpt lat="40.789189001530545" lon="17.395187120721687"><ele>221.33333333333331</ele><time>2026-03-30T14:42:02.999Z</time></trkpt><trkpt lat="40.78918863427261" lon="17.395314209782413"><ele>220.16666666666666</ele><time>2026-03-30T14:42:03.999Z</time></trkpt><trkpt lat="40.789187363699995" lon="17.395440122078586"><ele>219.0</ele><time>2026-03-30T14:42:04.999Z</time></trkpt><trkpt lat="40.78918573164813" lon="17.39557025552954"><ele>217.79999999999998</ele><time>2026-03-30T14:42:05.999Z</time></trkpt><trkpt lat="40.789183885142656" lon="17.395717489082543"><ele>216.59999999999997</ele><time>2026-03-30T14:42:06.999Z</time></trkpt><trkpt lat="40.78918216057506" lon="17.395854999507012"><ele>215.4</ele><time>2026-03-30T14:42:07.999Z</time></trkpt><trkpt lat="40.78918052220896" lon="17.39598563636722"><ele>214.2</ele><time>2026-03-30T14:42:08.999Z</time></trkpt><trkpt lat="40.7891784133769" lon="17.396135045759344"><ele>213.0</ele><time>2026-03-30T14:42:09.999Z</time></trkpt><trkpt lat="40.7891761140193" lon="17.396276588147774"><ele>212.66666666666666</ele><time>2026-03-30T14:42:10.999Z</time></trkpt><trkpt lat="40.78917427778769" lon="17.39638962147808"><ele>212.33333333333331</ele><time>2026-03-30T14:42:11.999Z</time></trkpt><trkpt lat="40.78917180883717" lon="17.396506581195606"><ele>212.0</ele><time>2026-03-30T14:42:12.999Z</time></trkpt><trkpt lat="40.78916915815989" lon="17.396609411896204"><ele>211.66666666666666</ele><time>2026-03-30T14:42:13.999Z</time></trkpt><trkpt lat="40.7891666448465" lon="17.396706913544005"><ele>211.33333333333331</ele><time>2026-03-30T14:42:14.999Z</time></trkpt><trkpt lat="40.78916405893941" lon="17.396807231580663"><ele>211.0</ele><time>2026-03-30T14:42:15.999Z</time></trkpt><trkpt lat="40.789159236449926" lon="17.396918897943554"><ele>210.99999999999997</ele><time>2026-03-30T14:42:17.999Z</time></trkpt><trkpt lat="40.78913628353061" lon="17.397041364610732"><ele>211.0</ele><time>2026-03-30T14:42:24.999Z</time></trkpt><trkpt lat="40.78913201414409" lon="17.39712493230545"><ele>211.0</ele><time>2026-03-30T14:42:27.999Z</time></trkpt><trkpt lat="40.78912603999319" lon="17.397241868520894"><ele>211.0</ele><time>2026-03-30T14:42:29.999Z</time></trkpt><trkpt lat="40.78911996354234" lon="17.39736080711978"><ele>210.99999999999997</ele><time>2026-03-30T14:42:31.999Z</time></trkpt><trkpt lat="40.7890506852648" lon="17.397423786421275"><ele>211.0</ele><time>2026-03-30T14:42:32.999Z</time></trkpt><trkpt lat="40.78902813024157" lon="17.397573742734973"><ele>210.83333333333331</ele><time>2026-03-30T14:42:34.998Z</time></trkpt><trkpt lat="40.788996082102" lon="17.39770467689383"><ele>210.66666666666666</ele><time>2026-03-30T14:42:36.998Z</time></trkpt><trkpt lat="40.788945276997644" lon="17.39778563570489"><ele>210.5</ele><time>2026-03-30T14:42:38.998Z</time></trkpt><trkpt lat="40.78891067451368" lon="17.397860368987946"><ele>210.33333333333331</ele><time>2026-03-30T14:42:40.998Z</time></trkpt><trkpt lat="40.78892313849932" lon="17.397943504896766"><ele>210.16666666666666</ele><time>2026-03-30T14:42:43.998Z</time></trkpt><trkpt lat="40.78891032388602" lon="17.398050696153806"><ele>210.0</ele><time>2026-03-30T14:42:45.998Z</time></trkpt><trkpt lat="40.78885613412501" lon="17.398132158938527"><ele>210.0</ele><time>2026-03-30T14:42:47.998Z</time></trkpt><trkpt lat="40.78884188316939" lon="17.398247119275254"><ele>210.0</ele><time>2026-03-30T14:42:49.998Z</time></trkpt><trkpt lat="40.78883988188095" lon="17.39839662926988"><ele>210.0</ele><time>2026-03-30T14:42:51.998Z</time></trkpt><trkpt lat="40.788827527218146" lon="17.3984994810029"><ele>210.0</ele><time>2026-03-30T14:42:52.998Z</time></trkpt><trkpt lat="40.78881244524755" lon="17.398581159243225"><ele>210.0</ele><time>2026-03-30T14:42:53.998Z</time></trkpt><trkpt lat="40.788801530703466" lon="17.398695045311698"><ele>210.0</ele><time>2026-03-30T14:42:55.998Z</time></trkpt><trkpt lat="40.78880046136833" lon="17.398820530974024"><ele>209.33333333333334</ele><time>2026-03-30T14:42:57.998Z</time></trkpt><trkpt lat="40.7887641865758" lon="17.398918250954193"><ele>208.66666666666669</ele><time>2026-03-30T14:42:59.998Z</time></trkpt><trkpt lat="40.78874336020753" lon="17.39903103283259"><ele>208.0</ele><time>2026-03-30T14:43:03.998Z</time></trkpt><trkpt lat="40.788776938461616" lon="17.399114323432954"><ele>207.33333333333334</ele><time>2026-03-30T14:43:06.998Z</time></trkpt><trkpt lat="40.78880717224134" lon="17.399224174073936"><ele>206.66666666666669</ele><time>2026-03-30T14:43:09Z</time></trkpt><trkpt lat="40.7887891146127" lon="17.39933827613291"><ele>206.0</ele><time>2026-03-30T14:43:11Z</time></trkpt><trkpt lat="40.788769170964045" lon="17.399464066783192"><ele>206.0</ele><time>2026-03-30T14:43:13Z</time></trkpt><trkpt lat="40.78874651784707" lon="17.399605972273942"><ele>206.0</ele><time>2026-03-30T14:43:15Z</time></trkpt><trkpt lat="40.78872953363911" lon="17.39969174843732"><ele>206.0</ele><time>2026-03-30T14:43:16Z</time></trkpt><trkpt lat="40.788682465751286" lon="17.399843824677554"><ele>206.0</ele><time>2026-03-30T14:43:18Z</time></trkpt><trkpt lat="40.7886310418971" lon="17.399980630348036"><ele>206.0</ele><time>2026-03-30T14:43:20Z</time></trkpt><trkpt lat="40.788588795418555" lon="17.40005120683259"><ele>205.4</ele><time>2026-03-30T14:43:21Z</time></trkpt><trkpt lat="40.7885662230173" lon="17.400180967541832"><ele>204.8</ele><time>2026-03-30T14:43:23Z</time></trkpt><trkpt lat="40.78854198426815" lon="17.400269724505616"><ele>204.20000000000002</ele><time>2026-03-30T14:43:24Z</time></trkpt><trkpt lat="40.78848702660871" lon="17.400393541070706"><ele>203.60000000000002</ele><time>2026-03-30T14:43:26Z</time></trkpt><trkpt lat="40.78843161629679" lon="17.400534822557965"><ele>203.0</ele><time>2026-03-30T14:43:28Z</time></trkpt><trkpt lat="40.78839675758693" lon="17.400649524556236"><ele>205.4</ele><time>2026-03-30T14:43:30Z</time></trkpt><trkpt lat="40.78835133449055" lon="17.400760170126315"><ele>207.8</ele><time>2026-03-30T14:43:33Z</time></trkpt><trkpt lat="40.788302154664294" lon="17.400865156552907"><ele>210.2</ele><time>2026-03-30T14:43:35Z</time></trkpt><trkpt lat="40.788253829600166" lon="17.40092311725802"><ele>212.6</ele><time>2026-03-30T14:43:37Z</time></trkpt><trkpt lat="40.78821050236079" lon="17.40102327783463"><ele>215.0</ele><time>2026-03-30T14:43:39Z</time></trkpt><trkpt lat="40.788180126886296" lon="17.401169471396425"><ele>215.0</ele><time>2026-03-30T14:43:41Z</time></trkpt><trkpt lat="40.788140196478615" lon="17.401301245044937"><ele>215.0</ele><time>2026-03-30T14:43:43Z</time></trkpt><trkpt lat="40.788096097536595" lon="17.4014037517021"><ele>215.0</ele><time>2026-03-30T14:43:46Z</time></trkpt><trkpt lat="40.78802819696427" lon="17.401450016453254"><ele>215.0</ele><time>2026-03-30T14:43:48Z</time></trkpt><trkpt lat="40.787949051461545" lon="17.401487706071638"><ele>215.0</ele><time>2026-03-30T14:43:49.999Z</time></trkpt><trkpt lat="40.787873673752685" lon="17.401593361851425"><ele>213.6</ele><time>2026-03-30T14:43:52.999Z</time></trkpt><trkpt lat="40.78781136267651" lon="17.401711141587466"><ele>212.2</ele><time>2026-03-30T14:43:54.999Z</time></trkpt><trkpt lat="40.78773361663773" lon="17.40181787165829"><ele>210.8</ele><time>2026-03-30T14:43:56.999Z</time></trkpt><trkpt lat="40.78765137180597" lon="17.4019541612454"><ele>209.4</ele><time>2026-03-30T14:43:58.999Z</time></trkpt><trkpt lat="40.78761641352646" lon="17.40202515708836"><ele>208.0</ele><time>2026-03-30T14:43:59.999Z</time></trkpt><trkpt lat="40.78757590996923" lon="17.402089843455208"><ele>209.66666666666666</ele><time>2026-03-30T14:44:00.999Z</time></trkpt><trkpt lat="40.787489546179714" lon="17.402196663690347"><ele>211.33333333333331</ele><time>2026-03-30T14:44:02.999Z</time></trkpt><trkpt lat="40.78742389346166" lon="17.402251718630236"><ele>213.0</ele><time>2026-03-30T14:44:04.999Z</time></trkpt><trkpt lat="40.787386824139084" lon="17.402336080426036"><ele>214.66666666666669</ele><time>2026-03-30T14:44:07.999Z</time></trkpt><trkpt lat="40.787363108150615" lon="17.402445171648175"><ele>216.33333333333334</ele><time>2026-03-30T14:44:10.999Z</time></trkpt><trkpt lat="40.78733217476891" lon="17.40252887316659"><ele>218.0</ele><time>2026-03-30T14:44:12.999Z</time></trkpt><trkpt lat="40.78730647970379" lon="17.402622028880405"><ele>218.00000000000003</ele><time>2026-03-30T14:44:14.999Z</time></trkpt><trkpt lat="40.787271879997874" lon="17.40272920804868"><ele>218.0</ele><time>2026-03-30T14:44:17.999Z</time></trkpt><trkpt lat="40.78724029806829" lon="17.402818912543733"><ele>218.0</ele><time>2026-03-30T14:44:21.999Z</time></trkpt><trkpt lat="40.78721881814005" lon="17.402934926988227"><ele>218.0</ele><time>2026-03-30T14:44:25.999Z</time></trkpt><trkpt lat="40.7871871894075" lon="17.403036371815503"><ele>218.00000000000003</ele><time>2026-03-30T14:44:29.999Z</time></trkpt><trkpt lat="40.78715788636949" lon="17.403113578899493"><ele>218.0</ele><time>2026-03-30T14:44:32.999Z</time></trkpt><trkpt lat="40.7871325601565" lon="17.403191524727752"><ele>217.57142857142858</ele><time>2026-03-30T14:44:34.999Z</time></trkpt><trkpt lat="40.78709240629314" lon="17.403272146001306"><ele>217.14285714285717</ele><time>2026-03-30T14:44:37.999Z</time></trkpt><trkpt lat="40.78702496339542" lon="17.403317448969883"><ele>216.71428571428572</ele><time>2026-03-30T14:44:40.998Z</time></trkpt><trkpt lat="40.78695835185848" lon="17.403328552258696"><ele>216.28571428571428</ele><time>2026-03-30T14:44:42.998Z</time></trkpt><trkpt lat="40.78689433895103" lon="17.403310420652694"><ele>215.85714285714286</ele><time>2026-03-30T14:44:45.998Z</time></trkpt><trkpt lat="40.78683266742886" lon="17.40328483284534"><ele>215.42857142857142</ele><time>2026-03-30T14:44:47.998Z</time></trkpt><trkpt lat="40.78674481383594" lon="17.40332059544102"><ele>215.0</ele><time>2026-03-30T14:44:50.998Z</time></trkpt><trkpt lat="40.78665021781325" lon="17.403359546694485"><ele>218.0</ele><time>2026-03-30T14:44:52.998Z</time></trkpt><trkpt lat="40.78657863970449" lon="17.403368900544216"><ele>221.0</ele><time>2026-03-30T14:44:54.998Z</time></trkpt><trkpt lat="40.78648345454491" lon="17.40345458473164"><ele>224.0</ele><time>2026-03-30T14:44:57.998Z</time></trkpt><trkpt lat="40.786435640838675" lon="17.403579331736978"><ele>227.0</ele><time>2026-03-30T14:45:00.998Z</time></trkpt><trkpt lat="40.786298895048574" lon="17.4037116243567"><ele>226.0</ele><time>2026-03-30T14:45:01.998Z</time></trkpt><trkpt lat="40.78624499580884" lon="17.40384453496906"><ele>225.0</ele><time>2026-03-30T14:45:03.998Z</time></trkpt><trkpt lat="40.78620236519272" lon="17.40393996692384"><ele>224.0</ele><time>2026-03-30T14:45:05.998Z</time></trkpt><trkpt lat="40.78616336265833" lon="17.40400750114829"><ele>223.0</ele><time>2026-03-30T14:45:08.998Z</time></trkpt><trkpt lat="40.786088031144835" lon="17.40415536115017"><ele>222.0</ele><time>2026-03-30T14:45:22Z</time></trkpt><trkpt lat="40.78604054056001" lon="17.404232990340187"><ele>221.6</ele><time>2026-03-30T14:45:26Z</time></trkpt><trkpt lat="40.78600075096927" lon="17.404315322358983"><ele>221.2</ele><time>2026-03-30T14:45:30Z</time></trkpt><trkpt lat="40.78597442334238" lon="17.404427084914463"><ele>220.8</ele><time>2026-03-30T14:45:33Z</time></trkpt><trkpt lat="40.78600338621766" lon="17.404534963319296"><ele>220.4</ele><time>2026-03-30T14:45:36Z</time></trkpt><trkpt lat="40.786038155493166" lon="17.40470802758646"><ele>220.0</ele><time>2026-03-30T14:45:37Z</time></trkpt><trkpt lat="40.78606757014334" lon="17.404789037604072"><ele>220.0</ele><time>2026-03-30T14:45:38Z</time></trkpt><trkpt lat="40.78608650606055" lon="17.404870241768112"><ele>220.0</ele><time>2026-03-30T14:45:39Z</time></trkpt><trkpt lat="40.786100147186986" lon="17.40502973859732"><ele>220.0</ele><time>2026-03-30T14:45:41Z</time></trkpt><trkpt lat="40.7860803231725" lon="17.40512503751804"><ele>220.0</ele><time>2026-03-30T14:45:42Z</time></trkpt><trkpt lat="40.786057469933745" lon="17.405278658808022"><ele>220.0</ele><time>2026-03-30T14:45:44Z</time></trkpt><trkpt lat="40.78598903176382" lon="17.40539521570572"><ele>221.0</ele><time>2026-03-30T14:45:46Z</time></trkpt><trkpt lat="40.78592943096671" lon="17.405473795965705"><ele>222.0</ele><time>2026-03-30T14:45:48Z</time></trkpt><trkpt lat="40.785975930192016" lon="17.405590449166972"><ele>223.0</ele><time>2026-03-30T14:45:50Z</time></trkpt><trkpt lat="40.78592655099985" lon="17.405668414495867"><ele>224.0</ele><time>2026-03-30T14:45:52Z</time></trkpt><trkpt lat="40.78590528471214" lon="17.405787864838413"><ele>225.0</ele><time>2026-03-30T14:45:54Z</time></trkpt><trkpt lat="40.785904772082745" lon="17.405918368520034"><ele>225.0</ele><time>2026-03-30T14:45:56.999Z</time></trkpt><trkpt lat="40.785919567666035" lon="17.406060113698572"><ele>225.0</ele><time>2026-03-30T14:45:58.999Z</time></trkpt><trkpt lat="40.78592236994838" lon="17.406182243449923"><ele>225.0</ele><time>2026-03-30T14:46:00.999Z</time></trkpt><trkpt lat="40.785903889420425" lon="17.40633865152722"><ele>225.0</ele><time>2026-03-30T14:46:02.999Z</time></trkpt><trkpt lat="40.785913363797654" lon="17.406433074688298"><ele>225.0</ele><time>2026-03-30T14:46:04.999Z</time></trkpt><trkpt lat="40.78598507102652" lon="17.406464879427407"><ele>223.33333333333334</ele><time>2026-03-30T14:46:07.999Z</time></trkpt><trkpt lat="40.78606573309343" lon="17.4064640435425"><ele>221.66666666666669</ele><time>2026-03-30T14:46:10.999Z</time></trkpt><trkpt lat="40.78614442539754" lon="17.40644483719423"><ele>220.0</ele><time>2026-03-30T14:46:13.999Z</time></trkpt><trkpt lat="40.786227220133306" lon="17.40645994339303"><ele>218.33333333333334</ele><time>2026-03-30T14:46:16.999Z</time></trkpt><trkpt lat="40.78630596908933" lon="17.406510893977806"><ele>216.66666666666669</ele><time>2026-03-30T14:46:18.999Z</time></trkpt><trkpt lat="40.786409318338265" lon="17.40656464509266"><ele>215.0</ele><time>2026-03-30T14:46:20.999Z</time></trkpt><trkpt lat="40.786531274661364" lon="17.406618587227495"><ele>215.00000000000003</ele><time>2026-03-30T14:46:22.999Z</time></trkpt><trkpt lat="40.786599419364165" lon="17.406651068902935"><ele>215.0</ele><time>2026-03-30T14:46:23.999Z</time></trkpt><trkpt lat="40.78666487141437" lon="17.406710653332496"><ele>215.0</ele><time>2026-03-30T14:46:24.999Z</time></trkpt><trkpt lat="40.78673019552703" lon="17.40676900446415"><ele>215.0</ele><time>2026-03-30T14:46:25.999Z</time></trkpt><trkpt lat="40.786798416440675" lon="17.406804880504353"><ele>215.00000000000003</ele><time>2026-03-30T14:46:26.999Z</time></trkpt><trkpt lat="40.7868911276622" lon="17.406810438619242"><ele>215.0</ele><time>2026-03-30T14:46:27.999Z</time></trkpt><trkpt lat="40.78697168929947" lon="17.406797496756763"><ele>213.83333333333334</ele><time>2026-03-30T14:46:28.999Z</time></trkpt><trkpt lat="40.78705686461119" lon="17.4067815449532"><ele>212.66666666666669</ele><time>2026-03-30T14:46:29.999Z</time></trkpt><trkpt lat="40.7871398921346" lon="17.406794819989933"><ele>211.5</ele><time>2026-03-30T14:46:30.999Z</time></trkpt><trkpt lat="40.78721645803318" lon="17.406866911200485"><ele>210.33333333333331</ele><time>2026-03-30T14:46:31.999Z</time></trkpt><trkpt lat="40.78727851754865" lon="17.406934372995874"><ele>209.16666666666666</ele><time>2026-03-30T14:46:32.999Z</time></trkpt><trkpt lat="40.78733863125626" lon="17.407018517251558"><ele>208.0</ele><time>2026-03-30T14:46:33.999Z</time></trkpt><trkpt lat="40.78739542920993" lon="17.40707146884785"><ele>207.99999999999997</ele><time>2026-03-30T14:46:34.999Z</time></trkpt><trkpt lat="40.78746244788712" lon="17.407080212988443"><ele>208.0</ele><time>2026-03-30T14:46:35.999Z</time></trkpt><trkpt lat="40.78752040709215" lon="17.40702718511002"><ele>208.0</ele><time>2026-03-30T14:46:37.999Z</time></trkpt><trkpt lat="40.78746741545867" lon="17.40692463803135"><ele>208.0</ele><time>2026-03-30T14:46:41.999Z</time></trkpt><trkpt lat="40.78738973403928" lon="17.406909211341436"><ele>207.99999999999997</ele><time>2026-03-30T14:46:43.999Z</time></trkpt><trkpt lat="40.78733030841229" lon="17.406852477982532"><ele>208.0</ele><time>2026-03-30T14:46:45.998Z</time></trkpt><trkpt lat="40.78726193249199" lon="17.40687517417043"><ele>207.99999999999997</ele><time>2026-03-30T14:46:47.998Z</time></trkpt><trkpt lat="40.78725685755722" lon="17.40696546025029"><ele>208.0</ele><time>2026-03-30T14:46:49.998Z</time></trkpt><trkpt lat="40.78736042588333" lon="17.407032415836124"><ele>208.0</ele><time>2026-03-30T14:46:51.998Z</time></trkpt><trkpt lat="40.78742563366311" lon="17.40705520693057"><ele>208.0</ele><time>2026-03-30T14:46:52.998Z</time></trkpt><trkpt lat="40.78750525158279" lon="17.407096797843028"><ele>207.99999999999997</ele><time>2026-03-30T14:46:53.998Z</time></trkpt><trkpt lat="40.78755664179121" lon="17.407151780544066"><ele>208.0</ele><time>2026-03-30T14:46:54.998Z</time></trkpt><trkpt lat="40.78761672173424" lon="17.40720664120419"><ele>207.66666666666666</ele><time>2026-03-30T14:46:55.998Z</time></trkpt><trkpt lat="40.78768001068331" lon="17.407271875464037"><ele>207.33333333333331</ele><time>2026-03-30T14:46:57.998Z</time></trkpt><trkpt lat="40.78764486322229" lon="17.407379092436233"><ele>207.0</ele><time>2026-03-30T14:46:59.998Z</time></trkpt><trkpt lat="40.787588220573355" lon="17.40748823386281"><ele>206.66666666666669</ele><time>2026-03-30T14:47:01.998Z</time></trkpt><trkpt lat="40.78753881069896" lon="17.407572912266257"><ele>206.33333333333334</ele><time>2026-03-30T14:47:03.998Z</time></trkpt><trkpt lat="40.78747429649497" lon="17.407665735079778"><ele>206.0</ele><time>2026-03-30T14:47:05.998Z</time></trkpt><trkpt lat="40.78743560468878" lon="17.407748124175043"><ele>206.0</ele><time>2026-03-30T14:47:08.998Z</time></trkpt><trkpt lat="40.78745387854206" lon="17.40789834033025"><ele>206.0</ele><time>2026-03-30T14:47:11.998Z</time></trkpt><trkpt lat="40.78748720213834" lon="17.40802156610303"><ele>206.0</ele><time>2026-03-30T14:47:13.998Z</time></trkpt><trkpt lat="40.787506426146095" lon="17.40815027313974"><ele>206.0</ele><time>2026-03-30T14:47:15.998Z</time></trkpt><trkpt lat="40.78754122222887" lon="17.408290954035447"><ele>206.0</ele><time>2026-03-30T14:47:17.998Z</time></trkpt><trkpt lat="40.78757966347592" lon="17.408442884847048"><ele>205.4</ele><time>2026-03-30T14:47:20Z</time></trkpt><trkpt lat="40.78761458668021" lon="17.408606377162062"><ele>204.8</ele><time>2026-03-30T14:47:22Z</time></trkpt><trkpt lat="40.78764414715389" lon="17.40875937874864"><ele>204.20000000000002</ele><time>2026-03-30T14:47:24Z</time></trkpt><trkpt lat="40.78766486707271" lon="17.408857559558875"><ele>203.60000000000002</ele><time>2026-03-30T14:47:26Z</time></trkpt><trkpt lat="40.78771925179259" lon="17.408903998896214"><ele>203.0</ele><time>2026-03-30T14:47:30Z</time></trkpt><trkpt lat="40.78777341965891" lon="17.40883381934548"><ele>201.0</ele><time>2026-03-30T14:47:32Z</time></trkpt><trkpt lat="40.78781486743448" lon="17.408734315130726"><ele>199.0</ele><time>2026-03-30T14:47:34Z</time></trkpt><trkpt lat="40.787862819894286" lon="17.408588365192124"><ele>197.0</ele><time>2026-03-30T14:47:36Z</time></trkpt><trkpt lat="40.787974004141866" lon="17.408473318180558"><ele>195.0</ele><time>2026-03-30T14:47:38Z</time></trkpt><trkpt lat="40.788038140384934" lon="17.408456953051683"><ele>193.0</ele><time>2026-03-30T14:47:39Z</time></trkpt><trkpt lat="40.78809195354707" lon="17.40840439295569"><ele>193.0</ele><time>2026-03-30T14:47:40Z</time></trkpt><trkpt lat="40.78815165823737" lon="17.4083424052501"><ele>193.0</ele><time>2026-03-30T14:47:41Z</time></trkpt><trkpt lat="40.78820992112419" lon="17.408298471011957"><ele>193.0</ele><time>2026-03-30T14:47:42Z</time></trkpt><trkpt lat="40.78828169268456" lon="17.408293007136567"><ele>193.0</ele><time>2026-03-30T14:47:43Z</time></trkpt><trkpt lat="40.78838108976415" lon="17.408173406302527"><ele>193.0</ele><time>2026-03-30T14:47:45Z</time></trkpt><trkpt lat="40.78846311323255" lon="17.408059041332685"><ele>192.5</ele><time>2026-03-30T14:47:47Z</time></trkpt><trkpt lat="40.78854120121528" lon="17.407942401790493"><ele>192.0</ele><time>2026-03-30T14:47:49Z</time></trkpt><trkpt lat="40.78861406879191" lon="17.40783216752715"><ele>191.5</ele><time>2026-03-30T14:47:51Z</time></trkpt><trkpt lat="40.78869539964768" lon="17.40775022178339"><ele>191.0</ele><time>2026-03-30T14:47:53Z</time></trkpt><trkpt lat="40.788826343438615" lon="17.40772229124323"><ele>191.0</ele><time>2026-03-30T14:47:55Z</time></trkpt><trkpt lat="40.788918936580835" lon="17.407703785244685"><ele>191.0</ele><time>2026-03-30T14:47:57Z</time></trkpt><trkpt lat="40.78897391477672" lon="17.407644259708903"><ele>191.0</ele><time>2026-03-30T14:47:58Z</time></trkpt><trkpt lat="40.78907361682199" lon="17.407635460313163"><ele>191.0</ele><time>2026-03-30T14:47:59.999Z</time></trkpt><trkpt lat="40.78919895155864" lon="17.40768135398229"><ele>191.0</ele><time>2026-03-30T14:48:01.999Z</time></trkpt><trkpt lat="40.78925543860817" lon="17.40772284709805"><ele>189.5</ele><time>2026-03-30T14:48:02.999Z</time></trkpt><trkpt lat="40.78937187287455" lon="17.407730908966293"><ele>188.0</ele><time>2026-03-30T14:48:04.999Z</time></trkpt><trkpt lat="40.78943582865678" lon="17.4077781768387"><ele>186.5</ele><time>2026-03-30T14:48:15.999Z</time></trkpt><trkpt lat="40.78947891314525" lon="17.40770141791397"><ele>185.0</ele><time>2026-03-30T14:48:20.999Z</time></trkpt><trkpt lat="40.789486439010155" lon="17.40760161206255"><ele>183.5</ele><time>2026-03-30T14:48:22.999Z</time></trkpt><trkpt lat="40.789469324237956" lon="17.40748740702789"><ele>182.0</ele><time>2026-03-30T14:48:24.999Z</time></trkpt><trkpt lat="40.7894195551186" lon="17.407363201785035"><ele>182.0</ele><time>2026-03-30T14:48:26.999Z</time></trkpt><trkpt lat="40.78936061343391" lon="17.40724504594505"><ele>182.0</ele><time>2026-03-30T14:48:28.999Z</time></trkpt><trkpt lat="40.789313508415" lon="17.407186456017556"><ele>182.0</ele><time>2026-03-30T14:48:29.999Z</time></trkpt><trkpt lat="40.78925673360672" lon="17.407142699577918"><ele>182.0</ele><time>2026-03-30T14:48:30.999Z</time></trkpt><trkpt lat="40.789199817371134" lon="17.40710534716513"><ele>182.0</ele><time>2026-03-30T14:48:31.999Z</time></trkpt><trkpt lat="40.78909267018321" lon="17.407058429229195"><ele>182.0</ele><time>2026-03-30T14:48:33.999Z</time></trkpt><trkpt lat="40.78902894272576" lon="17.406969572257996"><ele>184.0</ele><time>2026-03-30T14:48:35.999Z</time></trkpt><trkpt lat="40.78896218706745" lon="17.406820139053075"><ele>186.0</ele><time>2026-03-30T14:48:37.999Z</time></trkpt><trkpt lat="40.78893548110807" lon="17.406744099744895"><ele>188.0</ele><time>2026-03-30T14:48:38.999Z</time></trkpt><trkpt lat="40.78889722623906" lon="17.40666466971856"><ele>190.0</ele><time>2026-03-30T14:48:39.999Z</time></trkpt><trkpt lat="40.788821839224255" lon="17.406560500562254"><ele>192.0</ele><time>2026-03-30T14:48:41.999Z</time></trkpt><trkpt lat="40.788711125418445" lon="17.406478960466245"><ele>192.0</ele><time>2026-03-30T14:48:43.999Z</time></trkpt><trkpt lat="40.7886020666738" lon="17.406418739799946"><ele>192.0</ele><time>2026-03-30T14:48:45.999Z</time></trkpt><trkpt lat="40.78849912873269" lon="17.40638503601189"><ele>192.0</ele><time>2026-03-30T14:48:47.999Z</time></trkpt><trkpt lat="40.788415710140995" lon="17.406282391784202"><ele>192.0</ele><time>2026-03-30T14:48:49.998Z</time></trkpt><trkpt lat="40.788351723943784" lon="17.40618108992631"><ele>192.0</ele><time>2026-03-30T14:48:51.998Z</time></trkpt><trkpt lat="40.78829283544209" lon="17.406104119403935"><ele>193.6</ele><time>2026-03-30T14:48:53.998Z</time></trkpt><trkpt lat="40.7882581683201" lon="17.40598807602115"><ele>195.2</ele><time>2026-03-30T14:48:55.998Z</time></trkpt><trkpt lat="40.78822309822826" lon="17.40587324784203"><ele>196.8</ele><time>2026-03-30T14:48:57.998Z</time></trkpt><trkpt lat="40.78815670059238" lon="17.405770557624454"><ele>198.4</ele><time>2026-03-30T14:48:59.998Z</time></trkpt><trkpt lat="40.78810329386907" lon="17.40565782173338"><ele>200.0</ele><time>2026-03-30T14:49:01.998Z</time></trkpt><trkpt lat="40.78805231302261" lon="17.40555051338397"><ele>200.33333333333334</ele><time>2026-03-30T14:49:03.998Z</time></trkpt><trkpt lat="40.78804510561808" lon="17.405439411918554"><ele>200.66666666666669</ele><time>2026-03-30T14:49:05.998Z</time></trkpt><trkpt lat="40.788052828824085" lon="17.405333086682298"><ele>201.0</ele><time>2026-03-30T14:49:07.998Z</time></trkpt><trkpt lat="40.78803906634975" lon="17.405230833654947"><ele>201.33333333333331</ele><time>2026-03-30T14:49:09.998Z</time></trkpt><trkpt lat="40.788048432330974" lon="17.405145477121895"><ele>201.66666666666666</ele><time>2026-03-30T14:49:11.998Z</time></trkpt><trkpt lat="40.78804946865869" lon="17.40504653094036"><ele>202.0</ele><time>2026-03-30T14:49:13.998Z</time></trkpt><trkpt lat="40.788062202562145" lon="17.40493725448177"><ele>202.0</ele><time>2026-03-30T14:49:15.998Z</time></trkpt><trkpt lat="40.7880749520384" lon="17.404814814240897"><ele>202.0</ele><time>2026-03-30T14:49:17.998Z</time></trkpt><trkpt lat="40.78812186723005" lon="17.40470612039911"><ele>202.0</ele><time>2026-03-30T14:49:19.998Z</time></trkpt><trkpt lat="40.78813227762153" lon="17.404576999012704"><ele>202.0</ele><time>2026-03-30T14:49:21.998Z</time></trkpt><trkpt lat="40.78815330713948" lon="17.40448314754257"><ele>202.0</ele><time>2026-03-30T14:49:23.998Z</time></trkpt><trkpt lat="40.788217826318835" lon="17.4043953604639"><ele>202.16666666666666</ele><time>2026-03-30T14:49:26Z</time></trkpt><trkpt lat="40.78824336107247" lon="17.404295027931482"><ele>202.33333333333331</ele><time>2026-03-30T14:49:28Z</time></trkpt><trkpt lat="40.788244823848075" lon="17.404177928895113"><ele>202.5</ele><time>2026-03-30T14:49:30Z</time></trkpt><trkpt lat="40.788296464293424" lon="17.404088681376706"><ele>202.66666666666669</ele><time>2026-03-30T14:49:32Z</time></trkpt><trkpt lat="40.78833041182827" lon="17.404009446834863"><ele>202.83333333333334</ele><time>2026-03-30T14:49:34Z</time></trkpt><trkpt lat="40.788379121126184" lon="17.403887476931427"><ele>203.0</ele><time>2026-03-30T14:49:36Z</time></trkpt><trkpt lat="40.78843236324249" lon="17.403736987337336"><ele>203.2</ele><time>2026-03-30T14:49:38Z</time></trkpt><trkpt lat="40.788493698277065" lon="17.403598344854434"><ele>203.4</ele><time>2026-03-30T14:49:40Z</time></trkpt><trkpt lat="40.78850067165509" lon="17.403465524315674"><ele>203.6</ele><time>2026-03-30T14:49:42Z</time></trkpt><trkpt lat="40.788437376764946" lon="17.403340367691012"><ele>203.79999999999998</ele><time>2026-03-30T14:49:44Z</time></trkpt><trkpt lat="40.788366219789424" lon="17.403237752840425"><ele>204.0</ele><time>2026-03-30T14:49:46Z</time></trkpt><trkpt lat="40.788344577452285" lon="17.40311980139051"><ele>204.0</ele><time>2026-03-30T14:49:48Z</time></trkpt><trkpt lat="40.7883729483767" lon="17.403004191162868"><ele>204.0</ele><time>2026-03-30T14:49:50Z</time></trkpt><trkpt lat="40.788407021517614" lon="17.402887874347506"><ele>204.0</ele><time>2026-03-30T14:49:52Z</time></trkpt><trkpt lat="40.788437507063094" lon="17.40276643379056"><ele>204.0</ele><time>2026-03-30T14:49:54Z</time></trkpt><trkpt lat="40.788445958450026" lon="17.40266952306559"><ele>204.0</ele><time>2026-03-30T14:49:56Z</time></trkpt><trkpt lat="40.78842956373301" lon="17.402583475747587"><ele>204.0</ele><time>2026-03-30T14:49:58Z</time></trkpt><trkpt lat="40.78842528689773" lon="17.402481721953446"><ele>204.16666666666666</ele><time>2026-03-30T14:50:01Z</time></trkpt><trkpt lat="40.7884486366581" lon="17.402400370132494"><ele>204.33333333333331</ele><time>2026-03-30T14:50:04Z</time></trkpt><trkpt lat="40.78844302185906" lon="17.40249841863188"><ele>204.5</ele><time>2026-03-30T14:50:18.999Z</time></trkpt><trkpt lat="40.788431868107224" lon="17.402603818206718"><ele>204.66666666666666</ele><time>2026-03-30T14:50:21.999Z</time></trkpt><trkpt lat="40.78844397025377" lon="17.402710685149223"><ele>204.83333333333331</ele><time>2026-03-30T14:50:23.999Z</time></trkpt><trkpt lat="40.788429700424" lon="17.402813889197372"><ele>205.0</ele><time>2026-03-30T14:50:25.999Z</time></trkpt><trkpt lat="40.78836544318942" lon="17.402859986405435"><ele>204.99999999999997</ele><time>2026-03-30T14:50:29.999Z</time></trkpt><trkpt lat="40.78829167426485" lon="17.40285157010819"><ele>205.0</ele><time>2026-03-30T14:50:32.999Z</time></trkpt><trkpt lat="40.78828885410537" lon="17.402746890119804"><ele>205.0</ele><time>2026-03-30T14:50:36.999Z</time></trkpt><trkpt lat="40.78822182745084" lon="17.402660574735133"><ele>205.0</ele><time>2026-03-30T14:50:39.999Z</time></trkpt><trkpt lat="40.78814344220132" lon="17.40260140446498"><ele>204.99999999999997</ele><time>2026-03-30T14:50:42.999Z</time></trkpt><trkpt lat="40.78805207790813" lon="17.402613542451355"><ele>205.0</ele><time>2026-03-30T14:50:45.999Z</time></trkpt><trkpt lat="40.787960388804294" lon="17.402625057313184"><ele>204.99999999999997</ele><time>2026-03-30T14:50:48.999Z</time></trkpt><trkpt lat="40.787895537532805" lon="17.40259899822774"><ele>205.0</ele><time>2026-03-30T14:50:50.999Z</time></trkpt><trkpt lat="40.78783236849504" lon="17.402630741087535"><ele>205.0</ele><time>2026-03-30T14:50:52.999Z</time></trkpt><trkpt lat="40.78774311930989" lon="17.402631418051858"><ele>205.0</ele><time>2026-03-30T14:50:55.998Z</time></trkpt><trkpt lat="40.78767727896882" lon="17.402619761466983"><ele>204.99999999999997</ele><time>2026-03-30T14:50:58.998Z</time></trkpt><trkpt lat="40.78763131004875" lon="17.402547351885406"><ele>205.0</ele><time>2026-03-30T14:51:01.998Z</time></trkpt><trkpt lat="40.78757057205684" lon="17.402430057346137"><ele>207.16666666666666</ele><time>2026-03-30T14:51:04.998Z</time></trkpt><trkpt lat="40.78749399169849" lon="17.40235035105507"><ele>209.33333333333331</ele><time>2026-03-30T14:51:06.998Z</time></trkpt><trkpt lat="40.787412845663184" lon="17.402371030161074"><ele>211.5</ele><time>2026-03-30T14:51:10.998Z</time></trkpt><trkpt lat="40.787420573376195" lon="17.40227135803886"><ele>213.66666666666669</ele><time>2026-03-30T14:51:15.998Z</time></trkpt><trkpt lat="40.78748105784739" lon="17.40221635644948"><ele>215.83333333333334</ele><time>2026-03-30T14:51:18.998Z</time></trkpt><trkpt lat="40.78754061232736" lon="17.4021449317813"><ele>218.0</ele><time>2026-03-30T14:51:23.998Z</time></trkpt><trkpt lat="40.78760604582739" lon="17.402070086116435"><ele>219.8</ele><time>2026-03-30T14:51:26.998Z</time></trkpt><trkpt lat="40.78765340621198" lon="17.40200232248643"><ele>221.60000000000002</ele><time>2026-03-30T14:51:29.998Z</time></trkpt><trkpt lat="40.78769260226923" lon="17.40190496797802"><ele>223.39999999999998</ele><time>2026-03-30T14:51:33Z</time></trkpt><trkpt lat="40.78776126193571" lon="17.40180520406918"><ele>225.2</ele><time>2026-03-30T14:51:35Z</time></trkpt><trkpt lat="40.78783828931946" lon="17.40169469238251"><ele>227.0</ele><time>2026-03-30T14:51:37Z</time></trkpt><trkpt lat="40.787893256140585" lon="17.40160316686405"><ele>225.00000000000003</ele><time>2026-03-30T14:51:39Z</time></trkpt><trkpt lat="40.787933612029846" lon="17.401514173425277"><ele>223.0</ele><time>2026-03-30T14:51:42Z</time></trkpt><trkpt lat="40.78794537319549" lon="17.401401299516273"><ele>221.0</ele><time>2026-03-30T14:52:46.999Z</time></trkpt><trkpt lat="40.78799860075865" lon="17.401475242763272"><ele>219.0</ele><time>2026-03-30T14:54:42.999Z</time></trkpt><trkpt lat="40.788057686385294" lon="17.401435063091142"><ele>217.00000000000003</ele><time>2026-03-30T14:54:44.999Z</time></trkpt><trkpt lat="40.78813473952898" lon="17.401375116515354"><ele>215.0</ele><time>2026-03-30T14:54:46.999Z</time></trkpt><trkpt lat="40.78821277827874" lon="17.40129733442573"><ele>215.0</ele><time>2026-03-30T14:54:49.999Z</time></trkpt><trkpt lat="40.788314568488346" lon="17.40122775812651"><ele>215.0</ele><time>2026-03-30T14:54:51.999Z</time></trkpt><trkpt lat="40.788383171086544" lon="17.401147007665205"><ele>215.0</ele><time>2026-03-30T14:54:53.999Z</time></trkpt><trkpt lat="40.78844753160043" lon="17.401130304912876"><ele>215.0</ele><time>2026-03-30T14:54:55.999Z</time></trkpt><trkpt lat="40.78846786702731" lon="17.401247308426825"><ele>215.0</ele><time>2026-03-30T14:54:57.999Z</time></trkpt><trkpt lat="40.788447034873045" lon="17.401377223885845"><ele>213.25</ele><time>2026-03-30T14:54:59.999Z</time></trkpt><trkpt lat="40.78849390962551" lon="17.40151011211349"><ele>211.5</ele><time>2026-03-30T14:55:01.999Z</time></trkpt><trkpt lat="40.788656953603564" lon="17.401402254618173"><ele>209.75</ele><time>2026-03-30T14:55:06.998Z</time></trkpt><trkpt lat="40.78872390981608" lon="17.40127342007228"><ele>208.0</ele><time>2026-03-30T14:55:08.998Z</time></trkpt><trkpt lat="40.78878449468073" lon="17.40124213583164"><ele>206.49999999999997</ele><time>2026-03-30T14:55:09.998Z</time></trkpt><trkpt lat="40.78884261714888" lon="17.401129231641686"><ele>205.0</ele><time>2026-03-30T14:55:11.998Z</time></trkpt><trkpt lat="40.788863828272454" lon="17.40103358929911"><ele>203.5</ele><time>2026-03-30T14:55:12.998Z</time></trkpt><trkpt lat="40.78896121067684" lon="17.40097948284817"><ele>202.0</ele><time>2026-03-30T14:55:14.998Z</time></trkpt><trkpt lat="40.789028094543504" lon="17.40097287516572"><ele>200.49999999999997</ele><time>2026-03-30T14:55:15.998Z</time></trkpt><trkpt lat="40.78910499620613" lon="17.400972343671366"><ele>199.0</ele><time>2026-03-30T14:55:16.998Z</time></trkpt><trkpt lat="40.789173189909896" lon="17.400973514193044"><ele>198.99999999999997</ele><time>2026-03-30T14:55:17.998Z</time></trkpt><trkpt lat="40.78923891059501" lon="17.400980786050056"><ele>199.0</ele><time>2026-03-30T14:55:18.998Z</time></trkpt><trkpt lat="40.789308836936144" lon="17.401042829083295"><ele>199.0</ele><time>2026-03-30T14:55:20.998Z</time></trkpt><trkpt lat="40.789365483681244" lon="17.401141287606734"><ele>199.0</ele><time>2026-03-30T14:55:22.998Z</time></trkpt><trkpt lat="40.7894709883546" lon="17.401191411702918"><ele>198.99999999999997</ele><time>2026-03-30T14:55:24.998Z</time></trkpt><trkpt lat="40.78953821009587" lon="17.401184989867787"><ele>199.0</ele><time>2026-03-30T14:55:25.998Z</time></trkpt><trkpt lat="40.789659052880815" lon="17.4011514544841"><ele>197.49999999999997</ele><time>2026-03-30T14:55:27.998Z</time></trkpt><trkpt lat="40.78976685130524" lon="17.401167029765794"><ele>196.0</ele><time>2026-03-30T14:55:29.998Z</time></trkpt><trkpt lat="40.7897912161855" lon="17.401291033136282"><ele>194.5</ele><time>2026-03-30T14:55:31.998Z</time></trkpt><trkpt lat="40.78979442916751" lon="17.40138614177634"><ele>193.0</ele><time>2026-03-30T14:55:32.998Z</time></trkpt><trkpt lat="40.789800742743225" lon="17.401526050192555"><ele>191.5</ele><time>2026-03-30T14:55:34.998Z</time></trkpt><trkpt lat="40.789849580491115" lon="17.401578851634753"><ele>190.0</ele><time>2026-03-30T14:55:35.998Z</time></trkpt><trkpt lat="40.78993087961742" lon="17.40166918640571"><ele>189.6</ele><time>2026-03-30T14:55:37.998Z</time></trkpt><trkpt lat="40.79000100542602" lon="17.40180026090104"><ele>189.2</ele><time>2026-03-30T14:55:39.998Z</time></trkpt><trkpt lat="40.79005184599833" lon="17.401863987099638"><ele>188.8</ele><time>2026-03-30T14:55:40.998Z</time></trkpt><trkpt lat="40.79013637971212" lon="17.4019852118147"><ele>188.4</ele><time>2026-03-30T14:55:42.998Z</time></trkpt><trkpt lat="40.79018255684883" lon="17.402049558749916"><ele>188.0</ele><time>2026-03-30T14:55:44Z</time></trkpt><trkpt lat="40.79029374207153" lon="17.402132742730245"><ele>187.16666666666666</ele><time>2026-03-30T14:55:46Z</time></trkpt><trkpt lat="40.79035232862911" lon="17.40217060777271"><ele>186.33333333333331</ele><time>2026-03-30T14:55:47Z</time></trkpt><trkpt lat="40.790403439963896" lon="17.402225017180022"><ele>185.5</ele><time>2026-03-30T14:55:48Z</time></trkpt><trkpt lat="40.79046022149641" lon="17.402278043845207"><ele>184.66666666666666</ele><time>2026-03-30T14:55:49Z</time></trkpt><trkpt lat="40.79051552995874" lon="17.40233230718591"><ele>183.83333333333334</ele><time>2026-03-30T14:55:50Z</time></trkpt><trkpt lat="40.790610231616554" lon="17.402425686091636"><ele>183.0</ele><time>2026-03-30T14:55:52Z</time></trkpt><trkpt lat="40.790679608002534" lon="17.402506194116768"><ele>183.0</ele><time>2026-03-30T14:55:54Z</time></trkpt><trkpt lat="40.79076284638942" lon="17.402597376611332"><ele>183.0</ele><time>2026-03-30T14:55:56Z</time></trkpt><trkpt lat="40.790860995988595" lon="17.402693789649707"><ele>183.0</ele><time>2026-03-30T14:55:58Z</time></trkpt><trkpt lat="40.79095669128755" lon="17.40270367601784"><ele>183.0</ele><time>2026-03-30T14:56:00Z</time></trkpt><trkpt lat="40.79103760639046" lon="17.402593133276916"><ele>183.0</ele><time>2026-03-30T14:56:02Z</time></trkpt><trkpt lat="40.79111260243745" lon="17.402482275490243"><ele>182.33333333333334</ele><time>2026-03-30T14:56:04Z</time></trkpt><trkpt lat="40.79116033684842" lon="17.402353370216275"><ele>181.66666666666666</ele><time>2026-03-30T14:56:06Z</time></trkpt><trkpt lat="40.7911909299673" lon="17.402266870851964"><ele>181.0</ele><time>2026-03-30T14:56:08Z</time></trkpt><trkpt lat="40.791238725865554" lon="17.402175067926507"><ele>180.33333333333331</ele><time>2026-03-30T14:56:12Z</time></trkpt><trkpt lat="40.791310758993426" lon="17.402105240780344"><ele>179.66666666666666</ele><time>2026-03-30T14:56:15Z</time></trkpt><trkpt lat="40.79138437438629" lon="17.402047769263522"><ele>179.0</ele><time>2026-03-30T14:56:18Z</time></trkpt><trkpt lat="40.79146028717216" lon="17.402099948315662"><ele>179.0</ele><time>2026-03-30T14:56:20Z</time></trkpt><trkpt lat="40.791535209302225" lon="17.402192990354568"><ele>179.0</ele><time>2026-03-30T14:56:21.999Z</time></trkpt><trkpt lat="40.79155012796455" lon="17.402323698254154"><ele>179.0</ele><time>2026-03-30T14:56:23.999Z</time></trkpt><trkpt lat="40.79155878324767" lon="17.402434033615172"><ele>179.0</ele><time>2026-03-30T14:56:25.999Z</time></trkpt><trkpt lat="40.79158101086267" lon="17.40253530693534"><ele>179.0</ele><time>2026-03-30T14:56:27.999Z</time></trkpt><trkpt lat="40.791621455614994" lon="17.402619666334296"><ele>179.0</ele><time>2026-03-30T14:56:29.999Z</time></trkpt><trkpt lat="40.791648080274264" lon="17.402705430171736"><ele>179.00000000000003</ele><time>2026-03-30T14:56:32.999Z</time></trkpt><trkpt lat="40.79163210043543" lon="17.40279798893479"><ele>179.0</ele><time>2026-03-30T14:56:41.999Z</time></trkpt><trkpt lat="40.79157176726046" lon="17.402828853234002"><ele>179.0</ele><time>2026-03-30T14:56:44.999Z</time></trkpt><trkpt lat="40.791551518198105" lon="17.402907968149922"><ele>179.0</ele><time>2026-03-30T14:56:47.999Z</time></trkpt><trkpt lat="40.79157588014542" lon="17.403001876493832"><ele>179.0</ele><time>2026-03-30T14:56:50.999Z</time></trkpt><trkpt lat="40.79162389116173" lon="17.403068421035336"><ele>179.00000000000003</ele><time>2026-03-30T14:56:53.999Z</time></trkpt><trkpt lat="40.79169937177615" lon="17.4031434881216"><ele>179.0</ele><time>2026-03-30T14:56:57.999Z</time></trkpt><trkpt lat="40.791648643436524" lon="17.403245874608047"><ele>178.00000000000003</ele><time>2026-03-30T14:57:11.998Z</time></trkpt><trkpt lat="40.791676575995815" lon="17.403349393488806"><ele>177.0</ele><time>2026-03-30T14:57:15.998Z</time></trkpt><trkpt lat="40.79174449411524" lon="17.40334750427983"><ele>176.0</ele><time>2026-03-30T14:57:18.998Z</time></trkpt><trkpt lat="40.79180661724897" lon="17.403298225948507"><ele>175.0</ele><time>2026-03-30T14:57:21.998Z</time></trkpt><trkpt lat="40.79183889852183" lon="17.403213006422902"><ele>174.0</ele><time>2026-03-30T14:57:25.998Z</time></trkpt><trkpt lat="40.79184447142373" lon="17.40312349019682"><ele>173.00000000000003</ele><time>2026-03-30T14:57:28.998Z</time></trkpt><trkpt lat="40.791817976704834" lon="17.4032285210165"><ele>172.0</ele><time>2026-03-30T14:58:50.999Z</time></trkpt><trkpt lat="40.7917886182598" lon="17.40331940785507"><ele>172.0</ele><time>2026-03-30T14:58:54.999Z</time></trkpt><trkpt lat="40.79176451743007" lon="17.403420157852253"><ele>172.0</ele><time>2026-03-30T14:58:58.999Z</time></trkpt><trkpt lat="40.79169600817458" lon="17.40344297737634"><ele>172.0</ele><time>2026-03-30T14:59:01.999Z</time></trkpt><trkpt lat="40.79162813220697" lon="17.403476351374792"><ele>172.0</ele><time>2026-03-30T14:59:04.999Z</time></trkpt><trkpt lat="40.7915541744871" lon="17.403509500835433"><ele>172.0</ele><time>2026-03-30T14:59:08.999Z</time></trkpt><trkpt lat="40.79153754113671" lon="17.403398194427602"><ele>172.0</ele><time>2026-03-30T15:00:19Z</time></trkpt><trkpt lat="40.79157037243025" lon="17.403311223306616"><ele>172.0</ele><time>2026-03-30T15:00:21Z</time></trkpt><trkpt lat="40.79162418284942" lon="17.403227278463955"><ele>172.0</ele><time>2026-03-30T15:00:23Z</time></trkpt><trkpt lat="40.79163736590999" lon="17.40311748372168"><ele>172.0</ele><time>2026-03-30T15:00:26Z</time></trkpt><trkpt lat="40.79159540605626" lon="17.40304482641711"><ele>172.0</ele><time>2026-03-30T15:00:30Z</time></trkpt><trkpt lat="40.791553239093616" lon="17.402942188737768"><ele>172.0</ele><time>2026-03-30T15:00:32.999Z</time></trkpt><trkpt lat="40.791574822812166" lon="17.40284367803916"><ele>172.0</ele><time>2026-03-30T15:00:35.999Z</time></trkpt><trkpt lat="40.79161769663257" lon="17.402770572190636"><ele>172.66666666666669</ele><time>2026-03-30T15:00:37.999Z</time></trkpt><trkpt lat="40.79164662746309" lon="17.402685979646733"><ele>173.33333333333334</ele><time>2026-03-30T15:00:40.999Z</time></trkpt><trkpt lat="40.79162744919722" lon="17.402573194922457"><ele>174.0</ele><time>2026-03-30T15:00:44.999Z</time></trkpt><trkpt lat="40.791584299913374" lon="17.40249678721204"><ele>174.66666666666666</ele><time>2026-03-30T15:00:46.999Z</time></trkpt><trkpt lat="40.79154453319791" lon="17.402377591117453"><ele>175.33333333333331</ele><time>2026-03-30T15:00:48.999Z</time></trkpt><trkpt lat="40.7915183864136" lon="17.40223604141369"><ele>176.0</ele><time>2026-03-30T15:00:50.999Z</time></trkpt><trkpt lat="40.791477744703606" lon="17.40211369193744"><ele>176.0</ele><time>2026-03-30T15:00:52.999Z</time></trkpt><trkpt lat="40.79141812518155" lon="17.402058817281265"><ele>176.0</ele><time>2026-03-30T15:00:53.999Z</time></trkpt><trkpt lat="40.79135803202508" lon="17.402026816236386"><ele>176.0</ele><time>2026-03-30T15:00:54.999Z</time></trkpt><trkpt lat="40.7912732041343" lon="17.401942357965684"><ele>176.0</ele><time>2026-03-30T15:00:56.999Z</time></trkpt><trkpt lat="40.7912041756223" lon="17.401880420375015"><ele>176.0</ele><time>2026-03-30T15:00:58.999Z</time></trkpt><trkpt lat="40.79113352972935" lon="17.401807416670916"><ele>176.0</ele><time>2026-03-30T15:01:00.999Z</time></trkpt><trkpt lat="40.79107625961866" lon="17.401731038428906"><ele>176.0</ele><time>2026-03-30T15:01:02.999Z</time></trkpt><trkpt lat="40.79100972905798" lon="17.401658303557912"><ele>176.0</ele><time>2026-03-30T15:01:04.999Z</time></trkpt><trkpt lat="40.790940557094274" lon="17.401583342738522"><ele>176.0</ele><time>2026-03-30T15:01:06.999Z</time></trkpt><trkpt lat="40.790849172002474" lon="17.401540983601464"><ele>176.0</ele><time>2026-03-30T15:01:08.999Z</time></trkpt><trkpt lat="40.79076201399917" lon="17.401509497277004"><ele>176.0</ele><time>2026-03-30T15:01:10.999Z</time></trkpt><trkpt lat="40.79066468230657" lon="17.401494562965468"><ele>176.66666666666666</ele><time>2026-03-30T15:01:12.999Z</time></trkpt><trkpt lat="40.790574547122" lon="17.401477882438297"><ele>177.33333333333331</ele><time>2026-03-30T15:01:14.999Z</time></trkpt><trkpt lat="40.79051248640202" lon="17.401418716251996"><ele>178.0</ele><time>2026-03-30T15:01:16.999Z</time></trkpt><trkpt lat="40.790501027187815" lon="17.401329551585988"><ele>178.66666666666666</ele><time>2026-03-30T15:01:18.999Z</time></trkpt><trkpt lat="40.79053418540522" lon="17.401235422297535"><ele>179.33333333333334</ele><time>2026-03-30T15:01:20.999Z</time></trkpt><trkpt lat="40.79055284539814" lon="17.401138476247926"><ele>180.0</ele><time>2026-03-30T15:01:22.998Z</time></trkpt><trkpt lat="40.790557390804814" lon="17.401025530405207"><ele>180.0</ele><time>2026-03-30T15:01:24.998Z</time></trkpt><trkpt lat="40.79057969985152" lon="17.40090657834657"><ele>180.0</ele><time>2026-03-30T15:01:26.998Z</time></trkpt><trkpt lat="40.790622652918245" lon="17.400788410740084"><ele>180.0</ele><time>2026-03-30T15:01:28.998Z</time></trkpt><trkpt lat="40.79065742619695" lon="17.400663504751186"><ele>180.0</ele><time>2026-03-30T15:01:30.998Z</time></trkpt><trkpt lat="40.79070212984004" lon="17.400535295804282"><ele>180.0</ele><time>2026-03-30T15:01:32.998Z</time></trkpt><trkpt lat="40.79074326814013" lon="17.400411289789712"><ele>180.8</ele><time>2026-03-30T15:01:34.998Z</time></trkpt><trkpt lat="40.790752285007194" lon="17.400328869816953"><ele>181.6</ele><time>2026-03-30T15:01:35.998Z</time></trkpt><trkpt lat="40.790781319367575" lon="17.40019282287266"><ele>182.39999999999998</ele><time>2026-03-30T15:01:37.998Z</time></trkpt><trkpt lat="40.79078952714289" lon="17.400064968455776"><ele>183.2</ele><time>2026-03-30T15:01:39.998Z</time></trkpt><trkpt lat="40.79079240691832" lon="17.3999431418944"><ele>184.0</ele><time>2026-03-30T15:01:41.998Z</time></trkpt><trkpt lat="40.79084213059521" lon="17.399836774831186"><ele>184.0</ele><time>2026-03-30T15:01:43.998Z</time></trkpt><trkpt lat="40.79088253760519" lon="17.399725080760415"><ele>184.0</ele><time>2026-03-30T15:01:45.998Z</time></trkpt><trkpt lat="40.79092594141252" lon="17.399610121186775"><ele>184.0</ele><time>2026-03-30T15:01:47.998Z</time></trkpt><trkpt lat="40.79097336235039" lon="17.39949142302296"><ele>184.0</ele><time>2026-03-30T15:01:49.998Z</time></trkpt><trkpt lat="40.79101700175871" lon="17.399367079979655"><ele>184.0</ele><time>2026-03-30T15:01:51.998Z</time></trkpt><trkpt lat="40.79106497115226" lon="17.399238995890045"><ele>182.66666666666669</ele><time>2026-03-30T15:01:53.998Z</time></trkpt><trkpt lat="40.79110949648452" lon="17.399105355346286"><ele>181.33333333333334</ele><time>2026-03-30T15:01:55.998Z</time></trkpt><trkpt lat="40.791144494046385" lon="17.399018666645624"><ele>180.0</ele><time>2026-03-30T15:01:56.998Z</time></trkpt><trkpt lat="40.791169242654846" lon="17.398939422551784"><ele>178.66666666666666</ele><time>2026-03-30T15:01:57.998Z</time></trkpt><trkpt lat="40.79119940143451" lon="17.398854325730905"><ele>177.33333333333331</ele><time>2026-03-30T15:01:58.998Z</time></trkpt><trkpt lat="40.79122948025267" lon="17.398766281254314"><ele>176.0</ele><time>2026-03-30T15:01:59.998Z</time></trkpt><trkpt lat="40.79126445433505" lon="17.398681761480397"><ele>176.0</ele><time>2026-03-30T15:02:00.998Z</time></trkpt><trkpt lat="40.79131655778654" lon="17.398541147913246"><ele>176.0</ele><time>2026-03-30T15:02:03Z</time></trkpt><trkpt lat="40.79136366359092" lon="17.39842649099821"><ele>176.0</ele><time>2026-03-30T15:02:05Z</time></trkpt><trkpt lat="40.791375119637436" lon="17.398337384296116"><ele>176.0</ele><time>2026-03-30T15:02:07Z</time></trkpt><trkpt lat="40.791372469944456" lon="17.398251501897487"><ele>176.0</ele><time>2026-03-30T15:02:49.999Z</time></trkpt><trkpt lat="40.7913942908806" lon="17.398144123145002"><ele>176.0</ele><time>2026-03-30T15:02:57.999Z</time></trkpt><trkpt lat="40.79141792063271" lon="17.398061432697904"><ele>176.20000000000002</ele><time>2026-03-30T15:02:59.999Z</time></trkpt><trkpt lat="40.79145028576562" lon="17.39794286302986"><ele>176.4</ele><time>2026-03-30T15:03:01.999Z</time></trkpt><trkpt lat="40.79150328098704" lon="17.39783891633697"><ele>176.6</ele><time>2026-03-30T15:03:03.999Z</time></trkpt><trkpt lat="40.79155178631288" lon="17.397717341595172"><ele>176.8</ele><time>2026-03-30T15:03:05.999Z</time></trkpt><trkpt lat="40.79160456458618" lon="17.39758669760244"><ele>177.0</ele><time>2026-03-30T15:03:07.999Z</time></trkpt><trkpt lat="40.79166486008781" lon="17.397537502116833"><ele>177.0</ele><time>2026-03-30T15:03:09.999Z</time></trkpt><trkpt lat="40.791757902990064" lon="17.39760820569666"><ele>177.0</ele><time>2026-03-30T15:03:11.999Z</time></trkpt><trkpt lat="40.7918432816198" lon="17.39770180527896"><ele>177.0</ele><time>2026-03-30T15:03:13.999Z</time></trkpt><trkpt lat="40.79189601123562" lon="17.397747364015533"><ele>177.0</ele><time>2026-03-30T15:03:14.999Z</time></trkpt><trkpt lat="40.79199448906189" lon="17.397850289862664"><ele>177.0</ele><time>2026-03-30T15:03:16.999Z</time></trkpt><trkpt lat="40.79204362740158" lon="17.3979024870284"><ele>176.14285714285714</ele><time>2026-03-30T15:03:17.999Z</time></trkpt><trkpt lat="40.792094365550255" lon="17.39795592559966"><ele>175.28571428571428</ele><time>2026-03-30T15:03:18.999Z</time></trkpt><trkpt lat="40.792147884827294" lon="17.398009459159795"><ele>174.42857142857142</ele><time>2026-03-30T15:03:19.999Z</time></trkpt><trkpt lat="40.79220712002844" lon="17.398059378966384"><ele>173.57142857142856</ele><time>2026-03-30T15:03:20.999Z</time></trkpt><trkpt lat="40.79226588673857" lon="17.398108366584076"><ele>172.71428571428572</ele><time>2026-03-30T15:03:21.999Z</time></trkpt><trkpt lat="40.79232782587784" lon="17.39816621457567"><ele>171.85714285714283</ele><time>2026-03-30T15:03:22.999Z</time></trkpt><trkpt lat="40.792392685059816" lon="17.39822093620089"><ele>171.0</ele><time>2026-03-30T15:03:23.999Z</time></trkpt><trkpt lat="40.792446288950636" lon="17.398276034874666"><ele>170.20000000000002</ele><time>2026-03-30T15:03:24.999Z</time></trkpt><trkpt lat="40.792503210447485" lon="17.39832983062194"><ele>169.4</ele><time>2026-03-30T15:03:25.999Z</time></trkpt><trkpt lat="40.792582350903686" lon="17.398396689137094"><ele>168.6</ele><time>2026-03-30T15:03:26.999Z</time></trkpt><trkpt lat="40.79265028498491" lon="17.398458832488096"><ele>167.8</ele><time>2026-03-30T15:03:27.999Z</time></trkpt><trkpt lat="40.79274114676209" lon="17.398522481471986"><ele>167.0</ele><time>2026-03-30T15:03:28.998Z</time></trkpt><trkpt lat="40.79283253821782" lon="17.39857758000605"><ele>166.2</ele><time>2026-03-30T15:03:29.998Z</time></trkpt><trkpt lat="40.792924531421" lon="17.398639055322388"><ele>165.39999999999998</ele><time>2026-03-30T15:03:30.998Z</time></trkpt><trkpt lat="40.79303997295427" lon="17.3986922399591"><ele>164.60000000000002</ele><time>2026-03-30T15:03:31.998Z</time></trkpt><trkpt lat="40.79314043819634" lon="17.398746598549945"><ele>163.8</ele><time>2026-03-30T15:03:32.998Z</time></trkpt><trkpt lat="40.79323214150101" lon="17.398825080322005"><ele>163.0</ele><time>2026-03-30T15:03:33.998Z</time></trkpt><trkpt lat="40.79332514771159" lon="17.39887829646327"><ele>162.0</ele><time>2026-03-30T15:03:34.998Z</time></trkpt><trkpt lat="40.7934139223162" lon="17.39890876916351"><ele>161.0</ele><time>2026-03-30T15:03:35.998Z</time></trkpt><trkpt lat="40.79348726801892" lon="17.39895369711982"><ele>160.0</ele><time>2026-03-30T15:03:36.998Z</time></trkpt><trkpt lat="40.79359060660783" lon="17.399006029943294"><ele>159.0</ele><time>2026-03-30T15:03:37.998Z</time></trkpt><trkpt lat="40.79367453547119" lon="17.399041719398365"><ele>158.0</ele><time>2026-03-30T15:03:38.998Z</time></trkpt><trkpt lat="40.79375932636612" lon="17.399090394852546"><ele>157.0</ele><time>2026-03-30T15:03:39.998Z</time></trkpt><trkpt lat="40.79384487568363" lon="17.399135832346253"><ele>156.0</ele><time>2026-03-30T15:03:40.998Z</time></trkpt><trkpt lat="40.79393052618998" lon="17.39919889726333"><ele>155.0</ele><time>2026-03-30T15:03:41.998Z</time></trkpt><trkpt lat="40.79400792673904" lon="17.39924151588297"><ele>154.0</ele><time>2026-03-30T15:03:42.998Z</time></trkpt><trkpt lat="40.79408630645966" lon="17.3992846736567"><ele>153.0</ele><time>2026-03-30T15:03:43.998Z</time></trkpt><trkpt lat="40.7941629474641" lon="17.399326874045528"><ele>152.0</ele><time>2026-03-30T15:03:44.998Z</time></trkpt><trkpt lat="40.7942523730535" lon="17.399376113752112"><ele>152.0</ele><time>2026-03-30T15:03:45.998Z</time></trkpt><trkpt lat="40.7943295989625" lon="17.399419520840578"><ele>152.0</ele><time>2026-03-30T15:03:46.998Z</time></trkpt><trkpt lat="40.7944134368731" lon="17.39946630417183"><ele>152.0</ele><time>2026-03-30T15:03:47.998Z</time></trkpt><trkpt lat="40.79449946389141" lon="17.39949299279749"><ele>152.0</ele><time>2026-03-30T15:03:48.998Z</time></trkpt><trkpt lat="40.79457787640398" lon="17.39954161236372"><ele>152.0</ele><time>2026-03-30T15:03:49.998Z</time></trkpt><trkpt lat="40.79465909272234" lon="17.399587768033665"><ele>152.0</ele><time>2026-03-30T15:03:50.998Z</time></trkpt><trkpt lat="40.794735764222985" lon="17.399629817822248"><ele>150.83333333333331</ele><time>2026-03-30T15:03:51.998Z</time></trkpt><trkpt lat="40.79481465249047" lon="17.39967557523138"><ele>149.66666666666666</ele><time>2026-03-30T15:03:52.998Z</time></trkpt><trkpt lat="40.794891038996525" lon="17.399724218754447"><ele>148.5</ele><time>2026-03-30T15:03:53.998Z</time></trkpt><trkpt lat="40.79496608140647" lon="17.3997872642378"><ele>147.33333333333334</ele><time>2026-03-30T15:03:54.998Z</time></trkpt><trkpt lat="40.79503793856877" lon="17.3998294399476"><ele>146.16666666666669</ele><time>2026-03-30T15:03:55.998Z</time></trkpt><trkpt lat="40.79511896213061" lon="17.399876995767478"><ele>145.0</ele><time>2026-03-30T15:03:56.998Z</time></trkpt><trkpt lat="40.79519924374161" lon="17.39992411612382"><ele>144.2</ele><time>2026-03-30T15:03:57.998Z</time></trkpt><trkpt lat="40.79528545503259" lon="17.399974716829753"><ele>143.4</ele><time>2026-03-30T15:03:58.998Z</time></trkpt><trkpt lat="40.795367744135284" lon="17.40002326951741"><ele>142.6</ele><time>2026-03-30T15:03:59.998Z</time></trkpt><trkpt lat="40.79545608114269" lon="17.400075483700505"><ele>141.8</ele><time>2026-03-30T15:04:00.998Z</time></trkpt><trkpt lat="40.79554170468995" lon="17.400105521720572"><ele>141.0</ele><time>2026-03-30T15:04:01.998Z</time></trkpt><trkpt lat="40.795623823776225" lon="17.400163830317158"><ele>141.0</ele><time>2026-03-30T15:04:02.998Z</time></trkpt><trkpt lat="40.795697869904686" lon="17.400204566317107"><ele>141.0</ele><time>2026-03-30T15:04:03.998Z</time></trkpt><trkpt lat="40.79576863516174" lon="17.400247249282998"><ele>141.0</ele><time>2026-03-30T15:04:04.998Z</time></trkpt><trkpt lat="40.79585093504846" lon="17.400286041234285"><ele>141.0</ele><time>2026-03-30T15:04:05.998Z</time></trkpt><trkpt lat="40.79591998649982" lon="17.400333962312853"><ele>141.0</ele><time>2026-03-30T15:04:06.998Z</time></trkpt><trkpt lat="40.79599575889254" lon="17.400372306638545"><ele>141.0</ele><time>2026-03-30T15:04:08Z</time></trkpt><trkpt lat="40.79606118753896" lon="17.400411154194806"><ele>140.57142857142858</ele><time>2026-03-30T15:04:09Z</time></trkpt><trkpt lat="40.79613054549166" lon="17.400448859965927"><ele>140.14285714285714</ele><time>2026-03-30T15:04:10Z</time></trkpt><trkpt lat="40.79619517604649" lon="17.400501990678755"><ele>139.71428571428572</ele><time>2026-03-30T15:04:11Z</time></trkpt><trkpt lat="40.79626412943789" lon="17.40052012670114"><ele>139.28571428571428</ele><time>2026-03-30T15:04:12Z</time></trkpt><trkpt lat="40.796329770547366" lon="17.400562110614935"><ele>138.85714285714286</ele><time>2026-03-30T15:04:13Z</time></trkpt><trkpt lat="40.79639822725021" lon="17.400599640702488"><ele>138.42857142857144</ele><time>2026-03-30T15:04:14Z</time></trkpt><trkpt lat="40.796465151324306" lon="17.400639153147356"><ele>138.0</ele><time>2026-03-30T15:04:15Z</time></trkpt><trkpt lat="40.796529260906055" lon="17.4006739619847"><ele>138.0</ele><time>2026-03-30T15:04:16Z</time></trkpt><trkpt lat="40.79659096885203" lon="17.400708488929784"><ele>138.0</ele><time>2026-03-30T15:04:17Z</time></trkpt><trkpt lat="40.79665146380649" lon="17.400741956430455"><ele>138.0</ele><time>2026-03-30T15:04:18Z</time></trkpt><trkpt lat="40.796761415335155" lon="17.400802811679053"><ele>138.0</ele><time>2026-03-30T15:04:20Z</time></trkpt><trkpt lat="40.796868406796115" lon="17.40085495466459"><ele>138.0</ele><time>2026-03-30T15:04:22Z</time></trkpt><trkpt lat="40.796974956944005" lon="17.400916403242125"><ele>137.6</ele><time>2026-03-30T15:04:24Z</time></trkpt><trkpt lat="40.797078708837745" lon="17.400978273593864"><ele>137.20000000000002</ele><time>2026-03-30T15:04:26Z</time></trkpt><trkpt lat="40.797185367160296" lon="17.401044094269068"><ele>136.8</ele><time>2026-03-30T15:04:28Z</time></trkpt><trkpt lat="40.79729621013072" lon="17.40111715015045"><ele>136.4</ele><time>2026-03-30T15:04:30Z</time></trkpt><trkpt lat="40.79735921760841" lon="17.401149098296848"><ele>136.0</ele><time>2026-03-30T15:04:31Z</time></trkpt><trkpt lat="40.79746346430481" lon="17.40121817126013"><ele>136.0</ele><time>2026-03-30T15:04:33Z</time></trkpt><trkpt lat="40.79752089965585" lon="17.401254683560445"><ele>136.0</ele><time>2026-03-30T15:04:34Z</time></trkpt><trkpt lat="40.79757934485416" lon="17.401287485932823"><ele>136.0</ele><time>2026-03-30T15:04:35Z</time></trkpt><trkpt lat="40.797694360928126" lon="17.40135056116014"><ele>136.0</ele><time>2026-03-30T15:04:37Z</time></trkpt><trkpt lat="40.79780463424711" lon="17.40141781707162"><ele>136.0</ele><time>2026-03-30T15:04:39Z</time></trkpt><trkpt lat="40.797917667605965" lon="17.401467519087593"><ele>135.5</ele><time>2026-03-30T15:04:41Z</time></trkpt><trkpt lat="40.798035235218" lon="17.40150921936576"><ele>135.0</ele><time>2026-03-30T15:04:43Z</time></trkpt><trkpt lat="40.798150853009474" lon="17.401546855698047"><ele>134.5</ele><time>2026-03-30T15:04:45Z</time></trkpt><trkpt lat="40.79825772877361" lon="17.401584654259555"><ele>134.0</ele><time>2026-03-30T15:04:47Z</time></trkpt><trkpt lat="40.79836478944838" lon="17.401630565282897"><ele>134.0</ele><time>2026-03-30T15:04:48.999Z</time></trkpt><trkpt lat="40.79847923184189" lon="17.401681999453437"><ele>134.0</ele><time>2026-03-30T15:04:50.999Z</time></trkpt><trkpt lat="40.798576196587824" lon="17.401730689765465"><ele>134.0</ele><time>2026-03-30T15:04:52.999Z</time></trkpt><trkpt lat="40.798687907209946" lon="17.40178625494679"><ele>134.0</ele><time>2026-03-30T15:04:54.999Z</time></trkpt><trkpt lat="40.79879522963213" lon="17.401841303855445"><ele>133.6</ele><time>2026-03-30T15:04:56.999Z</time></trkpt><trkpt lat="40.79890698760906" lon="17.401896451340818"><ele>133.2</ele><time>2026-03-30T15:04:58.999Z</time></trkpt><trkpt lat="40.799015990938535" lon="17.401955924897358"><ele>132.79999999999998</ele><time>2026-03-30T15:05:00.999Z</time></trkpt><trkpt lat="40.799074450967964" lon="17.401988108417395"><ele>132.4</ele><time>2026-03-30T15:05:01.999Z</time></trkpt><trkpt lat="40.799133721633254" lon="17.40202569908815"><ele>132.0</ele><time>2026-03-30T15:05:02.999Z</time></trkpt><trkpt lat="40.799254817284265" lon="17.402098164149887"><ele>132.0</ele><time>2026-03-30T15:05:04.999Z</time></trkpt><trkpt lat="40.799325997140535" lon="17.402135091413413"><ele>132.0</ele><time>2026-03-30T15:05:05.999Z</time></trkpt><trkpt lat="40.79939992759256" lon="17.40217445046283"><ele>132.0</ele><time>2026-03-30T15:05:06.999Z</time></trkpt><trkpt lat="40.79947423881114" lon="17.40221294391205"><ele>132.0</ele><time>2026-03-30T15:05:07.999Z</time></trkpt><trkpt lat="40.79954911213496" lon="17.402254897675448"><ele>132.0</ele><time>2026-03-30T15:05:08.999Z</time></trkpt><trkpt lat="40.79962545682331" lon="17.40230263026121"><ele>132.0</ele><time>2026-03-30T15:05:09.999Z</time></trkpt><trkpt lat="40.79970565331091" lon="17.402346327497916"><ele>130.83333333333334</ele><time>2026-03-30T15:05:10.999Z</time></trkpt><trkpt lat="40.799780427815946" lon="17.402388163042"><ele>129.66666666666666</ele><time>2026-03-30T15:05:11.999Z</time></trkpt><trkpt lat="40.799853398005794" lon="17.402426992787355"><ele>128.5</ele><time>2026-03-30T15:05:12.999Z</time></trkpt><trkpt lat="40.79992934078635" lon="17.40246609120762"><ele>127.33333333333333</ele><time>2026-03-30T15:05:13.999Z</time></trkpt><trkpt lat="40.79999560522191" lon="17.40250151618942"><ele>126.16666666666666</ele><time>2026-03-30T15:05:14.999Z</time></trkpt><trkpt lat="40.80005536735241" lon="17.402535450048003"><ele>125.0</ele><time>2026-03-30T15:05:15.999Z</time></trkpt><trkpt lat="40.800153461265744" lon="17.402596071166048"><ele>124.25</ele><time>2026-03-30T15:05:17.999Z</time></trkpt><trkpt lat="40.80025141597901" lon="17.40266200215013"><ele>123.5</ele><time>2026-03-30T15:05:19.999Z</time></trkpt><trkpt lat="40.80032380420074" lon="17.402716036412198"><ele>122.75</ele><time>2026-03-30T15:05:21.999Z</time></trkpt><trkpt lat="40.80027867352004" lon="17.40294073766648"><ele>122.0</ele><time>2026-03-30T15:05:41.998Z</time></trkpt><trkpt lat="40.800230224423146" lon="17.403028374924393"><ele>121.39999999999999</ele><time>2026-03-30T15:05:43.998Z</time></trkpt><trkpt lat="40.80018754540609" lon="17.403135186369248"><ele>120.79999999999998</ele><time>2026-03-30T15:05:45.998Z</time></trkpt><trkpt lat="40.80014222017499" lon="17.403251766750728"><ele>120.2</ele><time>2026-03-30T15:05:47.998Z</time></trkpt><trkpt lat="40.80010125806435" lon="17.403369574824897"><ele>119.6</ele><time>2026-03-30T15:05:49.998Z</time></trkpt><trkpt lat="40.800063756532495" lon="17.40350579639711"><ele>119.0</ele><time>2026-03-30T15:05:51.998Z</time></trkpt><trkpt lat="40.800034777299715" lon="17.40364218089142"><ele>120.0</ele><time>2026-03-30T15:05:53.998Z</time></trkpt><trkpt lat="40.800005767700824" lon="17.403782076203594"><ele>121.0</ele><time>2026-03-30T15:05:55.998Z</time></trkpt><trkpt lat="40.79998324369965" lon="17.403926444392994"><ele>122.0</ele><time>2026-03-30T15:05:57.998Z</time></trkpt><trkpt lat="40.79996495612117" lon="17.40406561284248"><ele>123.0</ele><time>2026-03-30T15:05:59.998Z</time></trkpt><trkpt lat="40.79994184686316" lon="17.404215661126063"><ele>124.0</ele><time>2026-03-30T15:06:01.998Z</time></trkpt><trkpt lat="40.7999196136917" lon="17.404368426907265"><ele>124.00000000000001</ele><time>2026-03-30T15:06:03.998Z</time></trkpt><trkpt lat="40.799904315862186" lon="17.404453604982624"><ele>124.0</ele><time>2026-03-30T15:06:04.998Z</time></trkpt><trkpt lat="40.79988377546761" lon="17.404602094671557"><ele>124.0</ele><time>2026-03-30T15:06:06.998Z</time></trkpt><trkpt lat="40.7998716164988" lon="17.404690162921025"><ele>124.0</ele><time>2026-03-30T15:06:07.998Z</time></trkpt><trkpt lat="40.799854329610376" lon="17.404850268409373"><ele>124.00000000000001</ele><time>2026-03-30T15:06:09.998Z</time></trkpt><trkpt lat="40.799842588961546" lon="17.40493312729742"><ele>124.0</ele><time>2026-03-30T15:06:10.998Z</time></trkpt><trkpt lat="40.79982722906986" lon="17.405014621949572"><ele>123.4</ele><time>2026-03-30T15:06:11.998Z</time></trkpt><trkpt lat="40.79979994494233" lon="17.40517007014654"><ele>122.80000000000001</ele><time>2026-03-30T15:06:14Z</time></trkpt><trkpt lat="40.79977972129262" lon="17.405323850360123"><ele>122.19999999999999</ele><time>2026-03-30T15:06:16Z</time></trkpt><trkpt lat="40.7997699233873" lon="17.405409844359966"><ele>121.6</ele><time>2026-03-30T15:06:17Z</time></trkpt><trkpt lat="40.79976012377693" lon="17.405493525064134"><ele>121.0</ele><time>2026-03-30T15:06:18Z</time></trkpt><trkpt lat="40.79973617416297" lon="17.40565318808791"><ele>120.75</ele><time>2026-03-30T15:06:20Z</time></trkpt><trkpt lat="40.799709599290644" lon="17.40580304307506"><ele>120.5</ele><time>2026-03-30T15:06:22Z</time></trkpt><trkpt lat="40.79968889751625" lon="17.405964906140344"><ele>120.25</ele><time>2026-03-30T15:06:24Z</time></trkpt><trkpt lat="40.79964855491157" lon="17.406118778610484"><ele>120.0</ele><time>2026-03-30T15:06:26Z</time></trkpt><trkpt lat="40.79960539412408" lon="17.40626948271148"><ele>120.4</ele><time>2026-03-30T15:06:28Z</time></trkpt><trkpt lat="40.79955568641522" lon="17.40641187872742"><ele>120.8</ele><time>2026-03-30T15:06:30Z</time></trkpt><trkpt lat="40.799536772983274" lon="17.406495001487077"><ele>121.19999999999999</ele><time>2026-03-30T15:06:31Z</time></trkpt><trkpt lat="40.79949276936505" lon="17.40664262752882"><ele>121.6</ele><time>2026-03-30T15:06:33Z</time></trkpt><trkpt lat="40.79944567160859" lon="17.406787456683738"><ele>122.0</ele><time>2026-03-30T15:06:35Z</time></trkpt><trkpt lat="40.79942027344243" lon="17.40686759990229"><ele>122.0</ele><time>2026-03-30T15:06:36Z</time></trkpt><trkpt lat="40.7993734991931" lon="17.407012349630808"><ele>122.0</ele><time>2026-03-30T15:06:38Z</time></trkpt><trkpt lat="40.79930327534374" lon="17.407184611909944"><ele>122.0</ele><time>2026-03-30T15:06:40Z</time></trkpt><trkpt lat="40.79927758672555" lon="17.407315091556487"><ele>122.0</ele><time>2026-03-30T15:06:42Z</time></trkpt><trkpt lat="40.79922438782264" lon="17.407468526973215"><ele>121.8</ele><time>2026-03-30T15:06:44Z</time></trkpt><trkpt lat="40.799168705842156" lon="17.40760428988458"><ele>121.6</ele><time>2026-03-30T15:06:46Z</time></trkpt><trkpt lat="40.79914353619636" lon="17.40768404686545"><ele>121.39999999999999</ele><time>2026-03-30T15:06:47Z</time></trkpt><trkpt lat="40.799095215693455" lon="17.40783425526693"><ele>121.19999999999999</ele><time>2026-03-30T15:06:49Z</time></trkpt><trkpt lat="40.79903222808444" lon="17.40796565968859"><ele>121.0</ele><time>2026-03-30T15:06:50.999Z</time></trkpt><trkpt lat="40.79898184720398" lon="17.408115391803427"><ele>121.0</ele><time>2026-03-30T15:06:52.999Z</time></trkpt><trkpt lat="40.798925139673074" lon="17.408260743462993"><ele>121.0</ele><time>2026-03-30T15:06:54.999Z</time></trkpt><trkpt lat="40.7988705488223" lon="17.408404594787687"><ele>121.0</ele><time>2026-03-30T15:06:56.999Z</time></trkpt><trkpt lat="40.798814503181724" lon="17.40854988664185"><ele>121.0</ele><time>2026-03-30T15:06:58.999Z</time></trkpt><trkpt lat="40.798779635711966" lon="17.408632241175738"><ele>121.0</ele><time>2026-03-30T15:06:59.999Z</time></trkpt><trkpt lat="40.79872251710807" lon="17.4087621035963"><ele>120.6</ele><time>2026-03-30T15:07:01.999Z</time></trkpt><trkpt lat="40.79869212885693" lon="17.408835991675172"><ele>120.19999999999999</ele><time>2026-03-30T15:07:02.999Z</time></trkpt><trkpt lat="40.798638585352606" lon="17.40897996181611"><ele>119.80000000000001</ele><time>2026-03-30T15:07:04.999Z</time></trkpt><trkpt lat="40.79858247176495" lon="17.40911949458096"><ele>119.4</ele><time>2026-03-30T15:07:06.999Z</time></trkpt><trkpt lat="40.79852311069786" lon="17.409260624207253"><ele>119.0</ele><time>2026-03-30T15:07:08.999Z</time></trkpt><trkpt lat="40.798462685716665" lon="17.409400714194422"><ele>119.6</ele><time>2026-03-30T15:07:10.999Z</time></trkpt><trkpt lat="40.79843191055021" lon="17.40947504151697"><ele>120.2</ele><time>2026-03-30T15:07:11.999Z</time></trkpt><trkpt lat="40.79836741481049" lon="17.40961165827743"><ele>120.79999999999998</ele><time>2026-03-30T15:07:13.999Z</time></trkpt><trkpt lat="40.79829684012821" lon="17.40974621560782"><ele>121.39999999999999</ele><time>2026-03-30T15:07:15.999Z</time></trkpt><trkpt lat="40.79822523616388" lon="17.409874995208575"><ele>122.0</ele><time>2026-03-30T15:07:17.999Z</time></trkpt><trkpt lat="40.79815559503035" lon="17.410005721143374"><ele>122.0</ele><time>2026-03-30T15:07:19.999Z</time></trkpt><trkpt lat="40.798077887632324" lon="17.410140093246433"><ele>122.0</ele><time>2026-03-30T15:07:21.999Z</time></trkpt><trkpt lat="40.79800273122457" lon="17.410265370228046"><ele>122.0</ele><time>2026-03-30T15:07:23.999Z</time></trkpt><trkpt lat="40.7979310705705" lon="17.410394642640675"><ele>122.0</ele><time>2026-03-30T15:07:25.999Z</time></trkpt><trkpt lat="40.79785092033434" lon="17.41052117819867"><ele>121.8</ele><time>2026-03-30T15:07:27.999Z</time></trkpt><trkpt lat="40.79778337533678" lon="17.41064930447819"><ele>121.6</ele><time>2026-03-30T15:07:29.999Z</time></trkpt><trkpt lat="40.797705261177995" lon="17.410781003157375"><ele>121.39999999999999</ele><time>2026-03-30T15:07:31.999Z</time></trkpt><trkpt lat="40.79763375365265" lon="17.41089898158885"><ele>121.19999999999999</ele><time>2026-03-30T15:07:33.999Z</time></trkpt><trkpt lat="40.797596000356286" lon="17.41096592943402"><ele>121.0</ele><time>2026-03-30T15:07:34.999Z</time></trkpt><trkpt lat="40.797518409789134" lon="17.411133033958624"><ele>121.75</ele><time>2026-03-30T15:07:36.999Z</time></trkpt><trkpt lat="40.797451415834075" lon="17.41123608777496"><ele>122.5</ele><time>2026-03-30T15:07:38.998Z</time></trkpt><trkpt lat="40.79737033664479" lon="17.41136421316169"><ele>123.25</ele><time>2026-03-30T15:07:40.998Z</time></trkpt><trkpt lat="40.797297016285164" lon="17.4114871640357"><ele>124.0</ele><time>2026-03-30T15:07:42.998Z</time></trkpt><trkpt lat="40.797228025987906" lon="17.411618622930824"><ele>124.0</ele><time>2026-03-30T15:07:44.998Z</time></trkpt><trkpt lat="40.797190291764146" lon="17.41168628770517"><ele>124.0</ele><time>2026-03-30T15:07:45.998Z</time></trkpt><trkpt lat="40.79711465745713" lon="17.41180974974098"><ele>124.0</ele><time>2026-03-30T15:07:47.998Z</time></trkpt><trkpt lat="40.79704096248507" lon="17.41194177573191"><ele>124.0</ele><time>2026-03-30T15:07:49.998Z</time></trkpt><trkpt lat="40.796969409410124" lon="17.41206896571921"><ele>124.0</ele><time>2026-03-30T15:07:51.998Z</time></trkpt><trkpt lat="40.79693142728415" lon="17.412136690538098"><ele>123.75</ele><time>2026-03-30T15:07:52.998Z</time></trkpt><trkpt lat="40.79685444916929" lon="17.412266213835686"><ele>123.5</ele><time>2026-03-30T15:07:54.998Z</time></trkpt><trkpt lat="40.79678509132109" lon="17.412401178653948"><ele>123.25</ele><time>2026-03-30T15:07:56.998Z</time></trkpt><trkpt lat="40.7967077493947" lon="17.41252867830459"><ele>123.0</ele><time>2026-03-30T15:07:58.998Z</time></trkpt><trkpt lat="40.796639946309355" lon="17.412660209912183"><ele>123.4</ele><time>2026-03-30T15:08:00.998Z</time></trkpt><trkpt lat="40.796599569437866" lon="17.412726591219208"><ele>123.80000000000001</ele><time>2026-03-30T15:08:01.998Z</time></trkpt><trkpt lat="40.79651988248276" lon="17.41284853622073"><ele>124.2</ele><time>2026-03-30T15:08:03.998Z</time></trkpt><trkpt lat="40.79644354376283" lon="17.41297417600147"><ele>124.6</ele><time>2026-03-30T15:08:05.998Z</time></trkpt><trkpt lat="40.79636739749244" lon="17.413076723090068"><ele>125.0</ele><time>2026-03-30T15:08:07.998Z</time></trkpt><trkpt lat="40.79632630167102" lon="17.413151798508782"><ele>125.0</ele><time>2026-03-30T15:08:08.998Z</time></trkpt><trkpt lat="40.7962857501951" lon="17.41321611137435"><ele>125.0</ele><time>2026-03-30T15:08:09.998Z</time></trkpt><trkpt lat="40.79620664062875" lon="17.413330537002327"><ele>125.0</ele><time>2026-03-30T15:08:11.998Z</time></trkpt><trkpt lat="40.79612770663761" lon="17.413457113346777"><ele>125.0</ele><time>2026-03-30T15:08:13.998Z</time></trkpt><trkpt lat="40.79604613135178" lon="17.413570105748086"><ele>125.0</ele><time>2026-03-30T15:08:15.998Z</time></trkpt><trkpt lat="40.796009823963786" lon="17.413643426784354"><ele>125.75</ele><time>2026-03-30T15:08:16.998Z</time></trkpt><trkpt lat="40.79593134415135" lon="17.41376339438422"><ele>126.5</ele><time>2026-03-30T15:08:18.998Z</time></trkpt><trkpt lat="40.795849946962754" lon="17.41387929942431"><ele>127.25</ele><time>2026-03-30T15:08:21Z</time></trkpt><trkpt lat="40.79577334423239" lon="17.41401174902228"><ele>128.0</ele><time>2026-03-30T15:08:23Z</time></trkpt><trkpt lat="40.79569687135412" lon="17.41412679328447"><ele>128.0</ele><time>2026-03-30T15:08:25Z</time></trkpt><trkpt lat="40.79562191178582" lon="17.414235508778848"><ele>128.0</ele><time>2026-03-30T15:08:27Z</time></trkpt><trkpt lat="40.79557956541549" lon="17.41429922482054"><ele>128.0</ele><time>2026-03-30T15:08:28Z</time></trkpt><trkpt lat="40.795502251979016" lon="17.414409152384067"><ele>128.0</ele><time>2026-03-30T15:08:30Z</time></trkpt><trkpt lat="40.79543277054285" lon="17.41452839846063"><ele>128.0</ele><time>2026-03-30T15:08:32Z</time></trkpt><trkpt lat="40.79535136532969" lon="17.41464029942411"><ele>128.25</ele><time>2026-03-30T15:08:34Z</time></trkpt><trkpt lat="40.79526849765074" lon="17.414747573500907"><ele>128.5</ele><time>2026-03-30T15:08:36Z</time></trkpt><trkpt lat="40.795187469600656" lon="17.414844498703985"><ele>128.75</ele><time>2026-03-30T15:08:38Z</time></trkpt><trkpt lat="40.79509549475732" lon="17.41492756938791"><ele>129.0</ele><time>2026-03-30T15:08:40Z</time></trkpt><trkpt lat="40.79500274214172" lon="17.415015564045177"><ele>129.0</ele><time>2026-03-30T15:08:42Z</time></trkpt><trkpt lat="40.79490269728336" lon="17.415097619465772"><ele>129.0</ele><time>2026-03-30T15:08:44Z</time></trkpt><trkpt lat="40.79479813588782" lon="17.415156321784366"><ele>129.0</ele><time>2026-03-30T15:08:46Z</time></trkpt><trkpt lat="40.79467455364119" lon="17.41521383120595"><ele>129.0</ele><time>2026-03-30T15:08:48Z</time></trkpt><trkpt lat="40.79457204029962" lon="17.415255009645772"><ele>129.0</ele><time>2026-03-30T15:08:50Z</time></trkpt><trkpt lat="40.79445592495819" lon="17.41530043298763"><ele>129.0</ele><time>2026-03-30T15:08:52Z</time></trkpt><trkpt lat="40.79433897879925" lon="17.41533266162609"><ele>129.0</ele><time>2026-03-30T15:08:54Z</time></trkpt><trkpt lat="40.79421919704728" lon="17.415351246426244"><ele>129.0</ele><time>2026-03-30T15:08:56Z</time></trkpt><trkpt lat="40.794156396911156" lon="17.415358102536686"><ele>129.0</ele><time>2026-03-30T15:08:57Z</time></trkpt><trkpt lat="40.79403989888164" lon="17.415359548237085"><ele>130.25</ele><time>2026-03-30T15:08:58.999Z</time></trkpt><trkpt lat="40.79392009032002" lon="17.41534886497526"><ele>131.5</ele><time>2026-03-30T15:09:00.999Z</time></trkpt><trkpt lat="40.7938041563556" lon="17.415324037787837"><ele>132.75</ele><time>2026-03-30T15:09:02.999Z</time></trkpt><trkpt lat="40.79368333818642" lon="17.415297219434372"><ele>134.0</ele><time>2026-03-30T15:09:04.999Z</time></trkpt><trkpt lat="40.7935697154215" lon="17.41525650123413"><ele>134.4</ele><time>2026-03-30T15:09:06.999Z</time></trkpt><trkpt lat="40.793460129192404" lon="17.415207441693944"><ele>134.8</ele><time>2026-03-30T15:09:08.999Z</time></trkpt><trkpt lat="40.793400089135666" lon="17.415179364078895"><ele>135.2</ele><time>2026-03-30T15:09:09.999Z</time></trkpt><trkpt lat="40.79333434080396" lon="17.415145769758965"><ele>135.6</ele><time>2026-03-30T15:09:10.999Z</time></trkpt><trkpt lat="40.79323714907205" lon="17.415090135151786"><ele>136.0</ele><time>2026-03-30T15:09:12.999Z</time></trkpt><trkpt lat="40.793141445607034" lon="17.41501861513393"><ele>136.0</ele><time>2026-03-30T15:09:14.999Z</time></trkpt><trkpt lat="40.793055361884306" lon="17.414942259945377"><ele>136.0</ele><time>2026-03-30T15:09:16.999Z</time></trkpt><trkpt lat="40.79296088465177" lon="17.41486934402809"><ele>136.0</ele><time>2026-03-30T15:09:18.999Z</time></trkpt><trkpt lat="40.79286353882084" lon="17.41479149610902"><ele>136.0</ele><time>2026-03-30T15:09:20.999Z</time></trkpt><trkpt lat="40.79277182991286" lon="17.414715251933828"><ele>136.0</ele><time>2026-03-30T15:09:22.999Z</time></trkpt><trkpt lat="40.792670461458464" lon="17.41463607805996"><ele>136.8</ele><time>2026-03-30T15:09:24.999Z</time></trkpt><trkpt lat="40.79261518702198" lon="17.414595724792093"><ele>137.6</ele><time>2026-03-30T15:09:25.999Z</time></trkpt><trkpt lat="40.7925238511255" lon="17.41451538588303"><ele>138.4</ele><time>2026-03-30T15:09:27.999Z</time></trkpt><trkpt lat="40.79242029785182" lon="17.414440318974606"><ele>139.2</ele><time>2026-03-30T15:09:29.999Z</time></trkpt><trkpt lat="40.79231925043337" lon="17.414359565959323"><ele>140.0</ele><time>2026-03-30T15:09:31.999Z</time></trkpt><trkpt lat="40.792222295387305" lon="17.4142804106614"><ele>140.0</ele><time>2026-03-30T15:09:33.999Z</time></trkpt><trkpt lat="40.79212326645934" lon="17.414204644604926"><ele>140.0</ele><time>2026-03-30T15:09:35.999Z</time></trkpt><trkpt lat="40.79202759764419" lon="17.41412846430646"><ele>140.0</ele><time>2026-03-30T15:09:37.999Z</time></trkpt><trkpt lat="40.79192837750304" lon="17.414057831803213"><ele>140.0</ele><time>2026-03-30T15:09:39.999Z</time></trkpt><trkpt lat="40.79182952754036" lon="17.41399755080901"><ele>140.0</ele><time>2026-03-30T15:09:41.999Z</time></trkpt><trkpt lat="40.791732227984085" lon="17.41393244933819"><ele>140.4</ele><time>2026-03-30T15:09:43.999Z</time></trkpt><trkpt lat="40.79163275809581" lon="17.413870659696247"><ele>140.8</ele><time>2026-03-30T15:09:45.998Z</time></trkpt><trkpt lat="40.79152957421982" lon="17.413818719329647"><ele>141.2</ele><time>2026-03-30T15:09:47.998Z</time></trkpt><trkpt lat="40.791433532236724" lon="17.413761799812306"><ele>141.6</ele><time>2026-03-30T15:09:49.998Z</time></trkpt><trkpt lat="40.79137053438318" lon="17.41374370092481"><ele>142.0</ele><time>2026-03-30T15:09:50.998Z</time></trkpt><trkpt lat="40.79126777250536" lon="17.413705942971113"><ele>143.0</ele><time>2026-03-30T15:09:52.998Z</time></trkpt><trkpt lat="40.79115767236325" lon="17.413665801884548"><ele>144.0</ele><time>2026-03-30T15:09:54.998Z</time></trkpt><trkpt lat="40.79104461347453" lon="17.41363680381708"><ele>145.0</ele><time>2026-03-30T15:09:56.998Z</time></trkpt><trkpt lat="40.7909308347026" lon="17.413624353073374"><ele>146.0</ele><time>2026-03-30T15:09:58.998Z</time></trkpt><trkpt lat="40.790814806153264" lon="17.41360444050136"><ele>146.25</ele><time>2026-03-30T15:10:00.998Z</time></trkpt><trkpt lat="40.79069762755594" lon="17.41359375276001"><ele>146.5</ele><time>2026-03-30T15:10:02.998Z</time></trkpt><trkpt lat="40.79058067885774" lon="17.413594391051422"><ele>146.75</ele><time>2026-03-30T15:10:04.998Z</time></trkpt><trkpt lat="40.79046841774978" lon="17.413591515949772"><ele>147.0</ele><time>2026-03-30T15:10:06.998Z</time></trkpt><trkpt lat="40.79035553778185" lon="17.41359153816295"><ele>147.0</ele><time>2026-03-30T15:10:08.998Z</time></trkpt><trkpt lat="40.79023938159154" lon="17.413614866758827"><ele>147.0</ele><time>2026-03-30T15:10:10.998Z</time></trkpt><trkpt lat="40.790119788747546" lon="17.413656902704872"><ele>147.0</ele><time>2026-03-30T15:10:12.998Z</time></trkpt><trkpt lat="40.790016235916305" lon="17.413657855219224"><ele>147.0</ele><time>2026-03-30T15:10:14.998Z</time></trkpt><trkpt lat="40.78991015776977" lon="17.413704421073557"><ele>147.4</ele><time>2026-03-30T15:10:16.998Z</time></trkpt><trkpt lat="40.789803646100665" lon="17.413741348360112"><ele>147.79999999999998</ele><time>2026-03-30T15:10:18.998Z</time></trkpt><trkpt lat="40.789740767086066" lon="17.413761943282008"><ele>148.2</ele><time>2026-03-30T15:10:19.998Z</time></trkpt><trkpt lat="40.78964050882791" lon="17.413792913579655"><ele>148.6</ele><time>2026-03-30T15:10:21.998Z</time></trkpt><trkpt lat="40.789540423637256" lon="17.413817316897756"><ele>149.0</ele><time>2026-03-30T15:10:23.998Z</time></trkpt><trkpt lat="40.789437542616476" lon="17.413849222109018"><ele>150.4</ele><time>2026-03-30T15:10:26Z</time></trkpt><trkpt lat="40.78933877070573" lon="17.4138800121292"><ele>151.8</ele><time>2026-03-30T15:10:28Z</time></trkpt><trkpt lat="40.78924219059675" lon="17.413902562788838"><ele>153.2</ele><time>2026-03-30T15:10:30Z</time></trkpt><trkpt lat="40.78914821686481" lon="17.413925593328262"><ele>154.6</ele><time>2026-03-30T15:10:32Z</time></trkpt><trkpt lat="40.78905056745627" lon="17.413961624955906"><ele>156.0</ele><time>2026-03-30T15:10:34Z</time></trkpt><trkpt lat="40.788969901785556" lon="17.4139804029641"><ele>156.0</ele><time>2026-03-30T15:10:36Z</time></trkpt><trkpt lat="40.788877823860595" lon="17.414009656063424"><ele>156.0</ele><time>2026-03-30T15:10:38Z</time></trkpt><trkpt lat="40.788777596741575" lon="17.414017374502777"><ele>156.0</ele><time>2026-03-30T15:10:40Z</time></trkpt><trkpt lat="40.78867798688729" lon="17.414045615119456"><ele>156.0</ele><time>2026-03-30T15:10:42Z</time></trkpt><trkpt lat="40.788596101648146" lon="17.41409562438487"><ele>156.0</ele><time>2026-03-30T15:10:44Z</time></trkpt><trkpt lat="40.78852051729533" lon="17.414109451772212"><ele>158.0</ele><time>2026-03-30T15:10:46Z</time></trkpt><trkpt lat="40.78844392528951" lon="17.414127389858074"><ele>160.0</ele><time>2026-03-30T15:10:48Z</time></trkpt><trkpt lat="40.78836125622735" lon="17.41415626223346"><ele>162.0</ele><time>2026-03-30T15:10:50Z</time></trkpt><trkpt lat="40.788279780165" lon="17.414181018524094"><ele>164.0</ele><time>2026-03-30T15:10:52Z</time></trkpt><trkpt lat="40.7881895955543" lon="17.41421071608017"><ele>166.0</ele><time>2026-03-30T15:10:54Z</time></trkpt><trkpt lat="40.78811255217864" lon="17.41423309067281"><ele>168.0</ele><time>2026-03-30T15:10:56Z</time></trkpt><trkpt lat="40.7880268634596" lon="17.41425853450493"><ele>168.0</ele><time>2026-03-30T15:10:58Z</time></trkpt><trkpt lat="40.78793984653988" lon="17.414290443541685"><ele>168.0</ele><time>2026-03-30T15:11:00Z</time></trkpt><trkpt lat="40.787857517217184" lon="17.41432286320919"><ele>168.0</ele><time>2026-03-30T15:11:02Z</time></trkpt><trkpt lat="40.78777619660921" lon="17.414359912651847"><ele>168.0</ele><time>2026-03-30T15:11:04Z</time></trkpt><trkpt lat="40.78770225237217" lon="17.41440712502425"><ele>168.0</ele><time>2026-03-30T15:11:05.999Z</time></trkpt><trkpt lat="40.78761602865428" lon="17.414456967339973"><ele>168.0</ele><time>2026-03-30T15:11:07.999Z</time></trkpt><trkpt lat="40.787529259932874" lon="17.414516623714857"><ele>168.8</ele><time>2026-03-30T15:11:09.999Z</time></trkpt><trkpt lat="40.78744583100793" lon="17.414569201281783"><ele>169.60000000000002</ele><time>2026-03-30T15:11:11.999Z</time></trkpt><trkpt lat="40.787358433922556" lon="17.414633691284028"><ele>170.39999999999998</ele><time>2026-03-30T15:11:13.999Z</time></trkpt><trkpt lat="40.787278126540336" lon="17.4146973636924"><ele>171.2</ele><time>2026-03-30T15:11:15.999Z</time></trkpt><trkpt lat="40.78719903796348" lon="17.414766104975183"><ele>172.0</ele><time>2026-03-30T15:11:17.999Z</time></trkpt><trkpt lat="40.78712194986148" lon="17.414842802675672"><ele>172.0</ele><time>2026-03-30T15:11:19.999Z</time></trkpt><trkpt lat="40.787043947801756" lon="17.41491327896759"><ele>172.0</ele><time>2026-03-30T15:11:21.999Z</time></trkpt><trkpt lat="40.78696940864823" lon="17.41499232034348"><ele>172.0</ele><time>2026-03-30T15:11:23.999Z</time></trkpt><trkpt lat="40.78690062534822" lon="17.41507271747213"><ele>172.0</ele><time>2026-03-30T15:11:25.999Z</time></trkpt><trkpt lat="40.78683412953482" lon="17.415160889260854"><ele>172.0</ele><time>2026-03-30T15:11:27.999Z</time></trkpt><trkpt lat="40.78677087376401" lon="17.415248595854838"><ele>173.16666666666669</ele><time>2026-03-30T15:11:29.999Z</time></trkpt><trkpt lat="40.78670315456558" lon="17.41533652743012"><ele>174.33333333333334</ele><time>2026-03-30T15:11:31.999Z</time></trkpt><trkpt lat="40.78664840068014" lon="17.415388964694216"><ele>175.5</ele><time>2026-03-30T15:11:32.999Z</time></trkpt><trkpt lat="40.78659247172518" lon="17.415477102645685"><ele>176.66666666666666</ele><time>2026-03-30T15:11:34.999Z</time></trkpt><trkpt lat="40.78653307488628" lon="17.415567218378193"><ele>177.83333333333331</ele><time>2026-03-30T15:11:36.999Z</time></trkpt><trkpt lat="40.786467661201016" lon="17.41565359837086"><ele>179.0</ele><time>2026-03-30T15:11:38.999Z</time></trkpt><trkpt lat="40.786404725723784" lon="17.415738614651875"><ele>179.0</ele><time>2026-03-30T15:11:40.999Z</time></trkpt><trkpt lat="40.78634560475585" lon="17.415823495070885"><ele>179.0</ele><time>2026-03-30T15:11:42.999Z</time></trkpt><trkpt lat="40.78628157078005" lon="17.415913718573307"><ele>179.0</ele><time>2026-03-30T15:11:44.999Z</time></trkpt><trkpt lat="40.78622182933909" lon="17.415995032389745"><ele>179.0</ele><time>2026-03-30T15:11:46.999Z</time></trkpt><trkpt lat="40.78615652558241" lon="17.41608670921875"><ele>179.0</ele><time>2026-03-30T15:11:48.999Z</time></trkpt><trkpt lat="40.78609309183796" lon="17.416181562995156"><ele>179.0</ele><time>2026-03-30T15:11:50.999Z</time></trkpt><trkpt lat="40.78602717730823" lon="17.41627903444084"><ele>179.0</ele><time>2026-03-30T15:11:52.998Z</time></trkpt><trkpt lat="40.785963799543566" lon="17.41636449328157"><ele>179.0</ele><time>2026-03-30T15:11:54.998Z</time></trkpt><trkpt lat="40.785899685698276" lon="17.416456470631257"><ele>179.0</ele><time>2026-03-30T15:11:56.998Z</time></trkpt><trkpt lat="40.78583071396651" lon="17.41654731196014"><ele>179.0</ele><time>2026-03-30T15:11:58.998Z</time></trkpt><trkpt lat="40.78576025343494" lon="17.416639577932106"><ele>181.0</ele><time>2026-03-30T15:12:00.998Z</time></trkpt><trkpt lat="40.78569029836745" lon="17.416737567951426"><ele>183.0</ele><time>2026-03-30T15:12:02.998Z</time></trkpt><trkpt lat="40.78561947304626" lon="17.41683359917737"><ele>185.0</ele><time>2026-03-30T15:12:04.998Z</time></trkpt><trkpt lat="40.78554467452932" lon="17.416931903801114"><ele>187.0</ele><time>2026-03-30T15:12:06.998Z</time></trkpt><trkpt lat="40.785502550003535" lon="17.41699815030159"><ele>189.0</ele><time>2026-03-30T15:12:07.998Z</time></trkpt><trkpt lat="40.78542589375844" lon="17.41709960381348"><ele>187.75</ele><time>2026-03-30T15:12:09.998Z</time></trkpt><trkpt lat="40.78534489390116" lon="17.417210765078018"><ele>186.5</ele><time>2026-03-30T15:12:11.998Z</time></trkpt><trkpt lat="40.78526164274053" lon="17.417315723851413"><ele>185.25</ele><time>2026-03-30T15:12:13.998Z</time></trkpt><trkpt lat="40.78517547068701" lon="17.417413997373615"><ele>184.0</ele><time>2026-03-30T15:12:15.998Z</time></trkpt><trkpt lat="40.78508487862766" lon="17.41751258484952"><ele>188.25</ele><time>2026-03-30T15:12:17.998Z</time></trkpt><trkpt lat="40.78498885117938" lon="17.417602276088672"><ele>192.5</ele><time>2026-03-30T15:12:19.998Z</time></trkpt><trkpt lat="40.784887976820805" lon="17.41768659612875"><ele>196.75</ele><time>2026-03-30T15:12:21.998Z</time></trkpt><trkpt lat="40.78478708160051" lon="17.417747214112907"><ele>201.0</ele><time>2026-03-30T15:12:23.998Z</time></trkpt><trkpt lat="40.784689147841064" lon="17.417824971613918"><ele>201.0</ele><time>2026-03-30T15:12:25.998Z</time></trkpt><trkpt lat="40.78458977978389" lon="17.41789922367359"><ele>201.0</ele><time>2026-03-30T15:12:27.998Z</time></trkpt><trkpt lat="40.78448887176586" lon="17.417971899196964"><ele>201.0</ele><time>2026-03-30T15:12:29.998Z</time></trkpt><trkpt lat="40.784390056238124" lon="17.418045119332678"><ele>201.0</ele><time>2026-03-30T15:12:32Z</time></trkpt><trkpt lat="40.784292349665215" lon="17.418117736523083"><ele>202.25</ele><time>2026-03-30T15:12:34Z</time></trkpt><trkpt lat="40.78419244263874" lon="17.418189124486418"><ele>203.5</ele><time>2026-03-30T15:12:36Z</time></trkpt><trkpt lat="40.784092155081865" lon="17.418253944644135"><ele>204.75</ele><time>2026-03-30T15:12:38Z</time></trkpt><trkpt lat="40.783991069180615" lon="17.418334922844636"><ele>206.0</ele><time>2026-03-30T15:12:40Z</time></trkpt><trkpt lat="40.783888461433044" lon="17.418407003350243"><ele>206.0</ele><time>2026-03-30T15:12:42Z</time></trkpt><trkpt lat="40.78378474351501" lon="17.418489559060376"><ele>206.0</ele><time>2026-03-30T15:12:44Z</time></trkpt><trkpt lat="40.783676733838526" lon="17.41855393237033"><ele>206.0</ele><time>2026-03-30T15:12:46Z</time></trkpt><trkpt lat="40.78357359605132" lon="17.41863697898187"><ele>206.0</ele><time>2026-03-30T15:12:48Z</time></trkpt><trkpt lat="40.783476459469234" lon="17.418728544061356"><ele>206.75</ele><time>2026-03-30T15:12:50Z</time></trkpt><trkpt lat="40.783381615820176" lon="17.418803787275948"><ele>207.5</ele><time>2026-03-30T15:12:52Z</time></trkpt><trkpt lat="40.783279869304096" lon="17.41888367947862"><ele>208.25</ele><time>2026-03-30T15:12:54Z</time></trkpt><trkpt lat="40.78318684798687" lon="17.41896962636484"><ele>209.0</ele><time>2026-03-30T15:12:56Z</time></trkpt><trkpt lat="40.783087925274216" lon="17.41905577713399"><ele>209.0</ele><time>2026-03-30T15:12:58Z</time></trkpt><trkpt lat="40.78299033932031" lon="17.41914484695947"><ele>209.0</ele><time>2026-03-30T15:13:00Z</time></trkpt><trkpt lat="40.78289703370393" lon="17.41922708976043"><ele>209.0</ele><time>2026-03-30T15:13:02Z</time></trkpt><trkpt lat="40.782808646386705" lon="17.41931432355363"><ele>209.0</ele><time>2026-03-30T15:13:04Z</time></trkpt><trkpt lat="40.782720630312234" lon="17.419389096424947"><ele>209.0</ele><time>2026-03-30T15:13:06Z</time></trkpt><trkpt lat="40.782635969169334" lon="17.41947146842003"><ele>208.79999999999998</ele><time>2026-03-30T15:13:08Z</time></trkpt><trkpt lat="40.78254969959917" lon="17.419549567791623"><ele>208.6</ele><time>2026-03-30T15:13:09.999Z</time></trkpt><trkpt lat="40.78246471015426" lon="17.41963187434426"><ele>208.4</ele><time>2026-03-30T15:13:11.999Z</time></trkpt><trkpt lat="40.78240314176264" lon="17.41967202520116"><ele>208.2</ele><time>2026-03-30T15:13:12.999Z</time></trkpt><trkpt lat="40.78232895094319" lon="17.41974643996678"><ele>208.0</ele><time>2026-03-30T15:13:14.999Z</time></trkpt><trkpt lat="40.782247016800774" lon="17.41982285389697"><ele>207.99999999999997</ele><time>2026-03-30T15:13:16.999Z</time></trkpt><trkpt lat="40.78217703724084" lon="17.41990480134562"><ele>208.0</ele><time>2026-03-30T15:13:18.999Z</time></trkpt><trkpt lat="40.782125145391944" lon="17.419963481956973"><ele>208.0</ele><time>2026-03-30T15:13:20.999Z</time></trkpt><trkpt lat="40.78205383285516" lon="17.419947308224767"><ele>208.0</ele><time>2026-03-30T15:13:24.999Z</time></trkpt><trkpt lat="40.781974238578364" lon="17.419973706392145"><ele>207.99999999999997</ele><time>2026-03-30T15:13:41.999Z</time></trkpt><trkpt lat="40.781902571134424" lon="17.41996875669104"><ele>208.0</ele><time>2026-03-30T15:13:46.999Z</time></trkpt><trkpt lat="40.781838234904754" lon="17.419974699334894"><ele>209.83333333333331</ele><time>2026-03-30T15:13:50.999Z</time></trkpt><trkpt lat="40.78177209605115" lon="17.420008611086335"><ele>211.66666666666666</ele><time>2026-03-30T15:13:55.999Z</time></trkpt><trkpt lat="40.78169889018108" lon="17.4199876366606"><ele>213.5</ele><time>2026-03-30T15:14:10.998Z</time></trkpt><trkpt lat="40.78161543882012" lon="17.41998359516256"><ele>215.33333333333331</ele><time>2026-03-30T15:14:13.998Z</time></trkpt><trkpt lat="40.78152857065951" lon="17.42003337746912"><ele>217.16666666666666</ele><time>2026-03-30T15:14:16.998Z</time></trkpt><trkpt lat="40.781458554937785" lon="17.420046426321502"><ele>219.0</ele><time>2026-03-30T15:14:18.998Z</time></trkpt><trkpt lat="40.78137128487303" lon="17.420065043884605"><ele>219.0</ele><time>2026-03-30T15:14:21.998Z</time></trkpt><trkpt lat="40.78128378207871" lon="17.420092216562438"><ele>219.0</ele><time>2026-03-30T15:14:24.998Z</time></trkpt><trkpt lat="40.78121121523579" lon="17.420131331938194"><ele>219.0</ele><time>2026-03-30T15:14:28.998Z</time></trkpt><trkpt lat="40.78115840063915" lon="17.420218275342783"><ele>219.0</ele><time>2026-03-30T15:14:40Z</time></trkpt><trkpt lat="40.78107895201627" lon="17.420236986828012"><ele>219.0</ele><time>2026-03-30T15:14:43Z</time></trkpt><trkpt lat="40.78103848431058" lon="17.4203107442527"><ele>219.0</ele><time>2026-03-30T15:14:47Z</time></trkpt><trkpt lat="40.78097646557935" lon="17.420375741632338"><ele>220.16666666666666</ele><time>2026-03-30T15:14:49Z</time></trkpt><trkpt lat="40.78092329966738" lon="17.420420362142266"><ele>221.33333333333331</ele><time>2026-03-30T15:14:51Z</time></trkpt><trkpt lat="40.78085314474191" lon="17.420507841775716"><ele>222.5</ele><time>2026-03-30T15:14:54Z</time></trkpt><trkpt lat="40.780805910244254" lon="17.42058461580071"><ele>223.66666666666666</ele><time>2026-03-30T15:14:56Z</time></trkpt><trkpt lat="40.78074425497985" lon="17.4206509390961"><ele>224.83333333333331</ele><time>2026-03-30T15:14:57Z</time></trkpt><trkpt lat="40.780691340723486" lon="17.42073163617933"><ele>226.0</ele><time>2026-03-30T15:15:00Z</time></trkpt><trkpt lat="40.780646743571005" lon="17.42080669942927"><ele>225.99999999999997</ele><time>2026-03-30T15:15:02Z</time></trkpt><trkpt lat="40.78057576986146" lon="17.4208823174914"><ele>226.0</ele><time>2026-03-30T15:15:05Z</time></trkpt><trkpt lat="40.780522423297235" lon="17.420953114559435"><ele>226.0</ele><time>2026-03-30T15:15:07Z</time></trkpt><trkpt lat="40.78043308450638" lon="17.42104658283861"><ele>226.0</ele><time>2026-03-30T15:15:10Z</time></trkpt><trkpt lat="40.7803686785324" lon="17.42111664674013"><ele>225.99999999999997</ele><time>2026-03-30T15:15:13Z</time></trkpt><trkpt lat="40.78034168375726" lon="17.421193323805202"><ele>226.0</ele><time>2026-03-30T15:15:15Z</time></trkpt><trkpt lat="40.780299893424946" lon="17.421274523273684"><ele>224.75</ele><time>2026-03-30T15:15:17Z</time></trkpt><trkpt lat="40.78025694701523" lon="17.421366248792932"><ele>223.5</ele><time>2026-03-30T15:15:18.999Z</time></trkpt><trkpt lat="40.78023538333229" lon="17.421465510690734"><ele>222.25</ele><time>2026-03-30T15:15:20.999Z</time></trkpt><trkpt lat="40.78018687408129" lon="17.42175377227967"><ele>221.0</ele><time>2026-03-30T15:15:27.999Z</time></trkpt><trkpt lat="40.78017351171715" lon="17.42185252380086"><ele>226.00000000000003</ele><time>2026-03-30T15:15:29.999Z</time></trkpt><trkpt lat="40.7801494094091" lon="17.421945670589196"><ele>231.0</ele><time>2026-03-30T15:15:31.999Z</time></trkpt><trkpt lat="40.78011511523966" lon="17.422020737776585"><ele>236.0</ele><time>2026-03-30T15:15:33.999Z</time></trkpt><trkpt lat="40.780100500758024" lon="17.422118280788318"><ele>241.0</ele><time>2026-03-30T15:15:35.999Z</time></trkpt><trkpt lat="40.78008188159865" lon="17.422215689976863"><ele>246.00000000000003</ele><time>2026-03-30T15:15:37.999Z</time></trkpt><trkpt lat="40.780058986258865" lon="17.422343551624433"><ele>251.0</ele><time>2026-03-30T15:15:40.999Z</time></trkpt><trkpt lat="40.78004709353188" lon="17.42245740874633"><ele>251.16666666666669</ele><time>2026-03-30T15:15:43.999Z</time></trkpt><trkpt lat="40.78004492275748" lon="17.42254402696709"><ele>251.33333333333334</ele><time>2026-03-30T15:15:45.999Z</time></trkpt><trkpt lat="40.780044711250326" lon="17.422630950912083"><ele>251.5</ele><time>2026-03-30T15:15:47.999Z</time></trkpt><trkpt lat="40.78003630716161" lon="17.42276246449298"><ele>251.66666666666669</ele><time>2026-03-30T15:15:50.999Z</time></trkpt><trkpt lat="40.780004662002625" lon="17.422862430532486"><ele>251.83333333333334</ele><time>2026-03-30T15:15:53.999Z</time></trkpt><trkpt lat="40.779986952437866" lon="17.422977659984408"><ele>252.0</ele><time>2026-03-30T15:15:56.999Z</time></trkpt><trkpt lat="40.77998032646325" lon="17.42309560745712"><ele>252.66666666666666</ele><time>2026-03-30T15:15:59.999Z</time></trkpt><trkpt lat="40.77996604020274" lon="17.423198677785088"><ele>253.33333333333331</ele><time>2026-03-30T15:16:02.999Z</time></trkpt><trkpt lat="40.779953206590726" lon="17.423304495134992"><ele>254.0</ele><time>2026-03-30T15:16:05.998Z</time></trkpt><trkpt lat="40.77994235742265" lon="17.423415967038487"><ele>254.66666666666666</ele><time>2026-03-30T15:16:08.998Z</time></trkpt><trkpt lat="40.77992921245675" lon="17.423513744164733"><ele>255.33333333333331</ele><time>2026-03-30T15:16:11.998Z</time></trkpt><trkpt lat="40.77993235266426" lon="17.423600164074802"><ele>256.0</ele><time>2026-03-30T15:16:14.998Z</time></trkpt><trkpt lat="40.77996633890522" lon="17.423719042775"><ele>257.16666666666663</ele><time>2026-03-30T15:16:17.998Z</time></trkpt><trkpt lat="40.779986946145485" lon="17.42382046901909"><ele>258.3333333333333</ele><time>2026-03-30T15:16:19.998Z</time></trkpt><trkpt lat="40.77999621608547" lon="17.42392296731154"><ele>259.5</ele><time>2026-03-30T15:16:21.998Z</time></trkpt><trkpt lat="40.780051833193376" lon="17.423966370277476"><ele>260.6666666666667</ele><time>2026-03-30T15:16:25.998Z</time></trkpt><trkpt lat="40.7801029346132" lon="17.424065789448857"><ele>261.83333333333337</ele><time>2026-03-30T15:16:28.998Z</time></trkpt><trkpt lat="40.78014257620079" lon="17.42414931053047"><ele>263.0</ele><time>2026-03-30T15:16:30.998Z</time></trkpt><trkpt lat="40.780185993427885" lon="17.424239938643954"><ele>257.6666666666667</ele><time>2026-03-30T15:16:32.998Z</time></trkpt><trkpt lat="40.78021964798589" lon="17.424346837378096"><ele>252.33333333333334</ele><time>2026-03-30T15:16:35.998Z</time></trkpt><trkpt lat="40.78028973771116" lon="17.424386929199123"><ele>247.0</ele><time>2026-03-30T15:16:37.998Z</time></trkpt><trkpt lat="40.78032688335111" lon="17.424484106990203"><ele>241.66666666666669</ele><time>2026-03-30T15:16:39.998Z</time></trkpt><trkpt lat="40.780346472808304" lon="17.424584574098702"><ele>236.33333333333334</ele><time>2026-03-30T15:16:41.998Z</time></trkpt><trkpt lat="40.78039769887784" lon="17.424676108935813"><ele>231.0</ele><time>2026-03-30T15:16:46Z</time></trkpt><trkpt lat="40.780449439393315" lon="17.424751779303833"><ele>231.0</ele><time>2026-03-30T15:16:49Z</time></trkpt><trkpt lat="40.780496772318955" lon="17.42481945199601"><ele>231.00000000000003</ele><time>2026-03-30T15:16:51Z</time></trkpt><trkpt lat="40.780525903753166" lon="17.424911599544675"><ele>231.00000000000003</ele><time>2026-03-30T15:16:54Z</time></trkpt><trkpt lat="40.78062335979311" lon="17.42504081908789"><ele>231.0</ele><time>2026-03-30T15:16:58Z</time></trkpt><trkpt lat="40.78067934080263" lon="17.42514268980167"><ele>231.0</ele><time>2026-03-30T15:17:01Z</time></trkpt><trkpt lat="40.780709512243796" lon="17.425242036318185"><ele>231.0</ele><time>2026-03-30T15:17:03Z</time></trkpt><trkpt lat="40.78076304066707" lon="17.425326654764355"><ele>231.0</ele><time>2026-03-30T15:17:07Z</time></trkpt><trkpt lat="40.78083869818837" lon="17.425415605077358"><ele>231.0</ele><time>2026-03-30T15:17:10Z</time></trkpt><trkpt lat="40.78088322531496" lon="17.425511851144133"><ele>231.0</ele><time>2026-03-30T15:17:12Z</time></trkpt><trkpt lat="40.780932119355484" lon="17.425568989089026"><ele>231.0</ele><time>2026-03-30T15:17:14Z</time></trkpt><trkpt lat="40.78100088711025" lon="17.42562177645194"><ele>231.0</ele><time>2026-03-30T15:17:17Z</time></trkpt><trkpt lat="40.78103596047303" lon="17.425750352811512"><ele>226.33333333333334</ele><time>2026-03-30T15:17:20Z</time></trkpt><trkpt lat="40.78109058610415" lon="17.42583107815231"><ele>221.66666666666669</ele><time>2026-03-30T15:17:22.999Z</time></trkpt><trkpt lat="40.78114089828258" lon="17.42591350733031"><ele>217.0</ele><time>2026-03-30T15:17:24.999Z</time></trkpt><trkpt lat="40.781198777512785" lon="17.4259841456161"><ele>212.33333333333334</ele><time>2026-03-30T15:17:26.999Z</time></trkpt><trkpt lat="40.78122229865217" lon="17.426074535636477"><ele>207.66666666666669</ele><time>2026-03-30T15:17:28.999Z</time></trkpt><trkpt lat="40.781275279713775" lon="17.42617260995982"><ele>203.0</ele><time>2026-03-30T15:17:31.999Z</time></trkpt><trkpt lat="40.78132294935376" lon="17.426244200365442"><ele>203.00000000000003</ele><time>2026-03-30T15:17:33.999Z</time></trkpt><trkpt lat="40.781369650680325" lon="17.426320343354547"><ele>203.0</ele><time>2026-03-30T15:17:35.999Z</time></trkpt><trkpt lat="40.7814026464046" lon="17.42639419195038"><ele>203.0</ele><time>2026-03-30T15:17:37.999Z</time></trkpt><trkpt lat="40.78145547161151" lon="17.426442199358405"><ele>203.0</ele><time>2026-03-30T15:17:39.999Z</time></trkpt><trkpt lat="40.781517034393005" lon="17.426536781843488"><ele>203.00000000000003</ele><time>2026-03-30T15:17:42.999Z</time></trkpt><trkpt lat="40.78158536707288" lon="17.426603973466943"><ele>203.0</ele><time>2026-03-30T15:17:46.999Z</time></trkpt><trkpt lat="40.78165574684608" lon="17.426640514946836"><ele>203.00000000000003</ele><time>2026-03-30T15:17:48.999Z</time></trkpt><trkpt lat="40.78172646337321" lon="17.426690199467718"><ele>203.0</ele><time>2026-03-30T15:17:50.999Z</time></trkpt><trkpt lat="40.78177759579477" lon="17.42673937413244"><ele>203.0</ele><time>2026-03-30T15:17:52.999Z</time></trkpt><trkpt lat="40.78184968110923" lon="17.426728982208132"><ele>203.0</ele><time>2026-03-30T15:18:07.998Z</time></trkpt><trkpt lat="40.78183325589262" lon="17.426626505558133"><ele>203.00000000000003</ele><time>2026-03-30T15:18:11.998Z</time></trkpt><trkpt lat="40.781826193997134" lon="17.42652414713898"><ele>203.0</ele><time>2026-03-30T15:18:14.998Z</time></trkpt><trkpt lat="40.781815458920796" lon="17.426408720574685"><ele>203.00000000000003</ele><time>2026-03-30T15:18:17.998Z</time></trkpt><trkpt lat="40.78181336694004" lon="17.426309400975857"><ele>203.0</ele><time>2026-03-30T15:18:19.998Z</time></trkpt><trkpt lat="40.78179619985593" lon="17.426208536810133"><ele>203.0</ele><time>2026-03-30T15:18:21.998Z</time></trkpt><trkpt lat="40.78178217623157" lon="17.426105529732066"><ele>203.0</ele><time>2026-03-30T15:18:23.998Z</time></trkpt><trkpt lat="40.781766099682294" lon="17.425996540075662"><ele>203.00000000000003</ele><time>2026-03-30T15:18:25.998Z</time></trkpt><trkpt lat="40.7817422369347" lon="17.42587363425499"><ele>203.0</ele><time>2026-03-30T15:18:27.998Z</time></trkpt><trkpt lat="40.78173134337032" lon="17.42578218381675"><ele>203.00000000000003</ele><time>2026-03-30T15:18:29.998Z</time></trkpt><trkpt lat="40.781710799350556" lon="17.42566960059489"><ele>203.0</ele><time>2026-03-30T15:18:31.998Z</time></trkpt><trkpt lat="40.781678022142465" lon="17.425556049935405"><ele>203.0</ele><time>2026-03-30T15:18:33.998Z</time></trkpt><trkpt lat="40.78165119771472" lon="17.42547890242264"><ele>203.0</ele><time>2026-03-30T15:18:34.998Z</time></trkpt><trkpt lat="40.78162356762725" lon="17.425361528923528"><ele>203.00000000000003</ele><time>2026-03-30T15:18:36.998Z</time></trkpt><trkpt lat="40.78159603604943" lon="17.42522684590144"><ele>203.0</ele><time>2026-03-30T15:18:38.998Z</time></trkpt><trkpt lat="40.78155981049739" lon="17.425105483031306"><ele>203.25</ele><time>2026-03-30T15:18:40.998Z</time></trkpt><trkpt lat="40.7815214127643" lon="17.424954455658895"><ele>203.5</ele><time>2026-03-30T15:18:42.998Z</time></trkpt><trkpt lat="40.781484124024615" lon="17.424814006895645"><ele>203.75</ele><time>2026-03-30T15:18:44.998Z</time></trkpt><trkpt lat="40.78145318782824" lon="17.424656476888643"><ele>204.0</ele><time>2026-03-30T15:18:46.998Z</time></trkpt><trkpt lat="40.7814137441068" lon="17.42450933245616"><ele>203.0</ele><time>2026-03-30T15:18:48.998Z</time></trkpt><trkpt lat="40.78137597772156" lon="17.42435094176215"><ele>202.0</ele><time>2026-03-30T15:18:51Z</time></trkpt><trkpt lat="40.78134559485874" lon="17.424206020804956"><ele>201.0</ele><time>2026-03-30T15:18:53Z</time></trkpt><trkpt lat="40.78131949555087" lon="17.42405390900349"><ele>200.0</ele><time>2026-03-30T15:18:55Z</time></trkpt><trkpt lat="40.78128835057208" lon="17.423891299033947"><ele>200.0</ele><time>2026-03-30T15:18:57Z</time></trkpt><trkpt lat="40.781280861568014" lon="17.42373856040914"><ele>200.0</ele><time>2026-03-30T15:18:59Z</time></trkpt><trkpt lat="40.78128444324254" lon="17.423590898455"><ele>200.0</ele><time>2026-03-30T15:19:01Z</time></trkpt><trkpt lat="40.781281182485515" lon="17.42350634820193"><ele>200.0</ele><time>2026-03-30T15:19:02Z</time></trkpt><trkpt lat="40.78128512410603" lon="17.423337576105634"><ele>200.0</ele><time>2026-03-30T15:19:04Z</time></trkpt><trkpt lat="40.781288152127324" lon="17.423176065255674"><ele>200.0</ele><time>2026-03-30T15:19:06Z</time></trkpt><trkpt lat="40.78126138790785" lon="17.423057753620775"><ele>200.0</ele><time>2026-03-30T15:19:08Z</time></trkpt><trkpt lat="40.781204381322176" lon="17.422984374884294"><ele>200.0</ele><time>2026-03-30T15:19:10Z</time></trkpt><trkpt lat="40.78121366962929" lon="17.422862053492555"><ele>200.0</ele><time>2026-03-30T15:19:12Z</time></trkpt><trkpt lat="40.78123138846046" lon="17.422719147584097"><ele>200.0</ele><time>2026-03-30T15:19:14Z</time></trkpt><trkpt lat="40.78123817481554" lon="17.422582142032166"><ele>200.0</ele><time>2026-03-30T15:19:16Z</time></trkpt><trkpt lat="40.781253562987146" lon="17.42244264497438"><ele>200.0</ele><time>2026-03-30T15:19:18Z</time></trkpt><trkpt lat="40.78127139368359" lon="17.422308849133938"><ele>200.0</ele><time>2026-03-30T15:19:20Z</time></trkpt><trkpt lat="40.78127151378907" lon="17.42219401519408"><ele>200.0</ele><time>2026-03-30T15:19:22Z</time></trkpt><trkpt lat="40.78129386865046" lon="17.42206993643253"><ele>200.0</ele><time>2026-03-30T15:19:24Z</time></trkpt><trkpt lat="40.78131199397842" lon="17.42194773088865"><ele>200.6</ele><time>2026-03-30T15:19:26Z</time></trkpt><trkpt lat="40.78133581046689" lon="17.421804477608628"><ele>201.2</ele><time>2026-03-30T15:19:28Z</time></trkpt><trkpt lat="40.78135335080692" lon="17.421669962893667"><ele>201.8</ele><time>2026-03-30T15:19:29.999Z</time></trkpt><trkpt lat="40.78136233958325" lon="17.42154675944913"><ele>202.4</ele><time>2026-03-30T15:19:31.999Z</time></trkpt><trkpt lat="40.78138781342031" lon="17.421429139994537"><ele>203.0</ele><time>2026-03-30T15:19:34.999Z</time></trkpt><trkpt lat="40.78142085250301" lon="17.421320302991624"><ele>204.00000000000003</ele><time>2026-03-30T15:19:36.999Z</time></trkpt><trkpt lat="40.78144351395534" lon="17.421199839800245"><ele>205.0</ele><time>2026-03-30T15:19:38.999Z</time></trkpt><trkpt lat="40.78146684400354" lon="17.421101927026907"><ele>206.0</ele><time>2026-03-30T15:19:40.999Z</time></trkpt><trkpt lat="40.7813923469819" lon="17.42101534667365"><ele>207.0</ele><time>2026-03-30T15:19:44.999Z</time></trkpt><trkpt lat="40.78132640923561" lon="17.421001963300736"><ele>208.00000000000003</ele><time>2026-03-30T15:19:47.999Z</time></trkpt><trkpt lat="40.78125352388289" lon="17.420946513797556"><ele>209.0</ele><time>2026-03-30T15:19:50.999Z</time></trkpt><trkpt lat="40.7811832890692" lon="17.420936877697038"><ele>209.00000000000003</ele><time>2026-03-30T15:19:53.999Z</time></trkpt><trkpt lat="40.78111817667892" lon="17.42100378405639"><ele>209.0</ele><time>2026-03-30T15:19:55.999Z</time></trkpt><trkpt lat="40.781025554319314" lon="17.421004479162537"><ele>209.0</ele><time>2026-03-30T15:19:59.999Z</time></trkpt><trkpt lat="40.78097190647009" lon="17.420941756626014"><ele>209.0</ele><time>2026-03-30T15:20:02.999Z</time></trkpt><trkpt lat="40.78089948686414" lon="17.4208962192204"><ele>209.00000000000003</ele><time>2026-03-30T15:20:05.999Z</time></trkpt><trkpt lat="40.780852584187045" lon="17.420800976542008"><ele>209.0</ele><time>2026-03-30T15:20:08.999Z</time></trkpt><trkpt lat="40.78082670355451" lon="17.420703335727257"><ele>211.83333333333334</ele><time>2026-03-30T15:20:11.999Z</time></trkpt><trkpt lat="40.78075528841938" lon="17.420675590499574"><ele>214.66666666666669</ele><time>2026-03-30T15:20:16.998Z</time></trkpt><trkpt lat="40.78070343764777" lon="17.420742905062696"><ele>217.5</ele><time>2026-03-30T15:20:19.998Z</time></trkpt><trkpt lat="40.780640225013286" lon="17.420824705346643"><ele>220.33333333333331</ele><time>2026-03-30T15:20:23.998Z</time></trkpt><trkpt lat="40.78057758975659" lon="17.420889226589566"><ele>223.16666666666666</ele><time>2026-03-30T15:20:27.998Z</time></trkpt><trkpt lat="40.78053649391444" lon="17.420964808368005"><ele>226.0</ele><time>2026-03-30T15:20:30.998Z</time></trkpt><trkpt lat="40.780477088463755" lon="17.421012543745572"><ele>225.99999999999997</ele><time>2026-03-30T15:20:33.998Z</time></trkpt><trkpt lat="40.78041870081005" lon="17.421105393683924"><ele>226.0</ele><time>2026-03-30T15:20:36.998Z</time></trkpt><trkpt lat="40.780367293516335" lon="17.421168501226486"><ele>226.0</ele><time>2026-03-30T15:20:40.998Z</time></trkpt><trkpt lat="40.78032216954017" lon="17.421262735218104"><ele>226.0</ele><time>2026-03-30T15:20:44.998Z</time></trkpt><trkpt lat="40.7802782474761" lon="17.42134758645106"><ele>225.99999999999997</ele><time>2026-03-30T15:20:47.998Z</time></trkpt><trkpt lat="40.780247110747034" lon="17.421453866442032"><ele>226.0</ele><time>2026-03-30T15:20:50.998Z</time></trkpt><trkpt lat="40.78022989144856" lon="17.421544406408273"><ele>225.16666666666666</ele><time>2026-03-30T15:20:53.998Z</time></trkpt><trkpt lat="40.78021714079818" lon="17.421648276277296"><ele>224.33333333333331</ele><time>2026-03-30T15:20:57Z</time></trkpt><trkpt lat="40.78019681554736" lon="17.421750275696148"><ele>223.5</ele><time>2026-03-30T15:20:59Z</time></trkpt><trkpt lat="40.78019197813746" lon="17.421847463975215"><ele>222.66666666666669</ele><time>2026-03-30T15:21:01Z</time></trkpt><trkpt lat="40.7801557283827" lon="17.421954702406214"><ele>221.83333333333334</ele><time>2026-03-30T15:21:04Z</time></trkpt><trkpt lat="40.780133149806325" lon="17.422059169417295"><ele>221.0</ele><time>2026-03-30T15:21:07Z</time></trkpt><trkpt lat="40.780113229286684" lon="17.422169881017197"><ele>226.16666666666669</ele><time>2026-03-30T15:21:10Z</time></trkpt><trkpt lat="40.780083620559836" lon="17.422268296495183"><ele>231.33333333333334</ele><time>2026-03-30T15:21:13Z</time></trkpt><trkpt lat="40.780074370726275" lon="17.422367293840566"><ele>236.5</ele><time>2026-03-30T15:21:16Z</time></trkpt><trkpt lat="40.780047652601354" lon="17.42244644384647"><ele>241.66666666666669</ele><time>2026-03-30T15:21:19Z</time></trkpt><trkpt lat="40.78006349186061" lon="17.42256657827591"><ele>246.83333333333334</ele><time>2026-03-30T15:21:23Z</time></trkpt><trkpt lat="40.78000921299429" lon="17.422609956336544"><ele>252.0</ele><time>2026-03-30T15:21:30Z</time></trkpt><trkpt lat="40.77999354378089" lon="17.422501907118946"><ele>252.0</ele><time>2026-03-30T15:21:35.999Z</time></trkpt><trkpt lat="40.77995119656347" lon="17.4223911726594"><ele>252.0</ele><time>2026-03-30T15:21:39.999Z</time></trkpt><trkpt lat="40.77991654716504" lon="17.422301928994102"><ele>252.0</ele><time>2026-03-30T15:21:42.999Z</time></trkpt><trkpt lat="40.7798855209583" lon="17.422168944629576"><ele>252.0</ele><time>2026-03-30T15:21:45.999Z</time></trkpt><trkpt lat="40.77987639943142" lon="17.42207354294099"><ele>252.0</ele><time>2026-03-30T15:21:47.999Z</time></trkpt><trkpt lat="40.77986716816651" lon="17.421962388704863"><ele>252.0</ele><time>2026-03-30T15:21:50.999Z</time></trkpt><trkpt lat="40.77985283434811" lon="17.42187088298825"><ele>251.83333333333334</ele><time>2026-03-30T15:21:52.999Z</time></trkpt><trkpt lat="40.77984830200264" lon="17.42174195183943"><ele>251.66666666666669</ele><time>2026-03-30T15:21:55.999Z</time></trkpt><trkpt lat="40.77982322690162" lon="17.421641260669684"><ele>251.5</ele><time>2026-03-30T15:21:58.999Z</time></trkpt><trkpt lat="40.77981934537819" lon="17.421543325095737"><ele>251.33333333333334</ele><time>2026-03-30T15:22:00.999Z</time></trkpt><trkpt lat="40.77978304172277" lon="17.42144303553338"><ele>251.16666666666669</ele><time>2026-03-30T15:22:03.999Z</time></trkpt><trkpt lat="40.77974495216625" lon="17.421331822669515"><ele>251.0</ele><time>2026-03-30T15:22:06.999Z</time></trkpt><trkpt lat="40.77973420252103" lon="17.421234984155806"><ele>252.16666666666669</ele><time>2026-03-30T15:22:10.999Z</time></trkpt><trkpt lat="40.77969999368205" lon="17.421117436243996"><ele>253.33333333333334</ele><time>2026-03-30T15:22:14.999Z</time></trkpt><trkpt lat="40.77968487170368" lon="17.421025756329666"><ele>254.5</ele><time>2026-03-30T15:22:17.998Z</time></trkpt><trkpt lat="40.779673533953776" lon="17.420917510090685"><ele>255.66666666666669</ele><time>2026-03-30T15:22:20.998Z</time></trkpt><trkpt lat="40.77968376815296" lon="17.420809061330857"><ele>256.8333333333333</ele><time>2026-03-30T15:22:23.998Z</time></trkpt><trkpt lat="40.7797010610707" lon="17.420727975006848"><ele>258.0</ele><time>2026-03-30T15:22:25.998Z</time></trkpt><trkpt lat="40.77973237005035" lon="17.420630020224333"><ele>258.0</ele><time>2026-03-30T15:22:28.998Z</time></trkpt><trkpt lat="40.77976320040489" lon="17.420529340752857"><ele>258.0</ele><time>2026-03-30T15:22:31.998Z</time></trkpt><trkpt lat="40.779781794585475" lon="17.420440087328313"><ele>258.0</ele><time>2026-03-30T15:22:33.998Z</time></trkpt><trkpt lat="40.77981157116303" lon="17.420333910943494"><ele>258.0</ele><time>2026-03-30T15:22:36.998Z</time></trkpt><trkpt lat="40.77983672193873" lon="17.42023607304263"><ele>258.0</ele><time>2026-03-30T15:22:39.998Z</time></trkpt><trkpt lat="40.779865733799596" lon="17.420139827236945"><ele>258.0</ele><time>2026-03-30T15:22:41.998Z</time></trkpt><trkpt lat="40.77989190195856" lon="17.420060732614612"><ele>259.6666666666667</ele><time>2026-03-30T15:22:43.998Z</time></trkpt><trkpt lat="40.77989590125906" lon="17.41997756347424"><ele>261.3333333333333</ele><time>2026-03-30T15:22:45.998Z</time></trkpt><trkpt lat="40.77993076474744" lon="17.41987450638174"><ele>263.0</ele><time>2026-03-30T15:22:48.998Z</time></trkpt><trkpt lat="40.779939948216246" lon="17.419776171390325"><ele>264.66666666666663</ele><time>2026-03-30T15:22:51.998Z</time></trkpt><trkpt lat="40.779953850504505" lon="17.419661739309714"><ele>266.3333333333333</ele><time>2026-03-30T15:22:54.998Z</time></trkpt><trkpt lat="40.779964478715655" lon="17.419574153152865"><ele>268.0</ele><time>2026-03-30T15:22:57.998Z</time></trkpt><trkpt lat="40.77998291828572" lon="17.41945082511873"><ele>266.14285714285717</ele><time>2026-03-30T15:23:00.998Z</time></trkpt><trkpt lat="40.780002067006365" lon="17.419334336486248"><ele>264.2857142857143</ele><time>2026-03-30T15:23:05Z</time></trkpt><trkpt lat="40.780024303185705" lon="17.419248425003094"><ele>262.42857142857144</ele><time>2026-03-30T15:23:08Z</time></trkpt><trkpt lat="40.78002103887047" lon="17.419163560105453"><ele>260.57142857142856</ele><time>2026-03-30T15:23:11Z</time></trkpt><trkpt lat="40.780036374316516" lon="17.419066769807383"><ele>258.7142857142857</ele><time>2026-03-30T15:23:15Z</time></trkpt><trkpt lat="40.78005782072389" lon="17.418972339976104"><ele>256.8571428571429</ele><time>2026-03-30T15:23:19Z</time></trkpt><trkpt lat="40.78012005645806" lon="17.41894154661285"><ele>255.0</ele><time>2026-03-30T15:23:23Z</time></trkpt><trkpt lat="40.7801911304256" lon="17.41893914106861"><ele>255.0</ele><time>2026-03-30T15:23:26Z</time></trkpt><trkpt lat="40.780272771443265" lon="17.41897348116181"><ele>255.00000000000003</ele><time>2026-03-30T15:23:31Z</time></trkpt><trkpt lat="40.78033259420729" lon="17.41900079685943"><ele>255.0</ele><time>2026-03-30T15:23:34Z</time></trkpt><trkpt lat="40.780390814548205" lon="17.419050846544803"><ele>255.0</ele><time>2026-03-30T15:23:37.999Z</time></trkpt><trkpt lat="40.780474375529174" lon="17.419068998351122"><ele>255.00000000000003</ele><time>2026-03-30T15:23:41.999Z</time></trkpt><trkpt lat="40.780531364401796" lon="17.41910885269654"><ele>255.0</ele><time>2026-03-30T15:23:45.999Z</time></trkpt><trkpt lat="40.78058598812833" lon="17.41916486318309"><ele>255.0</ele><time>2026-03-30T15:23:48.999Z</time></trkpt><trkpt lat="40.78065940298952" lon="17.41918749150241"><ele>255.0</ele><time>2026-03-30T15:23:52.999Z</time></trkpt><trkpt lat="40.7807166674275" lon="17.419244338158077"><ele>255.0</ele><time>2026-03-30T15:23:56.999Z</time></trkpt><trkpt lat="40.780790411634" lon="17.419259035746123"><ele>255.0</ele><time>2026-03-30T15:23:59.999Z</time></trkpt><trkpt lat="40.7808751230718" lon="17.41928587648743"><ele>255.0</ele><time>2026-03-30T15:24:03.999Z</time></trkpt><trkpt lat="40.78095746709643" lon="17.419363975102332"><ele>255.0</ele><time>2026-03-30T15:24:08.999Z</time></trkpt><trkpt lat="40.78104212759922" lon="17.419395731537563"><ele>255.0</ele><time>2026-03-30T15:24:11.999Z</time></trkpt><trkpt lat="40.78110292875507" lon="17.419429582703717"><ele>252.16666666666666</ele><time>2026-03-30T15:24:14.999Z</time></trkpt><trkpt lat="40.78118225720419" lon="17.419461111014215"><ele>249.33333333333331</ele><time>2026-03-30T15:24:17.999Z</time></trkpt><trkpt lat="40.78126182428503" lon="17.419506333174926"><ele>246.5</ele><time>2026-03-30T15:24:20.999Z</time></trkpt><trkpt lat="40.78134201944966" lon="17.419541391944396"><ele>243.66666666666666</ele><time>2026-03-30T15:24:22.999Z</time></trkpt><trkpt lat="40.781417045423154" lon="17.41956267610279"><ele>240.83333333333331</ele><time>2026-03-30T15:24:24.998Z</time></trkpt><trkpt lat="40.78146867253452" lon="17.419621519456072"><ele>238.0</ele><time>2026-03-30T15:24:27.998Z</time></trkpt><trkpt lat="40.78153364988877" lon="17.41965407922526"><ele>234.83333333333331</ele><time>2026-03-30T15:24:30.998Z</time></trkpt><trkpt lat="40.781607101212266" lon="17.419696856869344"><ele>231.66666666666666</ele><time>2026-03-30T15:24:33.998Z</time></trkpt><trkpt lat="40.781706761404784" lon="17.41974981137145"><ele>228.5</ele><time>2026-03-30T15:24:36.998Z</time></trkpt><trkpt lat="40.7817610934425" lon="17.419806670310063"><ele>225.33333333333331</ele><time>2026-03-30T15:24:38.998Z</time></trkpt><trkpt lat="40.78178733550428" lon="17.41990160295006"><ele>222.16666666666666</ele><time>2026-03-30T15:24:42.998Z</time></trkpt><trkpt lat="40.78170713944163" lon="17.419950568956363"><ele>219.0</ele><time>2026-03-30T15:24:46.998Z</time></trkpt><trkpt lat="40.781627108472776" lon="17.42000237645487"><ele>219.0</ele><time>2026-03-30T15:24:50.998Z</time></trkpt><trkpt lat="40.78153595234695" lon="17.42000509849598"><ele>219.0</ele><time>2026-03-30T15:24:54.998Z</time></trkpt><trkpt lat="40.781472302480765" lon="17.420012006934616"><ele>219.0</ele><time>2026-03-30T15:24:58.998Z</time></trkpt><trkpt lat="40.781389592100865" lon="17.420024666132356"><ele>219.0</ele><time>2026-03-30T15:25:01.998Z</time></trkpt><trkpt lat="40.781317834643076" lon="17.420075089866028"><ele>219.0</ele><time>2026-03-30T15:25:03.998Z</time></trkpt><trkpt lat="40.78125714478669" lon="17.420101863280603"><ele>219.0</ele><time>2026-03-30T15:25:05.998Z</time></trkpt><trkpt lat="40.78118906349102" lon="17.4201191997942"><ele>219.0</ele><time>2026-03-30T15:25:08Z</time></trkpt><trkpt lat="40.78112355197988" lon="17.420168509596174"><ele>219.0</ele><time>2026-03-30T15:25:11Z</time></trkpt><trkpt lat="40.78108598286183" lon="17.42024327965635"><ele>219.0</ele><time>2026-03-30T15:25:13Z</time></trkpt><trkpt lat="40.781033431596285" lon="17.420298532260198"><ele>219.0</ele><time>2026-03-30T15:25:15Z</time></trkpt><trkpt lat="40.781010145455" lon="17.420408630181782"><ele>219.0</ele><time>2026-03-30T15:25:18Z</time></trkpt><trkpt lat="40.780952789355624" lon="17.420453897974532"><ele>219.0</ele><time>2026-03-30T15:25:19Z</time></trkpt><trkpt lat="40.780897210641" lon="17.42050751685665"><ele>219.0</ele><time>2026-03-30T15:25:21Z</time></trkpt><trkpt lat="40.780835393890825" lon="17.42059853716205"><ele>220.16666666666666</ele><time>2026-03-30T15:25:24Z</time></trkpt><trkpt lat="40.780772820067" lon="17.420670624030368"><ele>221.33333333333331</ele><time>2026-03-30T15:25:27Z</time></trkpt><trkpt lat="40.780709796609095" lon="17.42073736322632"><ele>222.5</ele><time>2026-03-30T15:25:30Z</time></trkpt><trkpt lat="40.78064460210935" lon="17.420824173494868"><ele>223.66666666666666</ele><time>2026-03-30T15:25:33Z</time></trkpt><trkpt lat="40.780584282181074" lon="17.42088384091501"><ele>224.83333333333331</ele><time>2026-03-30T15:25:36Z</time></trkpt><trkpt lat="40.78051610382681" lon="17.42098286271257"><ele>226.0</ele><time>2026-03-30T15:25:40Z</time></trkpt><trkpt lat="40.78045075156577" lon="17.421020420237888"><ele>225.99999999999997</ele><time>2026-03-30T15:25:43Z</time></trkpt><trkpt lat="40.780401495054434" lon="17.42109382179566"><ele>226.0</ele><time>2026-03-30T15:25:45.999Z</time></trkpt><trkpt lat="40.78035838849172" lon="17.42116329483076"><ele>226.0</ele><time>2026-03-30T15:25:48.999Z</time></trkpt><trkpt lat="40.78032292200931" lon="17.421256607145928"><ele>226.0</ele><time>2026-03-30T15:25:51.999Z</time></trkpt><trkpt lat="40.78029284694914" lon="17.421329832393667"><ele>225.99999999999997</ele><time>2026-03-30T15:25:54.999Z</time></trkpt><trkpt lat="40.78025847830091" lon="17.421460765106218"><ele>226.0</ele><time>2026-03-30T15:25:58.999Z</time></trkpt><trkpt lat="40.78023961849543" lon="17.421558616310932"><ele>225.16666666666666</ele><time>2026-03-30T15:26:00.999Z</time></trkpt><trkpt lat="40.7802228231263" lon="17.421646203840407"><ele>224.33333333333331</ele><time>2026-03-30T15:26:02.999Z</time></trkpt><trkpt lat="40.780206439955386" lon="17.421767448922456"><ele>223.5</ele><time>2026-03-30T15:26:05.999Z</time></trkpt><trkpt lat="40.780192449915525" lon="17.421881394164696"><ele>222.66666666666669</ele><time>2026-03-30T15:26:08.999Z</time></trkpt><trkpt lat="40.78016207405174" lon="17.421974952677694"><ele>221.83333333333334</ele><time>2026-03-30T15:26:11.999Z</time></trkpt><trkpt lat="40.780134341276174" lon="17.42207767485876"><ele>221.0</ele><time>2026-03-30T15:26:14.999Z</time></trkpt><trkpt lat="40.78010140371906" lon="17.42217830173832"><ele>226.16666666666669</ele><time>2026-03-30T15:26:17.999Z</time></trkpt><trkpt lat="40.78007105721937" lon="17.42230228000045"><ele>231.33333333333334</ele><time>2026-03-30T15:26:20.999Z</time></trkpt><trkpt lat="40.78007159831167" lon="17.4223975452372"><ele>236.5</ele><time>2026-03-30T15:26:23.999Z</time></trkpt><trkpt lat="40.780060388083754" lon="17.42250302193647"><ele>241.66666666666669</ele><time>2026-03-30T15:26:26.999Z</time></trkpt><trkpt lat="40.78005728729442" lon="17.422609346090937"><ele>246.83333333333334</ele><time>2026-03-30T15:26:29.999Z</time></trkpt><trkpt lat="40.78005577364054" lon="17.422700670636836"><ele>252.0</ele><time>2026-03-30T15:26:31.999Z</time></trkpt><trkpt lat="40.78003635320025" lon="17.422782699723985"><ele>252.0</ele><time>2026-03-30T15:26:33.998Z</time></trkpt><trkpt lat="40.78002457148048" lon="17.422875862575182"><ele>252.0</ele><time>2026-03-30T15:26:36.998Z</time></trkpt><trkpt lat="40.78000321694002" lon="17.42298675731492"><ele>252.0</ele><time>2026-03-30T15:26:40.998Z</time></trkpt><trkpt lat="40.779987583392035" lon="17.423083782866723"><ele>252.0</ele><time>2026-03-30T15:26:43.998Z</time></trkpt><trkpt lat="40.77997699948888" lon="17.4231778151746"><ele>252.0</ele><time>2026-03-30T15:26:46.998Z</time></trkpt><trkpt lat="40.77996165007654" lon="17.423264997111804"><ele>252.0</ele><time>2026-03-30T15:26:49.998Z</time></trkpt><trkpt lat="40.77995654155314" lon="17.423358848123048"><ele>252.0</ele><time>2026-03-30T15:26:52.998Z</time></trkpt><trkpt lat="40.77995364878162" lon="17.423457015759787"><ele>252.66666666666666</ele><time>2026-03-30T15:26:55.998Z</time></trkpt><trkpt lat="40.77994150270977" lon="17.423543999903437"><ele>253.33333333333331</ele><time>2026-03-30T15:26:58.998Z</time></trkpt><trkpt lat="40.77996976385005" lon="17.423638222278782"><ele>254.0</ele><time>2026-03-30T15:27:01.998Z</time></trkpt><trkpt lat="40.7799909618722" lon="17.423729731714705"><ele>254.66666666666666</ele><time>2026-03-30T15:27:04.998Z</time></trkpt><trkpt lat="40.78000927198592" lon="17.423838213646825"><ele>255.33333333333331</ele><time>2026-03-30T15:27:07.998Z</time></trkpt><trkpt lat="40.780008731218686" lon="17.4239481282642"><ele>256.0</ele><time>2026-03-30T15:27:10.998Z</time></trkpt><trkpt lat="40.78001535579575" lon="17.42403533134517"><ele>257.16666666666663</ele><time>2026-03-30T15:27:14Z</time></trkpt><trkpt lat="40.78000484514369" lon="17.42414582049598"><ele>258.3333333333333</ele><time>2026-03-30T15:27:17Z</time></trkpt><trkpt lat="40.77997825977029" lon="17.42425331536532"><ele>259.5</ele><time>2026-03-30T15:27:20Z</time></trkpt><trkpt lat="40.77995623361522" lon="17.42435458819245"><ele>260.6666666666667</ele><time>2026-03-30T15:27:23Z</time></trkpt><trkpt lat="40.77993162677762" lon="17.42444819117605"><ele>261.83333333333337</ele><time>2026-03-30T15:27:26Z</time></trkpt><trkpt lat="40.77991790734765" lon="17.42453551649123"><ele>263.0</ele><time>2026-03-30T15:27:29Z</time></trkpt><trkpt lat="40.77990879261062" lon="17.42464036142212"><ele>263.85714285714283</ele><time>2026-03-30T15:27:32Z</time></trkpt><trkpt lat="40.77989683203351" lon="17.42473959277652"><ele>264.71428571428567</ele><time>2026-03-30T15:27:35Z</time></trkpt><trkpt lat="40.779888319067474" lon="17.424826666436203"><ele>265.57142857142856</ele><time>2026-03-30T15:27:38Z</time></trkpt><trkpt lat="40.779876499091" lon="17.424925869537013"><ele>266.42857142857144</ele><time>2026-03-30T15:27:42Z</time></trkpt><trkpt lat="40.77986471727907" lon="17.42503187442187"><ele>267.28571428571433</ele><time>2026-03-30T15:27:46Z</time></trkpt><trkpt lat="40.779855280962195" lon="17.425116475658108"><ele>268.14285714285717</ele><time>2026-03-30T15:27:49Z</time></trkpt><trkpt lat="40.77985265918273" lon="17.42520811331636"><ele>269.0</ele><time>2026-03-30T15:27:51Z</time></trkpt><trkpt lat="40.77983885031799" lon="17.42533187728671"><ele>269.0</ele><time>2026-03-30T15:27:54.999Z</time></trkpt><trkpt lat="40.779837114436006" lon="17.425422249549413"><ele>269.0</ele><time>2026-03-30T15:27:56.999Z</time></trkpt><trkpt lat="40.77981085873233" lon="17.425518779779583"><ele>269.0</ele><time>2026-03-30T15:27:59.999Z</time></trkpt><trkpt lat="40.77979778998279" lon="17.425602229753018"><ele>269.0</ele><time>2026-03-30T15:28:02.999Z</time></trkpt><trkpt lat="40.77979472764563" lon="17.425708102471212"><ele>269.0</ele><time>2026-03-30T15:28:05.999Z</time></trkpt><trkpt lat="40.77977041603796" lon="17.425800835304322"><ele>269.0</ele><time>2026-03-30T15:28:09.999Z</time></trkpt><trkpt lat="40.77974314664728" lon="17.425890562284955"><ele>269.0</ele><time>2026-03-30T15:28:13.999Z</time></trkpt><trkpt lat="40.77972923192029" lon="17.42598921131144"><ele>269.7142857142857</ele><time>2026-03-30T15:28:16.999Z</time></trkpt><trkpt lat="40.779710496984336" lon="17.426074650661754"><ele>270.42857142857144</ele><time>2026-03-30T15:28:19.999Z</time></trkpt><trkpt lat="40.779701855395984" lon="17.426159355555768"><ele>271.14285714285717</ele><time>2026-03-30T15:28:22.999Z</time></trkpt><trkpt lat="40.77968266844723" lon="17.426266995399104"><ele>271.8571428571429</ele><time>2026-03-30T15:28:26.999Z</time></trkpt><trkpt lat="40.779679008598606" lon="17.426359143873608"><ele>272.57142857142856</ele><time>2026-03-30T15:28:29.999Z</time></trkpt><trkpt lat="40.77966160367975" lon="17.42643993946242"><ele>273.28571428571433</ele><time>2026-03-30T15:28:32.999Z</time></trkpt><trkpt lat="40.779648491978435" lon="17.426537126320696"><ele>274.0</ele><time>2026-03-30T15:28:35.999Z</time></trkpt><trkpt lat="40.779647581184" lon="17.426629698309764"><ele>274.28571428571433</ele><time>2026-03-30T15:28:38.999Z</time></trkpt><trkpt lat="40.7796366376852" lon="17.42672438627306"><ele>274.57142857142856</ele><time>2026-03-30T15:28:40.998Z</time></trkpt><trkpt lat="40.779632254469114" lon="17.426839388803387"><ele>274.8571428571429</ele><time>2026-03-30T15:28:43.998Z</time></trkpt><trkpt lat="40.77962940519068" lon="17.42692793600526"><ele>275.14285714285717</ele><time>2026-03-30T15:28:47.998Z</time></trkpt><trkpt lat="40.77955901416599" lon="17.42689673862115"><ele>275.42857142857144</ele><time>2026-03-30T15:28:55.998Z</time></trkpt><trkpt lat="40.77954426046406" lon="17.426808043328442"><ele>275.7142857142857</ele><time>2026-03-30T15:29:03.998Z</time></trkpt><trkpt lat="40.77951784471354" lon="17.42672293481048"><ele>276.0</ele><time>2026-03-30T15:29:07.998Z</time></trkpt><trkpt lat="40.77949178496857" lon="17.426630787163393"><ele>276.0</ele><time>2026-03-30T15:29:11.998Z</time></trkpt><trkpt lat="40.77945753695372" lon="17.426527033344446"><ele>276.0</ele><time>2026-03-30T15:29:16.998Z</time></trkpt><trkpt lat="40.779440344262746" lon="17.426407151768476"><ele>276.0</ele><time>2026-03-30T15:29:21Z</time></trkpt><trkpt lat="40.77943470560209" lon="17.426307239110237"><ele>276.0</ele><time>2026-03-30T15:29:25Z</time></trkpt><trkpt lat="40.779414925620195" lon="17.42620025464946"><ele>276.0</ele><time>2026-03-30T15:29:29Z</time></trkpt><trkpt lat="40.779412616151575" lon="17.42609037778835"><ele>276.0</ele><time>2026-03-30T15:29:33Z</time></trkpt><trkpt lat="40.77941412498303" lon="17.425985148627092"><ele>275.6666666666667</ele><time>2026-03-30T15:29:36Z</time></trkpt><trkpt lat="40.77936556310708" lon="17.425883049339113"><ele>275.3333333333333</ele><time>2026-03-30T15:29:39Z</time></trkpt><trkpt lat="40.77933413820395" lon="17.425800668295196"><ele>275.0</ele><time>2026-03-30T15:29:42Z</time></trkpt><trkpt lat="40.77928400426501" lon="17.42570059432508"><ele>274.66666666666663</ele><time>2026-03-30T15:29:45Z</time></trkpt><trkpt lat="40.779265774456476" lon="17.42560498595022"><ele>274.3333333333333</ele><time>2026-03-30T15:29:48Z</time></trkpt><trkpt lat="40.77925659725547" lon="17.425508964694483"><ele>274.0</ele><time>2026-03-30T15:29:51Z</time></trkpt><trkpt lat="40.77925503161863" lon="17.425418013049622"><ele>279.7142857142857</ele><time>2026-03-30T15:29:54Z</time></trkpt><trkpt lat="40.77922051848494" lon="17.425333359501156"><ele>285.42857142857144</ele><time>2026-03-30T15:29:56.999Z</time></trkpt><trkpt lat="40.77919288826398" lon="17.42525820653269"><ele>291.1428571428571</ele><time>2026-03-30T15:29:58.999Z</time></trkpt><trkpt lat="40.77916726268058" lon="17.42516263687685"><ele>296.8571428571429</ele><time>2026-03-30T15:30:01.999Z</time></trkpt><trkpt lat="40.779142281318734" lon="17.425071449954267"><ele>302.57142857142856</ele><time>2026-03-30T15:30:04.999Z</time></trkpt><trkpt lat="40.77911100332783" lon="17.42498022519892"><ele>308.2857142857143</ele><time>2026-03-30T15:30:07.999Z</time></trkpt><trkpt lat="40.77907856613578" lon="17.424906018500785"><ele>314.0</ele><time>2026-03-30T15:30:10.999Z</time></trkpt><trkpt lat="40.77904175700758" lon="17.42482904557926"><ele>313.99999999999994</ele><time>2026-03-30T15:30:13.999Z</time></trkpt><trkpt lat="40.77901637031043" lon="17.424740571568517"><ele>314.0</ele><time>2026-03-30T15:30:16.999Z</time></trkpt><trkpt lat="40.778996128550126" lon="17.42464460937111"><ele>314.0</ele><time>2026-03-30T15:30:19.999Z</time></trkpt><trkpt lat="40.778967075226824" lon="17.424564998827773"><ele>314.0</ele><time>2026-03-30T15:30:22.999Z</time></trkpt><trkpt lat="40.77892936728027" lon="17.424476025252794"><ele>314.0</ele><time>2026-03-30T15:30:25.999Z</time></trkpt><trkpt lat="40.77888160417017" lon="17.424394051957417"><ele>313.99999999999994</ele><time>2026-03-30T15:30:28.999Z</time></trkpt><trkpt lat="40.778854336804926" lon="17.424309073468017"><ele>314.0</ele><time>2026-03-30T15:30:31.999Z</time></trkpt><trkpt lat="40.77880705492765" lon="17.424211878472285"><ele>312.83333333333337</ele><time>2026-03-30T15:30:34.999Z</time></trkpt><trkpt lat="40.77876342916849" lon="17.424140125276285"><ele>311.6666666666667</ele><time>2026-03-30T15:30:37.999Z</time></trkpt><trkpt lat="40.77870749037122" lon="17.424059740763422"><ele>310.5</ele><time>2026-03-30T15:30:40.999Z</time></trkpt><trkpt lat="40.77866031860064" lon="17.423953031397755"><ele>309.3333333333333</ele><time>2026-03-30T15:30:43.998Z</time></trkpt><trkpt lat="40.77861795539249" lon="17.42386862357832"><ele>308.16666666666663</ele><time>2026-03-30T15:30:47.998Z</time></trkpt><trkpt lat="40.778572656150985" lon="17.423801242701224"><ele>307.0</ele><time>2026-03-30T15:30:50.998Z</time></trkpt><trkpt lat="40.778504819797554" lon="17.42370258642727"><ele>311.57142857142856</ele><time>2026-03-30T15:30:54.998Z</time></trkpt><trkpt lat="40.77844751835139" lon="17.42360309798032"><ele>316.1428571428571</ele><time>2026-03-30T15:30:58.998Z</time></trkpt><trkpt lat="40.77840680150527" lon="17.423532774149756"><ele>320.71428571428567</ele><time>2026-03-30T15:31:01.998Z</time></trkpt><trkpt lat="40.778365775201415" lon="17.423460731650998"><ele>325.2857142857143</ele><time>2026-03-30T15:31:03.998Z</time></trkpt><trkpt lat="40.778329142056805" lon="17.423390414266606"><ele>329.8571428571429</ele><time>2026-03-30T15:31:05.998Z</time></trkpt><trkpt lat="40.77828529844297" lon="17.4233026291167"><ele>334.4285714285714</ele><time>2026-03-30T15:31:08.998Z</time></trkpt><trkpt lat="40.778256404447205" lon="17.423216241609033"><ele>339.0</ele><time>2026-03-30T15:31:10.998Z</time></trkpt><trkpt lat="40.7782010965626" lon="17.423138404770903"><ele>339.0</ele><time>2026-03-30T15:31:13.998Z</time></trkpt><trkpt lat="40.77816822901306" lon="17.423060636157892"><ele>339.0</ele><time>2026-03-30T15:31:16.998Z</time></trkpt><trkpt lat="40.77811392660333" lon="17.42296858506499"><ele>339.0</ele><time>2026-03-30T15:31:19.998Z</time></trkpt><trkpt lat="40.77805627270702" lon="17.422903912661265"><ele>339.0</ele><time>2026-03-30T15:31:22.998Z</time></trkpt><trkpt lat="40.77802275935803" lon="17.422823510138794"><ele>339.0</ele><time>2026-03-30T15:31:26Z</time></trkpt><trkpt lat="40.77798469651523" lon="17.422704238340994"><ele>339.0</ele><time>2026-03-30T15:31:29Z</time></trkpt><trkpt lat="40.777967177829645" lon="17.42261268638933"><ele>337.5</ele><time>2026-03-30T15:31:31Z</time></trkpt><trkpt lat="40.777937470781794" lon="17.422524749647625"><ele>336.0</ele><time>2026-03-30T15:31:33Z</time></trkpt><trkpt lat="40.77790193750204" lon="17.422419593381218"><ele>334.5</ele><time>2026-03-30T15:31:35Z</time></trkpt><trkpt lat="40.77786018242772" lon="17.422336904914804"><ele>333.0</ele><time>2026-03-30T15:31:37Z</time></trkpt><trkpt lat="40.777840926747444" lon="17.422245286991014"><ele>331.5</ele><time>2026-03-30T15:31:39Z</time></trkpt><trkpt lat="40.777812780741264" lon="17.42214322187588"><ele>330.0</ele><time>2026-03-30T15:31:41Z</time></trkpt><trkpt lat="40.77778615041837" lon="17.422051019657033"><ele>330.0</ele><time>2026-03-30T15:31:43Z</time></trkpt><trkpt lat="40.77776797282302" lon="17.42195631787937"><ele>330.0</ele><time>2026-03-30T15:31:45Z</time></trkpt><trkpt lat="40.77777092519108" lon="17.42184150812336"><ele>330.0</ele><time>2026-03-30T15:31:49Z</time></trkpt><trkpt lat="40.77778778922948" lon="17.421729841343197"><ele>330.0</ele><time>2026-03-30T15:31:52Z</time></trkpt><trkpt lat="40.77782057171631" lon="17.42165599242481"><ele>330.0</ele><time>2026-03-30T15:31:54Z</time></trkpt><trkpt lat="40.77785680775004" lon="17.421585846847567"><ele>330.0</ele><time>2026-03-30T15:31:56Z</time></trkpt><trkpt lat="40.77789066392718" lon="17.42149211597636"><ele>330.0</ele><time>2026-03-30T15:31:58Z</time></trkpt><trkpt lat="40.777896644745994" lon="17.421398947538265"><ele>330.0</ele><time>2026-03-30T15:32:00Z</time></trkpt><trkpt lat="40.77790568456666" lon="17.421310415168424"><ele>330.0</ele><time>2026-03-30T15:32:02Z</time></trkpt><trkpt lat="40.77793053452461" lon="17.421188112364565"><ele>330.0</ele><time>2026-03-30T15:32:04.999Z</time></trkpt><trkpt lat="40.77793100843012" lon="17.421070610779616"><ele>330.0</ele><time>2026-03-30T15:32:07.999Z</time></trkpt><trkpt lat="40.77792386130957" lon="17.42098565630374"><ele>330.0</ele><time>2026-03-30T15:32:09.999Z</time></trkpt><trkpt lat="40.77790984853484" lon="17.420902140247588"><ele>331.5</ele><time>2026-03-30T15:32:12.999Z</time></trkpt><trkpt lat="40.77788919000589" lon="17.420815444819258"><ele>333.0</ele><time>2026-03-30T15:32:15.999Z</time></trkpt><trkpt lat="40.77792951426527" lon="17.420732827235334"><ele>334.5</ele><time>2026-03-30T15:32:19.999Z</time></trkpt><trkpt lat="40.77790367959025" lon="17.42064272759007"><ele>336.0</ele><time>2026-03-30T15:32:24.999Z</time></trkpt><trkpt lat="40.77787169711872" lon="17.420717400776038"><ele>337.5</ele><time>2026-03-30T15:32:29.999Z</time></trkpt><trkpt lat="40.77798108579187" lon="17.420730689564003"><ele>339.0</ele><time>2026-03-30T15:33:15.998Z</time></trkpt><trkpt lat="40.77792645870957" lon="17.420681771274324"><ele>339.0</ele><time>2026-03-30T15:37:44Z</time></trkpt><trkpt lat="40.777854893264745" lon="17.42068327983598"><ele>339.0</ele><time>2026-03-30T15:37:48Z</time></trkpt><trkpt lat="40.77780326038967" lon="17.4207585088121"><ele>339.0</ele><time>2026-03-30T15:37:51Z</time></trkpt><trkpt lat="40.77777043743958" lon="17.420835186664796"><ele>339.0</ele><time>2026-03-30T15:37:54Z</time></trkpt><trkpt lat="40.777756715993725" lon="17.420960947844748"><ele>339.0</ele><time>2026-03-30T15:37:57Z</time></trkpt><trkpt lat="40.77776277335637" lon="17.4210443821934"><ele>339.0</ele><time>2026-03-30T15:37:59Z</time></trkpt><trkpt lat="40.77773727640742" lon="17.42112396401385"><ele>339.0</ele><time>2026-03-30T15:38:01Z</time></trkpt><trkpt lat="40.777716439784236" lon="17.42120902066511"><ele>339.0</ele><time>2026-03-30T15:38:05Z</time></trkpt><trkpt lat="40.77769998043991" lon="17.42130851244227"><ele>339.0</ele><time>2026-03-30T15:38:09Z</time></trkpt><trkpt lat="40.777677365548854" lon="17.421404819960102"><ele>339.0</ele><time>2026-03-30T15:38:12Z</time></trkpt><trkpt lat="40.777657016185266" lon="17.421510679235947"><ele>339.0</ele><time>2026-03-30T15:38:15Z</time></trkpt><trkpt lat="40.77763156508604" lon="17.421635173525857"><ele>339.0</ele><time>2026-03-30T15:38:18Z</time></trkpt><trkpt lat="40.77761619194806" lon="17.421745675058368"><ele>339.0</ele><time>2026-03-30T15:38:19.999Z</time></trkpt><trkpt lat="40.77760566173117" lon="17.421879896527937"><ele>342.1666666666667</ele><time>2026-03-30T15:38:21.999Z</time></trkpt><trkpt lat="40.77760494886387" lon="17.422016664168936"><ele>345.3333333333333</ele><time>2026-03-30T15:38:23.999Z</time></trkpt><trkpt lat="40.77760005615656" lon="17.422138350264884"><ele>348.5</ele><time>2026-03-30T15:38:25.999Z</time></trkpt><trkpt lat="40.777605584624446" lon="17.422243670260286"><ele>351.66666666666663</ele><time>2026-03-30T15:38:27.999Z</time></trkpt><trkpt lat="40.77760680956117" lon="17.422355478511832"><ele>354.8333333333333</ele><time>2026-03-30T15:38:29.999Z</time></trkpt><trkpt lat="40.7776126134315" lon="17.422459949481805"><ele>358.0</ele><time>2026-03-30T15:38:31.999Z</time></trkpt><trkpt lat="40.777597858076184" lon="17.42255294752791"><ele>358.3333333333333</ele><time>2026-03-30T15:38:33.999Z</time></trkpt><trkpt lat="40.77759390249053" lon="17.4226669888929"><ele>358.66666666666663</ele><time>2026-03-30T15:38:36.999Z</time></trkpt><trkpt lat="40.77759636783931" lon="17.42275051471136"><ele>359.0</ele><time>2026-03-30T15:38:38.999Z</time></trkpt><trkpt lat="40.77758862701397" lon="17.42285981298834"><ele>359.3333333333333</ele><time>2026-03-30T15:38:40.999Z</time></trkpt><trkpt lat="40.777593525644676" lon="17.422961459354795"><ele>359.6666666666667</ele><time>2026-03-30T15:38:42.999Z</time></trkpt><trkpt lat="40.77758905091119" lon="17.423064485733136"><ele>360.0</ele><time>2026-03-30T15:38:44.999Z</time></trkpt><trkpt lat="40.77758906280678" lon="17.423158816560697"><ele>360.0</ele><time>2026-03-30T15:38:46.999Z</time></trkpt><trkpt lat="40.77756796250523" lon="17.423241273355618"><ele>360.0</ele><time>2026-03-30T15:38:48.999Z</time></trkpt><trkpt lat="40.77756027299808" lon="17.423338707547853"><ele>360.0</ele><time>2026-03-30T15:38:50.999Z</time></trkpt><trkpt lat="40.777566425661114" lon="17.42345075133145"><ele>360.0</ele><time>2026-03-30T15:38:52.999Z</time></trkpt><trkpt lat="40.77761427485205" lon="17.423555219869176"><ele>360.0</ele><time>2026-03-30T15:38:55.999Z</time></trkpt><trkpt lat="40.77767099235968" lon="17.42364604556696"><ele>360.0</ele><time>2026-03-30T15:38:57.999Z</time></trkpt><trkpt lat="40.77772123954808" lon="17.423704252405756"><ele>357.8333333333333</ele><time>2026-03-30T15:38:59.999Z</time></trkpt><trkpt lat="40.77777193630778" lon="17.423786173574094"><ele>355.6666666666667</ele><time>2026-03-30T15:39:04.999Z</time></trkpt><trkpt lat="40.777828900614544" lon="17.423884665727982"><ele>353.5</ele><time>2026-03-30T15:39:07.998Z</time></trkpt><trkpt lat="40.7778840383118" lon="17.42395275562313"><ele>351.33333333333337</ele><time>2026-03-30T15:39:17.998Z</time></trkpt><trkpt lat="40.77794398286456" lon="17.423983117882496"><ele>349.1666666666667</ele><time>2026-03-30T15:39:19.998Z</time></trkpt><trkpt lat="40.777992496042096" lon="17.424070903006005"><ele>347.0</ele><time>2026-03-30T15:39:21.998Z</time></trkpt><trkpt lat="40.77803918804236" lon="17.424171142958905"><ele>347.0</ele><time>2026-03-30T15:39:23.998Z</time></trkpt><trkpt lat="40.778080350330804" lon="17.424255350686888"><ele>347.0</ele><time>2026-03-30T15:39:25.998Z</time></trkpt><trkpt lat="40.77808574066673" lon="17.424341797562725"><ele>347.0</ele><time>2026-03-30T15:39:27.998Z</time></trkpt><trkpt lat="40.77811672523924" lon="17.42445176975898"><ele>347.0</ele><time>2026-03-30T15:39:29.998Z</time></trkpt><trkpt lat="40.77815528821552" lon="17.424563474439076"><ele>347.0</ele><time>2026-03-30T15:39:32.998Z</time></trkpt><trkpt lat="40.77817784255826" lon="17.42464737932495"><ele>347.0</ele><time>2026-03-30T15:39:34.998Z</time></trkpt><trkpt lat="40.77819715905301" lon="17.424730739020365"><ele>348.1666666666667</ele><time>2026-03-30T15:39:36.998Z</time></trkpt><trkpt lat="40.77822621451937" lon="17.42484722157061"><ele>349.33333333333337</ele><time>2026-03-30T15:39:39.998Z</time></trkpt><trkpt lat="40.77822982594748" lon="17.424937709518012"><ele>350.5</ele><time>2026-03-30T15:39:41.998Z</time></trkpt><trkpt lat="40.77824407786194" lon="17.42502655059608"><ele>351.6666666666667</ele><time>2026-03-30T15:39:43.998Z</time></trkpt><trkpt lat="40.778248540880874" lon="17.42513276341137"><ele>352.8333333333333</ele><time>2026-03-30T15:39:45.998Z</time></trkpt><trkpt lat="40.778255357260456" lon="17.425225236548933"><ele>354.0</ele><time>2026-03-30T15:39:47.998Z</time></trkpt><trkpt lat="40.77825749293171" lon="17.42532288802361"><ele>354.0</ele><time>2026-03-30T15:39:50Z</time></trkpt><trkpt lat="40.77824161810317" lon="17.42541188387325"><ele>354.0</ele><time>2026-03-30T15:39:52Z</time></trkpt><trkpt lat="40.77825551422126" lon="17.425507359981577"><ele>354.0</ele><time>2026-03-30T15:39:54Z</time></trkpt><trkpt lat="40.77826091220562" lon="17.425616628359602"><ele>354.0</ele><time>2026-03-30T15:39:57Z</time></trkpt><trkpt lat="40.77825643379747" lon="17.425730464427577"><ele>354.0</ele><time>2026-03-30T15:40:00Z</time></trkpt><trkpt lat="40.77825140628897" lon="17.425829860271584"><ele>354.0</ele><time>2026-03-30T15:40:03Z</time></trkpt><trkpt lat="40.77824685503584" lon="17.42594262990107"><ele>354.42857142857144</ele><time>2026-03-30T15:40:06Z</time></trkpt><trkpt lat="40.778228980955326" lon="17.42602757590842"><ele>354.85714285714283</ele><time>2026-03-30T15:40:08Z</time></trkpt><trkpt lat="40.77821988190276" lon="17.426140320589038"><ele>355.2857142857143</ele><time>2026-03-30T15:40:11Z</time></trkpt><trkpt lat="40.778235285284886" lon="17.42622270777512"><ele>355.7142857142857</ele><time>2026-03-30T15:40:14Z</time></trkpt><trkpt lat="40.77824781757729" lon="17.426309929664964"><ele>356.1428571428571</ele><time>2026-03-30T15:40:18Z</time></trkpt><trkpt lat="40.778265002951706" lon="17.426399300206736"><ele>356.57142857142856</ele><time>2026-03-30T15:41:00.999Z</time></trkpt><trkpt lat="40.77820487061245" lon="17.426450373417524"><ele>357.0</ele><time>2026-03-30T15:41:07.999Z</time></trkpt><trkpt lat="40.778151238960135" lon="17.426505757699317"><ele>357.0</ele><time>2026-03-30T15:41:14.998Z</time></trkpt><trkpt lat="40.77815042140103" lon="17.426603504966607"><ele>357.0</ele><time>2026-03-30T15:41:21.998Z</time></trkpt><trkpt lat="40.77815577868698" lon="17.426688272679538"><ele>357.0</ele><time>2026-03-30T15:41:31.998Z</time></trkpt><trkpt lat="40.778172896411995" lon="17.426773414601183"><ele>357.0</ele><time>2026-03-30T15:41:44.998Z</time></trkpt><trkpt lat="40.77822907719965" lon="17.426730383705195"><ele>357.0</ele><time>2026-03-30T15:41:57Z</time></trkpt><trkpt lat="40.77824577892664" lon="17.426640840348504"><ele>357.0</ele><time>2026-03-30T15:42:04Z</time></trkpt><trkpt lat="40.778205472755175" lon="17.426573942658045"><ele>357.0</ele><time>2026-03-30T15:42:13Z</time></trkpt><trkpt lat="40.778225642208064" lon="17.42649329779367"><ele>357.0</ele><time>2026-03-30T15:42:26Z</time></trkpt><trkpt lat="40.77815696549952" lon="17.426463244778216"><ele>357.0</ele><time>2026-03-30T15:42:39.999Z</time></trkpt><trkpt lat="40.77814705234363" lon="17.42637975336195"><ele>357.0</ele><time>2026-03-30T15:43:24.998Z</time></trkpt><trkpt lat="40.77820417182678" lon="17.42634239395454"><ele>357.0</ele><time>2026-03-30T15:44:00.998Z</time></trkpt><trkpt lat="40.77826238127537" lon="17.426296930349828"><ele>357.0</ele><time>2026-03-30T15:44:11Z</time></trkpt><trkpt lat="40.778275713603826" lon="17.42639312417453"><ele>357.0</ele><time>2026-03-30T15:44:30Z</time></trkpt><trkpt lat="40.77823815011361" lon="17.426462655777424"><ele>357.0</ele><time>2026-03-30T15:44:41.999Z</time></trkpt><trkpt lat="40.77822453291202" lon="17.426545873975666"><ele>357.0</ele><time>2026-03-30T15:44:50.999Z</time></trkpt><trkpt lat="40.778243358508604" lon="17.42662533873614"><ele>357.0</ele><time>2026-03-30T15:45:00.999Z</time></trkpt><trkpt lat="40.77824660956054" lon="17.42670878931386"><ele>357.0</ele><time>2026-03-30T15:45:09.999Z</time></trkpt><trkpt lat="40.7782031745839" lon="17.426776813970395"><ele>357.0</ele><time>2026-03-30T15:45:17.999Z</time></trkpt><trkpt lat="40.77813365717383" lon="17.426746795343135"><ele>357.0</ele><time>2026-03-30T15:45:28.998Z</time></trkpt><trkpt lat="40.77810042760544" lon="17.426662633737752"><ele>357.0</ele><time>2026-03-30T15:45:55.998Z</time></trkpt><trkpt lat="40.778159241558754" lon="17.42659459101262"><ele>357.0</ele><time>2026-03-30T15:46:42Z</time></trkpt><trkpt lat="40.778172490948535" lon="17.426499156529236"><ele>357.0</ele><time>2026-03-30T15:46:52.999Z</time></trkpt><trkpt lat="40.7781471760845" lon="17.42641189885046"><ele>357.0</ele><time>2026-03-30T15:47:10.999Z</time></trkpt><trkpt lat="40.77818175028906" lon="17.426339427845907"><ele>357.0</ele><time>2026-03-30T15:47:38.998Z</time></trkpt><trkpt lat="40.77822335567771" lon="17.426270431975077"><ele>357.0</ele><time>2026-03-30T15:48:05.998Z</time></trkpt><trkpt lat="40.77824788992465" lon="17.426190299484528"><ele>357.0</ele><time>2026-03-30T15:48:15Z</time></trkpt><trkpt lat="40.77822901729123" lon="17.426090516174852"><ele>357.0</ele><time>2026-03-30T15:48:18Z</time></trkpt><trkpt lat="40.77824018541985" lon="17.42600622411325"><ele>357.0</ele><time>2026-03-30T15:48:20Z</time></trkpt><trkpt lat="40.7782442260704" lon="17.42589445578017"><ele>357.0</ele><time>2026-03-30T15:48:22Z</time></trkpt><trkpt lat="40.77826946073214" lon="17.425779813339833"><ele>357.0</ele><time>2026-03-30T15:48:24Z</time></trkpt><trkpt lat="40.778266524110094" lon="17.425624407040807"><ele>357.0</ele><time>2026-03-30T15:48:26Z</time></trkpt><trkpt lat="40.77826098482215" lon="17.425531911129895"><ele>357.0</ele><time>2026-03-30T15:48:27Z</time></trkpt><trkpt lat="40.77825096204374" lon="17.425437833392007"><ele>357.0</ele><time>2026-03-30T15:48:28Z</time></trkpt><trkpt lat="40.778259703788834" lon="17.425271896643206"><ele>356.40000000000003</ele><time>2026-03-30T15:48:30Z</time></trkpt><trkpt lat="40.77826727648741" lon="17.42512545703834"><ele>355.8</ele><time>2026-03-30T15:48:32Z</time></trkpt><trkpt lat="40.77825756467971" lon="17.424976122486413"><ele>355.2</ele><time>2026-03-30T15:48:34Z</time></trkpt><trkpt lat="40.77824479030192" lon="17.424844809238802"><ele>354.6</ele><time>2026-03-30T15:48:36Z</time></trkpt><trkpt lat="40.77821169703281" lon="17.424704089494348"><ele>354.0</ele><time>2026-03-30T15:48:38Z</time></trkpt><trkpt lat="40.778176370412204" lon="17.424570039971325"><ele>352.8333333333333</ele><time>2026-03-30T15:48:40Z</time></trkpt><trkpt lat="40.778147695219666" lon="17.424487789148976"><ele>351.6666666666667</ele><time>2026-03-30T15:48:41Z</time></trkpt><trkpt lat="40.778128088675" lon="17.424408207931954"><ele>350.5</ele><time>2026-03-30T15:48:42Z</time></trkpt><trkpt lat="40.7780777661889" lon="17.424262044545866"><ele>349.33333333333337</ele><time>2026-03-30T15:48:44Z</time></trkpt><trkpt lat="40.77802266485672" lon="17.424149585075085"><ele>348.1666666666667</ele><time>2026-03-30T15:48:46Z</time></trkpt><trkpt lat="40.777987667901186" lon="17.424045420170412"><ele>347.0</ele><time>2026-03-30T15:48:47.999Z</time></trkpt><trkpt lat="40.777924882754846" lon="17.423950563412536"><ele>347.0</ele><time>2026-03-30T15:48:49.999Z</time></trkpt><trkpt lat="40.7778671841356" lon="17.42389406004991"><ele>347.0</ele><time>2026-03-30T15:48:51.999Z</time></trkpt><trkpt lat="40.77780395653735" lon="17.423867093660878"><ele>347.0</ele><time>2026-03-30T15:48:53.999Z</time></trkpt><trkpt lat="40.77774880762382" lon="17.423795631345158"><ele>347.0</ele><time>2026-03-30T15:48:55.999Z</time></trkpt><trkpt lat="40.77770972272675" lon="17.423685603627877"><ele>347.0</ele><time>2026-03-30T15:48:57.999Z</time></trkpt><trkpt lat="40.77764455183509" lon="17.423595976606073"><ele>347.0</ele><time>2026-03-30T15:48:59.999Z</time></trkpt><trkpt lat="40.777599078071226" lon="17.423508774220444"><ele>349.1666666666667</ele><time>2026-03-30T15:49:01.999Z</time></trkpt><trkpt lat="40.777536627038074" lon="17.42349217754376"><ele>351.33333333333337</ele><time>2026-03-30T15:49:04.999Z</time></trkpt><trkpt lat="40.77745329291524" lon="17.423480844679073"><ele>353.5</ele><time>2026-03-30T15:49:07.999Z</time></trkpt><trkpt lat="40.77737734345868" lon="17.42352063914786"><ele>355.6666666666667</ele><time>2026-03-30T15:49:09.999Z</time></trkpt><trkpt lat="40.77727025439952" lon="17.42355628186036"><ele>357.8333333333333</ele><time>2026-03-30T15:49:11.999Z</time></trkpt><trkpt lat="40.77727515088947" lon="17.423658751884332"><ele>360.0</ele><time>2026-03-30T15:49:14.999Z</time></trkpt><trkpt lat="40.777357788965695" lon="17.423697472888556"><ele>360.0</ele><time>2026-03-30T15:49:16.999Z</time></trkpt><trkpt lat="40.77744460501563" lon="17.42376388692954"><ele>360.0</ele><time>2026-03-30T15:49:18.999Z</time></trkpt><trkpt lat="40.777490900250385" lon="17.423873222448947"><ele>360.0</ele><time>2026-03-30T15:49:20.999Z</time></trkpt><trkpt lat="40.77746148051255" lon="17.424007749655996"><ele>360.0</ele><time>2026-03-30T15:49:22.999Z</time></trkpt><trkpt lat="40.77749244019517" lon="17.424118970409705"><ele>360.0</ele><time>2026-03-30T15:49:24.999Z</time></trkpt><trkpt lat="40.77750757797187" lon="17.424217834822954"><ele>359.8</ele><time>2026-03-30T15:49:25.999Z</time></trkpt><trkpt lat="40.77749125443203" lon="17.424308383574626"><ele>359.6</ele><time>2026-03-30T15:49:26.999Z</time></trkpt><trkpt lat="40.77742404913391" lon="17.424413641860202"><ele>359.4</ele><time>2026-03-30T15:49:28.999Z</time></trkpt><trkpt lat="40.7775479611701" lon="17.424454148248238"><ele>359.2</ele><time>2026-03-30T15:49:35.998Z</time></trkpt><trkpt lat="40.77760544268397" lon="17.424515289900196"><ele>359.0</ele><time>2026-03-30T15:49:39.998Z</time></trkpt><trkpt lat="40.77770896544713" lon="17.42452831888032"><ele>358.1666666666667</ele><time>2026-03-30T15:49:52.998Z</time></trkpt><trkpt lat="40.777736578931425" lon="17.42463681107247"><ele>357.33333333333337</ele><time>2026-03-30T15:49:54.998Z</time></trkpt><trkpt lat="40.777780138806456" lon="17.424723936970285"><ele>356.5</ele><time>2026-03-30T15:49:56.998Z</time></trkpt><trkpt lat="40.777804393154945" lon="17.424804517740668"><ele>355.6666666666667</ele><time>2026-03-30T15:49:58.998Z</time></trkpt><trkpt lat="40.77777641720247" lon="17.424890882554564"><ele>354.8333333333333</ele><time>2026-03-30T15:50:00.998Z</time></trkpt><trkpt lat="40.777793476567396" lon="17.42499350850986"><ele>354.0</ele><time>2026-03-30T15:50:02.998Z</time></trkpt><trkpt lat="40.777785283280494" lon="17.425089520402903"><ele>354.0</ele><time>2026-03-30T15:50:04.998Z</time></trkpt><trkpt lat="40.77778060862927" lon="17.425176356641124"><ele>354.0</ele><time>2026-03-30T15:50:06.998Z</time></trkpt><trkpt lat="40.77773835353678" lon="17.425290366968284"><ele>354.0</ele><time>2026-03-30T15:50:10.998Z</time></trkpt><trkpt lat="40.777659144722726" lon="17.42531353330279"><ele>354.0</ele><time>2026-03-30T15:50:13.998Z</time></trkpt><trkpt lat="40.77759203266821" lon="17.42527814087736"><ele>354.0</ele><time>2026-03-30T15:50:16.998Z</time></trkpt><trkpt lat="40.77753710611503" lon="17.425345835302206"><ele>354.0</ele><time>2026-03-30T15:50:21Z</time></trkpt><trkpt lat="40.77746337144648" lon="17.425420185754444"><ele>354.6</ele><time>2026-03-30T15:50:24Z</time></trkpt><trkpt lat="40.77738804654694" lon="17.425524317861452"><ele>355.2</ele><time>2026-03-30T15:50:26Z</time></trkpt><trkpt lat="40.77732044662877" lon="17.425583901949125"><ele>355.8</ele><time>2026-03-30T15:50:29Z</time></trkpt><trkpt lat="40.77721586264685" lon="17.425620567657223"><ele>356.40000000000003</ele><time>2026-03-30T15:50:32Z</time></trkpt><trkpt lat="40.77714404236881" lon="17.42565110769612"><ele>357.0</ele><time>2026-03-30T15:50:34Z</time></trkpt><trkpt lat="40.777061629179265" lon="17.425646554886157"><ele>357.0</ele><time>2026-03-30T15:50:36Z</time></trkpt><trkpt lat="40.77699022778176" lon="17.425604268252098"><ele>357.0</ele><time>2026-03-30T15:50:38Z</time></trkpt><trkpt lat="40.7769050752527" lon="17.425572116611292"><ele>357.0</ele><time>2026-03-30T15:50:41Z</time></trkpt><trkpt lat="40.77682256013085" lon="17.425627053882458"><ele>357.0</ele><time>2026-03-30T15:50:44Z</time></trkpt><trkpt lat="40.77679281391347" lon="17.42571738619037"><ele>357.0</ele><time>2026-03-30T15:50:47Z</time></trkpt><trkpt lat="40.776766640961064" lon="17.42582463409113"><ele>357.0</ele><time>2026-03-30T15:50:49Z</time></trkpt><trkpt lat="40.77674025622319" lon="17.42593702333933"><ele>356.5</ele><time>2026-03-30T15:50:53Z</time></trkpt><trkpt lat="40.776689611788996" lon="17.426028458913397"><ele>356.0</ele><time>2026-03-30T15:50:55.999Z</time></trkpt><trkpt lat="40.7766293286184" lon="17.426110521990243"><ele>355.5</ele><time>2026-03-30T15:50:58.999Z</time></trkpt><trkpt lat="40.77655383611435" lon="17.426162922946233"><ele>355.0</ele><time>2026-03-30T15:51:02.999Z</time></trkpt><trkpt lat="40.776469240083316" lon="17.426145204330048"><ele>354.5</ele><time>2026-03-30T15:51:05.999Z</time></trkpt><trkpt lat="40.776385726652094" lon="17.426086185696395"><ele>354.0</ele><time>2026-03-30T15:51:08.999Z</time></trkpt><trkpt lat="40.77632421905841" lon="17.42602439066057"><ele>354.0</ele><time>2026-03-30T15:51:11.999Z</time></trkpt><trkpt lat="40.77626963716983" lon="17.42594245111131"><ele>354.0</ele><time>2026-03-30T15:51:13.999Z</time></trkpt><trkpt lat="40.77621110951958" lon="17.42590426553375"><ele>354.0</ele><time>2026-03-30T15:51:15.999Z</time></trkpt><trkpt lat="40.77612795092067" lon="17.42592123242185"><ele>354.0</ele><time>2026-03-30T15:51:17.999Z</time></trkpt><trkpt lat="40.776044924408794" lon="17.425922008530232"><ele>354.0</ele><time>2026-03-30T15:51:20.999Z</time></trkpt><trkpt lat="40.77595805694927" lon="17.425883468910968"><ele>354.0</ele><time>2026-03-30T15:51:24.999Z</time></trkpt><trkpt lat="40.77588519465363" lon="17.425834076569785"><ele>354.8571428571429</ele><time>2026-03-30T15:51:26.999Z</time></trkpt><trkpt lat="40.775850346530895" lon="17.425761792018353"><ele>355.71428571428567</ele><time>2026-03-30T15:51:28.999Z</time></trkpt><trkpt lat="40.77578026089567" lon="17.42577881088109"><ele>356.57142857142856</ele><time>2026-03-30T15:51:31.999Z</time></trkpt><trkpt lat="40.775708376871094" lon="17.425771887490846"><ele>357.42857142857144</ele><time>2026-03-30T15:51:33.999Z</time></trkpt><trkpt lat="40.77563755653694" lon="17.425749900403133"><ele>358.28571428571433</ele><time>2026-03-30T15:51:36.999Z</time></trkpt><trkpt lat="40.77557588934388" lon="17.425810944905418"><ele>359.1428571428571</ele><time>2026-03-30T15:51:49.998Z</time></trkpt><trkpt lat="40.77559788891971" lon="17.425894695814637"><ele>360.0</ele><time>2026-03-30T15:51:52.998Z</time></trkpt><trkpt lat="40.7756467535142" lon="17.425954588118742"><ele>360.0</ele><time>2026-03-30T15:51:54.998Z</time></trkpt><trkpt lat="40.77561059570558" lon="17.42603706515549"><ele>360.0</ele><time>2026-03-30T15:51:57.998Z</time></trkpt><trkpt lat="40.77555839871917" lon="17.426115065227492"><ele>360.0</ele><time>2026-03-30T15:51:59.998Z</time></trkpt><trkpt lat="40.77550817508467" lon="17.42617815962871"><ele>360.0</ele><time>2026-03-30T15:52:01.998Z</time></trkpt><trkpt lat="40.775440657898876" lon="17.42625293230483"><ele>360.0</ele><time>2026-03-30T15:52:03.998Z</time></trkpt><trkpt lat="40.775399277944906" lon="17.42639558747124"><ele>360.0</ele><time>2026-03-30T15:52:05.998Z</time></trkpt><trkpt lat="40.77539025428118" lon="17.426535588424798"><ele>360.8333333333333</ele><time>2026-03-30T15:52:07.998Z</time></trkpt><trkpt lat="40.77534164990908" lon="17.426603587504136"><ele>361.6666666666667</ele><time>2026-03-30T15:52:09.998Z</time></trkpt><trkpt lat="40.77527161219989" lon="17.42658664516477"><ele>362.5</ele><time>2026-03-30T15:52:11.998Z</time></trkpt><trkpt lat="40.77522232323846" lon="17.42664255555726"><ele>363.33333333333337</ele><time>2026-03-30T15:52:13.998Z</time></trkpt><trkpt lat="40.775163757067276" lon="17.426733603237277"><ele>364.1666666666667</ele><time>2026-03-30T15:52:15.998Z</time></trkpt><trkpt lat="40.77508344055669" lon="17.42679115846681"><ele>365.0</ele><time>2026-03-30T15:52:17.998Z</time></trkpt><trkpt lat="40.77500515279963" lon="17.4268454619264"><ele>365.0</ele><time>2026-03-30T15:52:19.998Z</time></trkpt><trkpt lat="40.774971300583786" lon="17.42693804791795"><ele>365.0</ele><time>2026-03-30T15:52:22.998Z</time></trkpt><trkpt lat="40.774909176475965" lon="17.426962980554592"><ele>365.0</ele><time>2026-03-30T15:52:24.998Z</time></trkpt><trkpt lat="40.77483151587989" lon="17.427032968000916"><ele>365.0</ele><time>2026-03-30T15:52:27Z</time></trkpt><trkpt lat="40.77480266385323" lon="17.42711025049048"><ele>365.0</ele><time>2026-03-30T15:52:29Z</time></trkpt><trkpt lat="40.77474441222468" lon="17.42718346935201"><ele>365.0</ele><time>2026-03-30T15:52:31Z</time></trkpt><trkpt lat="40.774708214040906" lon="17.427259652175625"><ele>365.0</ele><time>2026-03-30T15:52:33Z</time></trkpt><trkpt lat="40.77464244499109" lon="17.42734109760655"><ele>365.0</ele><time>2026-03-30T15:52:35Z</time></trkpt><trkpt lat="40.77457954029643" lon="17.427426606789346"><ele>365.0</ele><time>2026-03-30T15:52:37Z</time></trkpt><trkpt lat="40.77452624502646" lon="17.4275052123601"><ele>365.0</ele><time>2026-03-30T15:52:39Z</time></trkpt><trkpt lat="40.774481760426795" lon="17.42757309123528"><ele>365.0</ele><time>2026-03-30T15:52:41Z</time></trkpt><trkpt lat="40.774395155953506" lon="17.427607650761093"><ele>365.0</ele><time>2026-03-30T15:52:46Z</time></trkpt><trkpt lat="40.7743292665466" lon="17.42759195992504"><ele>365.00000000000006</ele><time>2026-03-30T15:52:50Z</time></trkpt><trkpt lat="40.77427637334384" lon="17.427515230106756"><ele>365.0</ele><time>2026-03-30T15:52:53Z</time></trkpt><trkpt lat="40.77428260501022" lon="17.427423522134823"><ele>365.0</ele><time>2026-03-30T15:52:56Z</time></trkpt><trkpt lat="40.7742855804301" lon="17.427336170883635"><ele>365.0</ele><time>2026-03-30T15:52:58Z</time></trkpt><trkpt lat="40.774299220412374" lon="17.42722578571371"><ele>365.0</ele><time>2026-03-30T15:53:00Z</time></trkpt><trkpt lat="40.77431674298767" lon="17.427138697932083"><ele>365.00000000000006</ele><time>2026-03-30T15:53:02Z</time></trkpt><trkpt lat="40.77424133328163" lon="17.42713493532425"><ele>365.0</ele><time>2026-03-30T15:53:13.999Z</time></trkpt><trkpt lat="40.77416726808288" lon="17.427185240081243"><ele>365.0</ele><time>2026-03-30T15:53:15.999Z</time></trkpt><trkpt lat="40.774061424181596" lon="17.427268666768665"><ele>365.0</ele><time>2026-03-30T15:53:17.999Z</time></trkpt><trkpt lat="40.77400623671107" lon="17.427317028472533"><ele>365.0</ele><time>2026-03-30T15:53:18.999Z</time></trkpt><trkpt lat="40.77395256626082" lon="17.427437734368986"><ele>365.0</ele><time>2026-03-30T15:53:20.999Z</time></trkpt><trkpt lat="40.77395582580156" lon="17.427552272188887"><ele>365.0</ele><time>2026-03-30T15:53:22.999Z</time></trkpt><trkpt lat="40.77387461559588" lon="17.42757420365213"><ele>365.0</ele><time>2026-03-30T15:53:24.999Z</time></trkpt><trkpt lat="40.77381535639327" lon="17.42753111687824"><ele>365.0</ele><time>2026-03-30T15:53:25.999Z</time></trkpt><trkpt lat="40.773720050135736" lon="17.4274513717519"><ele>365.0</ele><time>2026-03-30T15:53:27.999Z</time></trkpt><trkpt lat="40.77362854564066" lon="17.427380669109567"><ele>365.0</ele><time>2026-03-30T15:53:29.999Z</time></trkpt><trkpt lat="40.773584233956264" lon="17.427306965349167"><ele>365.0</ele><time>2026-03-30T15:53:30.999Z</time></trkpt><trkpt lat="40.77353320682329" lon="17.427240072291685"><ele>365.0</ele><time>2026-03-30T15:53:31.999Z</time></trkpt><trkpt lat="40.77348397058267" lon="17.42718567124872"><ele>363.33333333333337</ele><time>2026-03-30T15:53:32.999Z</time></trkpt><trkpt lat="40.77338626591693" lon="17.42707899329188"><ele>361.6666666666667</ele><time>2026-03-30T15:53:34.999Z</time></trkpt><trkpt lat="40.77333091615972" lon="17.427038210529243"><ele>360.0</ele><time>2026-03-30T15:53:35.999Z</time></trkpt><trkpt lat="40.773281129854425" lon="17.426977534926277"><ele>358.3333333333333</ele><time>2026-03-30T15:53:36.999Z</time></trkpt><trkpt lat="40.7732292532091" lon="17.426914657831613"><ele>356.66666666666663</ele><time>2026-03-30T15:53:37.999Z</time></trkpt><trkpt lat="40.77317332814277" lon="17.426869297938225"><ele>355.0</ele><time>2026-03-30T15:53:38.999Z</time></trkpt><trkpt lat="40.77309986391114" lon="17.42686147579423"><ele>355.0</ele><time>2026-03-30T15:53:40.999Z</time></trkpt><trkpt lat="40.77306360650006" lon="17.426944456894272"><ele>355.0</ele><time>2026-03-30T15:53:42.999Z</time></trkpt><trkpt lat="40.77302477476141" lon="17.42701337329927"><ele>355.0</ele><time>2026-03-30T15:53:43.999Z</time></trkpt><trkpt lat="40.772982975986466" lon="17.427079645525154"><ele>355.0</ele><time>2026-03-30T15:53:44.999Z</time></trkpt><trkpt lat="40.772909221897976" lon="17.42715498597066"><ele>355.0</ele><time>2026-03-30T15:53:46.999Z</time></trkpt><trkpt lat="40.77282717605539" lon="17.427259570189428"><ele>355.0</ele><time>2026-03-30T15:53:48.999Z</time></trkpt><trkpt lat="40.772781048750666" lon="17.42732321748157"><ele>355.0</ele><time>2026-03-30T15:53:50.999Z</time></trkpt><trkpt lat="40.7727178915905" lon="17.427317882476913"><ele>355.0</ele><time>2026-03-30T15:53:52.999Z</time></trkpt><trkpt lat="40.77266118482924" lon="17.427202461648474"><ele>355.0</ele><time>2026-03-30T15:53:54.998Z</time></trkpt><trkpt lat="40.7726170745916" lon="17.427142806365136"><ele>355.0</ele><time>2026-03-30T15:53:55.998Z</time></trkpt><trkpt lat="40.77257090493134" lon="17.427082154944404"><ele>355.0</ele><time>2026-03-30T15:53:56.998Z</time></trkpt><trkpt lat="40.772525577455404" lon="17.42701084638164"><ele>355.0</ele><time>2026-03-30T15:53:57.998Z</time></trkpt><trkpt lat="40.772482637920895" lon="17.426945741713855"><ele>355.0</ele><time>2026-03-30T15:53:58.998Z</time></trkpt><trkpt lat="40.77243636879695" lon="17.426865413610546"><ele>354.0</ele><time>2026-03-30T15:53:59.998Z</time></trkpt><trkpt lat="40.77238047598175" lon="17.42679191970643"><ele>353.0</ele><time>2026-03-30T15:54:00.998Z</time></trkpt><trkpt lat="40.77232496861655" lon="17.426717662454315"><ele>352.0</ele><time>2026-03-30T15:54:01.998Z</time></trkpt><trkpt lat="40.772276195984276" lon="17.426637618840413"><ele>351.0</ele><time>2026-03-30T15:54:02.998Z</time></trkpt><trkpt lat="40.77220589233488" lon="17.426523884598026"><ele>350.0</ele><time>2026-03-30T15:54:04.998Z</time></trkpt><trkpt lat="40.7721487521468" lon="17.426413425119442"><ele>349.0</ele><time>2026-03-30T15:54:06.998Z</time></trkpt><trkpt lat="40.77205711986821" lon="17.426430038478117"><ele>349.0</ele><time>2026-03-30T15:54:09.998Z</time></trkpt><trkpt lat="40.77200139362229" lon="17.42653760436571"><ele>349.0</ele><time>2026-03-30T15:54:11.998Z</time></trkpt><trkpt lat="40.77193536476858" lon="17.42666084855779"><ele>349.0</ele><time>2026-03-30T15:54:13.998Z</time></trkpt><trkpt lat="40.77187380802048" lon="17.42676549456398"><ele>349.0</ele><time>2026-03-30T15:54:15.998Z</time></trkpt><trkpt lat="40.77181815081582" lon="17.42681047080455"><ele>349.0</ele><time>2026-03-30T15:54:17.998Z</time></trkpt><trkpt lat="40.77175730548122" lon="17.42675482276896"><ele>349.2</ele><time>2026-03-30T15:54:19.998Z</time></trkpt><trkpt lat="40.77169742625914" lon="17.42662414791879"><ele>349.4</ele><time>2026-03-30T15:54:21.998Z</time></trkpt><trkpt lat="40.77164485860271" lon="17.4264936878771"><ele>349.6</ele><time>2026-03-30T15:54:23.998Z</time></trkpt><trkpt lat="40.771591878970675" lon="17.426381224452637"><ele>349.8</ele><time>2026-03-30T15:54:25.998Z</time></trkpt><trkpt lat="40.77150187420803" lon="17.42633468204518"><ele>350.0</ele><time>2026-03-30T15:54:27.998Z</time></trkpt><trkpt lat="40.77144420597284" lon="17.426292951750643"><ele>350.0</ele><time>2026-03-30T15:54:29.998Z</time></trkpt><trkpt lat="40.77136949412462" lon="17.426307539478444"><ele>350.0</ele><time>2026-03-30T15:54:35Z</time></trkpt><trkpt lat="40.771308495077726" lon="17.426335164868142"><ele>346.0</ele><time>2026-03-30T15:54:38Z</time></trkpt><trkpt lat="40.771250324324136" lon="17.426389816309932"><ele>346.0</ele><time>2026-03-30T15:54:43Z</time></trkpt><trkpt lat="40.77120884664128" lon="17.42646468627027"><ele>346.0</ele><time>2026-03-30T15:54:48Z</time></trkpt></trkseg></trk></gpx>